<?xml version='1.0' encoding='UTF-8'?><gpx version="1.1" creator="JPX - https://github.com/jenetics/jpx" xmlns="http://www.topografix.com/GPX/1/1"><trk><trkseg><trkpt lat="45.3574459" lon="9.7836907"><ele>73.0</ele><time>2026-03-29T08:55:28.889Z</time></trkpt><trkpt lat="45.3574612" lon="9.7835952"><ele>73.0</ele><time>2026-03-29T08:55:31.889Z</time></trkpt><trkpt lat="45.3574848" lon="9.7834806"><ele>73.0</ele><time>2026-03-29T08:55:37.036Z</time></trkpt><trkpt lat="45.3575383" lon="9.7834052"><ele>73.0</ele><time>2026-03-29T08:55:39.977Z</time></trkpt><trkpt lat="45.3575169" lon="9.7831079"><ele>73.0</ele><time>2026-03-29T08:55:43.499Z</time></trkpt><trkpt lat="45.3575677" lon="9.7830383"><ele>73.16666666666666</ele><time>2026-03-29T08:55:45.606Z</time></trkpt><trkpt lat="45.3576283" lon="9.7830037"><ele>73.33333333333333</ele><time>2026-03-29T08:55:49.985Z</time></trkpt><trkpt lat="45.3575523" lon="9.7830165"><ele>73.5</ele><time>2026-03-29T08:56:09.874Z</time></trkpt><trkpt lat="45.3574933" lon="9.7829833"><ele>73.66666666666667</ele><time>2026-03-29T08:56:20.874Z</time></trkpt><trkpt lat="45.3574117" lon="9.7829483"><ele>73.83333333333334</ele><time>2026-03-29T08:56:57.874Z</time></trkpt><trkpt lat="45.3573367" lon="9.7829183"><ele>74.0</ele><time>2026-03-29T08:57:00.874Z</time></trkpt><trkpt lat="45.3572533" lon="9.7829167"><ele>73.83333333333334</ele><time>2026-03-29T08:57:03.874Z</time></trkpt><trkpt lat="45.3571767" lon="9.7829267"><ele>73.66666666666667</ele><time>2026-03-29T08:57:06.2Z</time></trkpt><trkpt lat="45.3571083" lon="9.782945"><ele>73.5</ele><time>2026-03-29T08:57:08.376Z</time></trkpt><trkpt lat="45.3570233" lon="9.7829817"><ele>73.33333333333333</ele><time>2026-03-29T08:57:10.876Z</time></trkpt><trkpt lat="45.356935" lon="9.7830117"><ele>73.16666666666666</ele><time>2026-03-29T08:57:13.875Z</time></trkpt><trkpt lat="45.3568683" lon="9.7830217"><ele>73.0</ele><time>2026-03-29T08:57:15.875Z</time></trkpt><trkpt lat="45.3567967" lon="9.783025"><ele>73.0</ele><time>2026-03-29T08:57:17.875Z</time></trkpt><trkpt lat="45.3567167" lon="9.78303"><ele>73.0</ele><time>2026-03-29T08:57:19.875Z</time></trkpt><trkpt lat="45.35664" lon="9.7830333"><ele>73.0</ele><time>2026-03-29T08:57:21.875Z</time></trkpt><trkpt lat="45.3565633" lon="9.783045"><ele>73.0</ele><time>2026-03-29T08:57:23.875Z</time></trkpt><trkpt lat="45.3564783" lon="9.7830467"><ele>73.0</ele><time>2026-03-29T08:57:25.876Z</time></trkpt><trkpt lat="45.3564" lon="9.7830567"><ele>73.0</ele><time>2026-03-29T08:57:27.875Z</time></trkpt><trkpt lat="45.3563217" lon="9.78306"><ele>73.0</ele><time>2026-03-29T08:57:29.876Z</time></trkpt><trkpt lat="45.3562483" lon="9.7830683"><ele>73.0</ele><time>2026-03-29T08:57:31.875Z</time></trkpt><trkpt lat="45.35617" lon="9.7830833"><ele>73.0</ele><time>2026-03-29T08:57:33.875Z</time></trkpt><trkpt lat="45.3560967" lon="9.7830883"><ele>73.0</ele><time>2026-03-29T08:57:35.875Z</time></trkpt><trkpt lat="45.35604" lon="9.7830433"><ele>73.0</ele><time>2026-03-29T08:57:37.875Z</time></trkpt><trkpt lat="45.356015" lon="9.7829517"><ele>73.0</ele><time>2026-03-29T08:57:39.876Z</time></trkpt><trkpt lat="45.3559967" lon="9.78284"><ele>73.0</ele><time>2026-03-29T08:57:41.875Z</time></trkpt><trkpt lat="45.3559683" lon="9.782725"><ele>73.0</ele><time>2026-03-29T08:57:43.876Z</time></trkpt><trkpt lat="45.3559517" lon="9.7826067"><ele>73.0</ele><time>2026-03-29T08:57:45.875Z</time></trkpt><trkpt lat="45.35594" lon="9.7824883"><ele>73.0</ele><time>2026-03-29T08:57:47.875Z</time></trkpt><trkpt lat="45.3559267" lon="9.782375"><ele>73.0</ele><time>2026-03-29T08:57:49.875Z</time></trkpt><trkpt lat="45.3559083" lon="9.78226"><ele>73.0</ele><time>2026-03-29T08:57:51.876Z</time></trkpt><trkpt lat="45.3558917" lon="9.7821383"><ele>73.0</ele><time>2026-03-29T08:57:53.875Z</time></trkpt><trkpt lat="45.35588" lon="9.7820167"><ele>73.0</ele><time>2026-03-29T08:57:55.875Z</time></trkpt><trkpt lat="45.3558717" lon="9.7818933"><ele>73.0</ele><time>2026-03-29T08:57:57.875Z</time></trkpt><trkpt lat="45.3558567" lon="9.7817717"><ele>73.0</ele><time>2026-03-29T08:57:59.875Z</time></trkpt><trkpt lat="45.3558383" lon="9.7816483"><ele>73.0</ele><time>2026-03-29T08:58:01.876Z</time></trkpt><trkpt lat="45.3558167" lon="9.78152"><ele>73.0</ele><time>2026-03-29T08:58:03.875Z</time></trkpt><trkpt lat="45.3557917" lon="9.7813967"><ele>73.0</ele><time>2026-03-29T08:58:05.876Z</time></trkpt><trkpt lat="45.35577" lon="9.78128"><ele>73.0</ele><time>2026-03-29T08:58:07.875Z</time></trkpt><trkpt lat="45.35575" lon="9.78115"><ele>73.0</ele><time>2026-03-29T08:58:09.875Z</time></trkpt><trkpt lat="45.3557267" lon="9.7810217"><ele>73.0</ele><time>2026-03-29T08:58:11.875Z</time></trkpt><trkpt lat="45.3557133" lon="9.780895"><ele>73.0</ele><time>2026-03-29T08:58:13.875Z</time></trkpt><trkpt lat="45.355705" lon="9.7807683"><ele>73.0</ele><time>2026-03-29T08:58:15.875Z</time></trkpt><trkpt lat="45.355685" lon="9.78065"><ele>73.0</ele><time>2026-03-29T08:58:17.875Z</time></trkpt><trkpt lat="45.3556583" lon="9.780535"><ele>73.0</ele><time>2026-03-29T08:58:19.875Z</time></trkpt><trkpt lat="45.355635" lon="9.7804367"><ele>73.0</ele><time>2026-03-29T08:58:21.875Z</time></trkpt><trkpt lat="45.3556117" lon="9.7803283"><ele>73.0</ele><time>2026-03-29T08:58:24.876Z</time></trkpt><trkpt lat="45.3555867" lon="9.7801883"><ele>73.0</ele><time>2026-03-29T08:58:27.876Z</time></trkpt><trkpt lat="45.3555733" lon="9.78009"><ele>73.0</ele><time>2026-03-29T08:58:29.875Z</time></trkpt><trkpt lat="45.3555567" lon="9.779975"><ele>73.0</ele><time>2026-03-29T08:58:31.875Z</time></trkpt><trkpt lat="45.35554" lon="9.7798517"><ele>73.0</ele><time>2026-03-29T08:58:33.875Z</time></trkpt><trkpt lat="45.3555233" lon="9.7797167"><ele>73.0</ele><time>2026-03-29T08:58:35.875Z</time></trkpt><trkpt lat="45.355505" lon="9.779595"><ele>73.0</ele><time>2026-03-29T08:58:37.875Z</time></trkpt><trkpt lat="45.355485" lon="9.779475"><ele>73.0</ele><time>2026-03-29T08:58:39.875Z</time></trkpt><trkpt lat="45.3554617" lon="9.7793617"><ele>73.0</ele><time>2026-03-29T08:58:41.875Z</time></trkpt><trkpt lat="45.3554383" lon="9.779245"><ele>73.0</ele><time>2026-03-29T08:58:43.875Z</time></trkpt><trkpt lat="45.3554217" lon="9.7791217"><ele>73.0</ele><time>2026-03-29T08:58:45.876Z</time></trkpt><trkpt lat="45.3554117" lon="9.7790017"><ele>73.0</ele><time>2026-03-29T08:58:47.876Z</time></trkpt><trkpt lat="45.3553933" lon="9.7788783"><ele>73.0</ele><time>2026-03-29T08:58:49.875Z</time></trkpt><trkpt lat="45.3553833" lon="9.7787617"><ele>73.0</ele><time>2026-03-29T08:58:51.875Z</time></trkpt><trkpt lat="45.3553917" lon="9.7786433"><ele>73.0</ele><time>2026-03-29T08:58:53.876Z</time></trkpt><trkpt lat="45.3554133" lon="9.778535"><ele>73.0</ele><time>2026-03-29T08:58:55.876Z</time></trkpt><trkpt lat="45.35544" lon="9.77842"><ele>73.0</ele><time>2026-03-29T08:58:57.875Z</time></trkpt><trkpt lat="45.3554767" lon="9.7783083"><ele>73.0</ele><time>2026-03-29T08:58:59.876Z</time></trkpt><trkpt lat="45.3555083" lon="9.7782017"><ele>73.0</ele><time>2026-03-29T08:59:01.875Z</time></trkpt><trkpt lat="45.3555583" lon="9.7781133"><ele>73.0</ele><time>2026-03-29T08:59:03.875Z</time></trkpt><trkpt lat="45.355615" lon="9.77803"><ele>73.0</ele><time>2026-03-29T08:59:05.875Z</time></trkpt><trkpt lat="45.3556567" lon="9.7779267"><ele>73.0</ele><time>2026-03-29T08:59:07.876Z</time></trkpt><trkpt lat="45.3556683" lon="9.77781"><ele>73.0</ele><time>2026-03-29T08:59:09.875Z</time></trkpt><trkpt lat="45.3556817" lon="9.777685"><ele>73.0</ele><time>2026-03-29T08:59:11.876Z</time></trkpt><trkpt lat="45.3557117" lon="9.7775683"><ele>73.0</ele><time>2026-03-29T08:59:13.875Z</time></trkpt><trkpt lat="45.355755" lon="9.7774583"><ele>73.0</ele><time>2026-03-29T08:59:15.875Z</time></trkpt><trkpt lat="45.3557967" lon="9.7773467"><ele>73.0</ele><time>2026-03-29T08:59:17.875Z</time></trkpt><trkpt lat="45.3558433" lon="9.7772417"><ele>73.0</ele><time>2026-03-29T08:59:19.875Z</time></trkpt><trkpt lat="45.3558883" lon="9.7771383"><ele>73.0</ele><time>2026-03-29T08:59:21.875Z</time></trkpt><trkpt lat="45.3559383" lon="9.777035"><ele>73.0</ele><time>2026-03-29T08:59:23.875Z</time></trkpt><trkpt lat="45.3559883" lon="9.77694"><ele>73.0</ele><time>2026-03-29T08:59:25.876Z</time></trkpt><trkpt lat="45.3560433" lon="9.7768367"><ele>73.0</ele><time>2026-03-29T08:59:27.876Z</time></trkpt><trkpt lat="45.3561" lon="9.77674"><ele>73.0</ele><time>2026-03-29T08:59:29.875Z</time></trkpt><trkpt lat="45.356145" lon="9.776635"><ele>73.0</ele><time>2026-03-29T08:59:31.875Z</time></trkpt><trkpt lat="45.3561967" lon="9.7765367"><ele>73.0</ele><time>2026-03-29T08:59:33.875Z</time></trkpt><trkpt lat="45.3562467" lon="9.7764333"><ele>73.0</ele><time>2026-03-29T08:59:35.875Z</time></trkpt><trkpt lat="45.3562983" lon="9.7763217"><ele>73.0</ele><time>2026-03-29T08:59:37.875Z</time></trkpt><trkpt lat="45.3563583" lon="9.7762217"><ele>73.0</ele><time>2026-03-29T08:59:39.875Z</time></trkpt><trkpt lat="45.3564167" lon="9.77611"><ele>73.0</ele><time>2026-03-29T08:59:41.876Z</time></trkpt><trkpt lat="45.3564583" lon="9.77599"><ele>73.0</ele><time>2026-03-29T08:59:43.876Z</time></trkpt><trkpt lat="45.356495" lon="9.7758767"><ele>73.0</ele><time>2026-03-29T08:59:45.875Z</time></trkpt><trkpt lat="45.3565333" lon="9.77576"><ele>73.0</ele><time>2026-03-29T08:59:47.876Z</time></trkpt><trkpt lat="45.356565" lon="9.7756467"><ele>73.0</ele><time>2026-03-29T08:59:49.875Z</time></trkpt><trkpt lat="45.356595" lon="9.77554"><ele>73.0</ele><time>2026-03-29T08:59:51.875Z</time></trkpt><trkpt lat="45.35662" lon="9.7754267"><ele>73.0</ele><time>2026-03-29T08:59:53.875Z</time></trkpt><trkpt lat="45.3566417" lon="9.7752967"><ele>73.0</ele><time>2026-03-29T08:59:55.876Z</time></trkpt><trkpt lat="45.3566717" lon="9.7751733"><ele>73.0</ele><time>2026-03-29T08:59:57.875Z</time></trkpt><trkpt lat="45.3567" lon="9.775045"><ele>73.0</ele><time>2026-03-29T08:59:59.875Z</time></trkpt><trkpt lat="45.3567267" lon="9.7749233"><ele>73.0</ele><time>2026-03-29T09:00:01.875Z</time></trkpt><trkpt lat="45.3567517" lon="9.7747983"><ele>73.4</ele><time>2026-03-29T09:00:03.875Z</time></trkpt><trkpt lat="45.3567717" lon="9.7746667"><ele>73.8</ele><time>2026-03-29T09:00:05.875Z</time></trkpt><trkpt lat="45.3568367" lon="9.774605"><ele>74.2</ele><time>2026-03-29T09:00:07.875Z</time></trkpt><trkpt lat="45.3569183" lon="9.77459"><ele>74.6</ele><time>2026-03-29T09:00:09.875Z</time></trkpt><trkpt lat="45.3570067" lon="9.77461"><ele>75.0</ele><time>2026-03-29T09:00:11.875Z</time></trkpt><trkpt lat="45.3571133" lon="9.7746267"><ele>74.8</ele><time>2026-03-29T09:00:13.875Z</time></trkpt><trkpt lat="45.3572083" lon="9.7746367"><ele>74.6</ele><time>2026-03-29T09:00:15.875Z</time></trkpt><trkpt lat="45.357305" lon="9.7746367"><ele>74.4</ele><time>2026-03-29T09:00:17.876Z</time></trkpt><trkpt lat="45.357405" lon="9.7746367"><ele>74.2</ele><time>2026-03-29T09:00:19.875Z</time></trkpt><trkpt lat="45.357505" lon="9.7746683"><ele>74.0</ele><time>2026-03-29T09:00:21.875Z</time></trkpt><trkpt lat="45.3576183" lon="9.7746733"><ele>74.0</ele><time>2026-03-29T09:00:23.875Z</time></trkpt><trkpt lat="45.3577217" lon="9.7746933"><ele>74.0</ele><time>2026-03-29T09:00:25.875Z</time></trkpt><trkpt lat="45.3578233" lon="9.7746983"><ele>74.0</ele><time>2026-03-29T09:00:27.876Z</time></trkpt><trkpt lat="45.357925" lon="9.77471"><ele>74.0</ele><time>2026-03-29T09:00:29.875Z</time></trkpt><trkpt lat="45.358025" lon="9.7747167"><ele>74.0</ele><time>2026-03-29T09:00:31.875Z</time></trkpt><trkpt lat="45.3581217" lon="9.7747117"><ele>74.0</ele><time>2026-03-29T09:00:33.875Z</time></trkpt><trkpt lat="45.3582133" lon="9.774715"><ele>74.0</ele><time>2026-03-29T09:00:35.875Z</time></trkpt><trkpt lat="45.3582983" lon="9.7747233"><ele>74.0</ele><time>2026-03-29T09:00:37.875Z</time></trkpt><trkpt lat="45.358355" lon="9.7746517"><ele>74.0</ele><time>2026-03-29T09:00:39.875Z</time></trkpt><trkpt lat="45.35836" lon="9.7745267"><ele>74.0</ele><time>2026-03-29T09:00:41.876Z</time></trkpt><trkpt lat="45.358365" lon="9.7743817"><ele>74.0</ele><time>2026-03-29T09:00:43.876Z</time></trkpt><trkpt lat="45.3583683" lon="9.774235"><ele>74.0</ele><time>2026-03-29T09:00:45.875Z</time></trkpt><trkpt lat="45.3583633" lon="9.7740833"><ele>74.0</ele><time>2026-03-29T09:00:47.876Z</time></trkpt><trkpt lat="45.3583667" lon="9.77393"><ele>74.0</ele><time>2026-03-29T09:00:49.876Z</time></trkpt><trkpt lat="45.3583717" lon="9.7737783"><ele>74.0</ele><time>2026-03-29T09:00:51.875Z</time></trkpt><trkpt lat="45.3583783" lon="9.773625"><ele>74.0</ele><time>2026-03-29T09:00:53.875Z</time></trkpt><trkpt lat="45.358385" lon="9.7734733"><ele>74.0</ele><time>2026-03-29T09:00:55.875Z</time></trkpt><trkpt lat="45.3583917" lon="9.7733283"><ele>74.0</ele><time>2026-03-29T09:00:57.876Z</time></trkpt><trkpt lat="45.3583933" lon="9.7731733"><ele>74.0</ele><time>2026-03-29T09:00:59.876Z</time></trkpt><trkpt lat="45.3583983" lon="9.7730183"><ele>74.0</ele><time>2026-03-29T09:01:01.875Z</time></trkpt><trkpt lat="45.358405" lon="9.772865"><ele>74.0</ele><time>2026-03-29T09:01:03.875Z</time></trkpt><trkpt lat="45.3584117" lon="9.77271"><ele>73.8</ele><time>2026-03-29T09:01:05.875Z</time></trkpt><trkpt lat="45.3584167" lon="9.7725567"><ele>73.60000000000001</ele><time>2026-03-29T09:01:07.875Z</time></trkpt><trkpt lat="45.35842" lon="9.7723967"><ele>73.4</ele><time>2026-03-29T09:01:09.875Z</time></trkpt><trkpt lat="45.3584183" lon="9.77225"><ele>73.2</ele><time>2026-03-29T09:01:11.876Z</time></trkpt><trkpt lat="45.3584283" lon="9.7721017"><ele>73.0</ele><time>2026-03-29T09:01:13.875Z</time></trkpt><trkpt lat="45.3584267" lon="9.7719467"><ele>72.8</ele><time>2026-03-29T09:01:15.875Z</time></trkpt><trkpt lat="45.3584333" lon="9.7717833"><ele>72.6</ele><time>2026-03-29T09:01:17.875Z</time></trkpt><trkpt lat="45.3584367" lon="9.7716283"><ele>72.4</ele><time>2026-03-29T09:01:19.875Z</time></trkpt><trkpt lat="45.35844" lon="9.7714783"><ele>72.2</ele><time>2026-03-29T09:01:21.875Z</time></trkpt><trkpt lat="45.358445" lon="9.7713233"><ele>72.0</ele><time>2026-03-29T09:01:23.875Z</time></trkpt><trkpt lat="45.3584467" lon="9.77117"><ele>72.0</ele><time>2026-03-29T09:01:25.875Z</time></trkpt><trkpt lat="45.3584533" lon="9.7710217"><ele>72.0</ele><time>2026-03-29T09:01:27.875Z</time></trkpt><trkpt lat="45.3584617" lon="9.770875"><ele>72.0</ele><time>2026-03-29T09:01:29.875Z</time></trkpt><trkpt lat="45.35847" lon="9.7707417"><ele>72.0</ele><time>2026-03-29T09:01:31.876Z</time></trkpt><trkpt lat="45.35848" lon="9.7705983"><ele>72.0</ele><time>2026-03-29T09:01:33.875Z</time></trkpt><trkpt lat="45.358485" lon="9.7704533"><ele>72.0</ele><time>2026-03-29T09:01:35.875Z</time></trkpt><trkpt lat="45.3584917" lon="9.7703"><ele>72.0</ele><time>2026-03-29T09:01:37.875Z</time></trkpt><trkpt lat="45.3584933" lon="9.77015"><ele>72.0</ele><time>2026-03-29T09:01:39.875Z</time></trkpt><trkpt lat="45.3584967" lon="9.7699983"><ele>72.0</ele><time>2026-03-29T09:01:41.875Z</time></trkpt><trkpt lat="45.3584983" lon="9.769845"><ele>72.0</ele><time>2026-03-29T09:01:43.876Z</time></trkpt><trkpt lat="45.3584967" lon="9.76969"><ele>72.0</ele><time>2026-03-29T09:01:45.875Z</time></trkpt><trkpt lat="45.3584983" lon="9.76954"><ele>72.0</ele><time>2026-03-29T09:01:47.875Z</time></trkpt><trkpt lat="45.3585067" lon="9.7693817"><ele>72.0</ele><time>2026-03-29T09:01:49.875Z</time></trkpt><trkpt lat="45.3585117" lon="9.7692233"><ele>72.0</ele><time>2026-03-29T09:01:51.875Z</time></trkpt><trkpt lat="45.358515" lon="9.7690667"><ele>72.0</ele><time>2026-03-29T09:01:53.875Z</time></trkpt><trkpt lat="45.3585167" lon="9.7689183"><ele>72.2</ele><time>2026-03-29T09:01:55.875Z</time></trkpt><trkpt lat="45.3585217" lon="9.7687567"><ele>72.4</ele><time>2026-03-29T09:01:57.875Z</time></trkpt><trkpt lat="45.3585267" lon="9.7686"><ele>72.6</ele><time>2026-03-29T09:01:59.875Z</time></trkpt><trkpt lat="45.3585333" lon="9.7684483"><ele>72.8</ele><time>2026-03-29T09:02:01.875Z</time></trkpt><trkpt lat="45.3585317" lon="9.7683"><ele>73.0</ele><time>2026-03-29T09:02:03.876Z</time></trkpt><trkpt lat="45.3585367" lon="9.768145"><ele>73.0</ele><time>2026-03-29T09:02:05.875Z</time></trkpt><trkpt lat="45.3585417" lon="9.7679867"><ele>73.0</ele><time>2026-03-29T09:02:07.876Z</time></trkpt><trkpt lat="45.3585467" lon="9.767825"><ele>73.0</ele><time>2026-03-29T09:02:09.875Z</time></trkpt><trkpt lat="45.3585517" lon="9.7676683"><ele>73.0</ele><time>2026-03-29T09:02:11.875Z</time></trkpt><trkpt lat="45.35856" lon="9.7675117"><ele>73.0</ele><time>2026-03-29T09:02:13.875Z</time></trkpt><trkpt lat="45.3585633" lon="9.7673667"><ele>72.8</ele><time>2026-03-29T09:02:15.875Z</time></trkpt><trkpt lat="45.3585683" lon="9.767235"><ele>72.6</ele><time>2026-03-29T09:02:17.875Z</time></trkpt><trkpt lat="45.3585733" lon="9.7671"><ele>72.4</ele><time>2026-03-29T09:02:19.875Z</time></trkpt><trkpt lat="45.35858" lon="9.7669583"><ele>72.2</ele><time>2026-03-29T09:02:21.875Z</time></trkpt><trkpt lat="45.35858" lon="9.7668117"><ele>72.0</ele><time>2026-03-29T09:02:23.876Z</time></trkpt><trkpt lat="45.35858" lon="9.7666683"><ele>72.0</ele><time>2026-03-29T09:02:25.875Z</time></trkpt><trkpt lat="45.3585783" lon="9.76652"><ele>72.0</ele><time>2026-03-29T09:02:27.875Z</time></trkpt><trkpt lat="45.3585883" lon="9.7663717"><ele>72.0</ele><time>2026-03-29T09:02:29.875Z</time></trkpt><trkpt lat="45.3585917" lon="9.7662167"><ele>72.0</ele><time>2026-03-29T09:02:31.875Z</time></trkpt><trkpt lat="45.3585933" lon="9.7660533"><ele>72.0</ele><time>2026-03-29T09:02:33.875Z</time></trkpt><trkpt lat="45.3585983" lon="9.7658917"><ele>72.2</ele><time>2026-03-29T09:02:35.876Z</time></trkpt><trkpt lat="45.3586017" lon="9.765735"><ele>72.4</ele><time>2026-03-29T09:02:37.875Z</time></trkpt><trkpt lat="45.3586017" lon="9.765585"><ele>72.6</ele><time>2026-03-29T09:02:39.876Z</time></trkpt><trkpt lat="45.3586017" lon="9.7654333"><ele>72.8</ele><time>2026-03-29T09:02:41.875Z</time></trkpt><trkpt lat="45.358605" lon="9.765275"><ele>73.0</ele><time>2026-03-29T09:02:43.875Z</time></trkpt><trkpt lat="45.3586083" lon="9.7651183"><ele>72.6</ele><time>2026-03-29T09:02:45.875Z</time></trkpt><trkpt lat="45.3586133" lon="9.7649667"><ele>72.19999999999999</ele><time>2026-03-29T09:02:47.875Z</time></trkpt><trkpt lat="45.3586217" lon="9.7648217"><ele>71.8</ele><time>2026-03-29T09:02:49.875Z</time></trkpt><trkpt lat="45.3586267" lon="9.7646767"><ele>71.39999999999999</ele><time>2026-03-29T09:02:51.876Z</time></trkpt><trkpt lat="45.358635" lon="9.76453"><ele>71.0</ele><time>2026-03-29T09:02:53.876Z</time></trkpt><trkpt lat="45.3586367" lon="9.76439"><ele>71.0</ele><time>2026-03-29T09:02:55.875Z</time></trkpt><trkpt lat="45.3586417" lon="9.7642433"><ele>71.0</ele><time>2026-03-29T09:02:57.875Z</time></trkpt><trkpt lat="45.358645" lon="9.764095"><ele>71.0</ele><time>2026-03-29T09:02:59.875Z</time></trkpt><trkpt lat="45.3586483" lon="9.763945"><ele>71.0</ele><time>2026-03-29T09:03:01.875Z</time></trkpt><trkpt lat="45.358655" lon="9.7637933"><ele>71.0</ele><time>2026-03-29T09:03:03.875Z</time></trkpt><trkpt lat="45.3586567" lon="9.7636417"><ele>71.6</ele><time>2026-03-29T09:03:05.875Z</time></trkpt><trkpt lat="45.35866" lon="9.7634933"><ele>72.19999999999999</ele><time>2026-03-29T09:03:07.875Z</time></trkpt><trkpt lat="45.358665" lon="9.7633433"><ele>72.80000000000001</ele><time>2026-03-29T09:03:09.875Z</time></trkpt><trkpt lat="45.3586717" lon="9.763185"><ele>73.4</ele><time>2026-03-29T09:03:11.875Z</time></trkpt><trkpt lat="45.3586733" lon="9.7630383"><ele>74.0</ele><time>2026-03-29T09:03:13.875Z</time></trkpt><trkpt lat="45.35868" lon="9.76289"><ele>74.0</ele><time>2026-03-29T09:03:15.875Z</time></trkpt><trkpt lat="45.3586833" lon="9.76274"><ele>74.0</ele><time>2026-03-29T09:03:17.874Z</time></trkpt><trkpt lat="45.35869" lon="9.762585"><ele>74.0</ele><time>2026-03-29T09:03:19.875Z</time></trkpt><trkpt lat="45.3586967" lon="9.76243"><ele>74.0</ele><time>2026-03-29T09:03:21.874Z</time></trkpt><trkpt lat="45.3587017" lon="9.7622783"><ele>74.0</ele><time>2026-03-29T09:03:23.874Z</time></trkpt><trkpt lat="45.3587067" lon="9.7621283"><ele>73.8</ele><time>2026-03-29T09:03:25.874Z</time></trkpt><trkpt lat="45.3587083" lon="9.7619667"><ele>73.60000000000001</ele><time>2026-03-29T09:03:27.874Z</time></trkpt><trkpt lat="45.3587117" lon="9.7618067"><ele>73.4</ele><time>2026-03-29T09:03:29.874Z</time></trkpt><trkpt lat="45.3587133" lon="9.7616483"><ele>73.2</ele><time>2026-03-29T09:03:31.874Z</time></trkpt><trkpt lat="45.3587183" lon="9.7614967"><ele>73.0</ele><time>2026-03-29T09:03:33.874Z</time></trkpt><trkpt lat="45.35872" lon="9.7613433"><ele>72.8</ele><time>2026-03-29T09:03:35.875Z</time></trkpt><trkpt lat="45.3587217" lon="9.7611833"><ele>72.6</ele><time>2026-03-29T09:03:37.874Z</time></trkpt><trkpt lat="45.3587233" lon="9.7610217"><ele>72.4</ele><time>2026-03-29T09:03:39.874Z</time></trkpt><trkpt lat="45.35873" lon="9.760865"><ele>72.2</ele><time>2026-03-29T09:03:41.874Z</time></trkpt><trkpt lat="45.3587367" lon="9.7607067"><ele>72.0</ele><time>2026-03-29T09:03:43.874Z</time></trkpt><trkpt lat="45.3587433" lon="9.7605517"><ele>72.0</ele><time>2026-03-29T09:03:45.874Z</time></trkpt><trkpt lat="45.35875" lon="9.7603917"><ele>72.0</ele><time>2026-03-29T09:03:47.874Z</time></trkpt><trkpt lat="45.35875" lon="9.7602367"><ele>72.0</ele><time>2026-03-29T09:03:49.874Z</time></trkpt><trkpt lat="45.3587567" lon="9.7600817"><ele>72.0</ele><time>2026-03-29T09:03:51.874Z</time></trkpt><trkpt lat="45.3587633" lon="9.7599217"><ele>72.0</ele><time>2026-03-29T09:03:53.875Z</time></trkpt><trkpt lat="45.3587767" lon="9.759765"><ele>72.0</ele><time>2026-03-29T09:03:55.875Z</time></trkpt><trkpt lat="45.35879" lon="9.7596017"><ele>72.0</ele><time>2026-03-29T09:03:57.874Z</time></trkpt><trkpt lat="45.3587967" lon="9.7594417"><ele>72.0</ele><time>2026-03-29T09:03:59.874Z</time></trkpt><trkpt lat="45.358805" lon="9.7592817"><ele>72.0</ele><time>2026-03-29T09:04:01.874Z</time></trkpt><trkpt lat="45.3588083" lon="9.7591233"><ele>72.0</ele><time>2026-03-29T09:04:03.874Z</time></trkpt><trkpt lat="45.3588117" lon="9.7589633"><ele>72.0</ele><time>2026-03-29T09:04:05.874Z</time></trkpt><trkpt lat="45.358815" lon="9.7588117"><ele>72.0</ele><time>2026-03-29T09:04:07.875Z</time></trkpt><trkpt lat="45.35882" lon="9.7586583"><ele>72.0</ele><time>2026-03-29T09:04:09.874Z</time></trkpt><trkpt lat="45.358825" lon="9.7585"><ele>72.0</ele><time>2026-03-29T09:04:11.874Z</time></trkpt><trkpt lat="45.3588283" lon="9.758345"><ele>72.0</ele><time>2026-03-29T09:04:13.874Z</time></trkpt><trkpt lat="45.3588317" lon="9.7581933"><ele>72.0</ele><time>2026-03-29T09:04:15.874Z</time></trkpt><trkpt lat="45.358835" lon="9.758045"><ele>72.0</ele><time>2026-03-29T09:04:17.874Z</time></trkpt><trkpt lat="45.3588417" lon="9.7579067"><ele>72.0</ele><time>2026-03-29T09:04:19.874Z</time></trkpt><trkpt lat="45.35886" lon="9.7577817"><ele>72.0</ele><time>2026-03-29T09:04:21.874Z</time></trkpt><trkpt lat="45.3588933" lon="9.7576783"><ele>72.16666666666667</ele><time>2026-03-29T09:04:23.874Z</time></trkpt><trkpt lat="45.3589167" lon="9.75757"><ele>72.33333333333333</ele><time>2026-03-29T09:04:25.874Z</time></trkpt><trkpt lat="45.3589267" lon="9.7574533"><ele>72.5</ele><time>2026-03-29T09:04:27.874Z</time></trkpt><trkpt lat="45.3589383" lon="9.7573433"><ele>72.66666666666666</ele><time>2026-03-29T09:04:29.874Z</time></trkpt><trkpt lat="45.3589383" lon="9.7572317"><ele>72.83333333333333</ele><time>2026-03-29T09:04:31.874Z</time></trkpt><trkpt lat="45.3589433" lon="9.7571167"><ele>73.0</ele><time>2026-03-29T09:04:33.874Z</time></trkpt><trkpt lat="45.3589517" lon="9.7569967"><ele>73.0</ele><time>2026-03-29T09:04:35.875Z</time></trkpt><trkpt lat="45.358955" lon="9.75688"><ele>73.0</ele><time>2026-03-29T09:04:37.875Z</time></trkpt><trkpt lat="45.3589517" lon="9.7567633"><ele>73.0</ele><time>2026-03-29T09:04:39.874Z</time></trkpt><trkpt lat="45.35895" lon="9.7566467"><ele>73.0</ele><time>2026-03-29T09:04:41.874Z</time></trkpt><trkpt lat="45.35895" lon="9.7565267"><ele>73.0</ele><time>2026-03-29T09:04:43.874Z</time></trkpt><trkpt lat="45.35895" lon="9.756405"><ele>73.0</ele><time>2026-03-29T09:04:45.875Z</time></trkpt><trkpt lat="45.358955" lon="9.75628"><ele>73.0</ele><time>2026-03-29T09:04:47.874Z</time></trkpt><trkpt lat="45.35896" lon="9.756155"><ele>73.0</ele><time>2026-03-29T09:04:49.874Z</time></trkpt><trkpt lat="45.35896" lon="9.756025"><ele>73.0</ele><time>2026-03-29T09:04:51.874Z</time></trkpt><trkpt lat="45.358965" lon="9.7558967"><ele>73.0</ele><time>2026-03-29T09:04:53.874Z</time></trkpt><trkpt lat="45.35897" lon="9.7557683"><ele>73.0</ele><time>2026-03-29T09:04:55.874Z</time></trkpt><trkpt lat="45.3589717" lon="9.7556417"><ele>73.0</ele><time>2026-03-29T09:04:57.874Z</time></trkpt><trkpt lat="45.358975" lon="9.7555133"><ele>73.0</ele><time>2026-03-29T09:04:59.874Z</time></trkpt><trkpt lat="45.3589767" lon="9.7553883"><ele>73.0</ele><time>2026-03-29T09:05:01.875Z</time></trkpt><trkpt lat="45.3589733" lon="9.7552667"><ele>73.0</ele><time>2026-03-29T09:05:03.874Z</time></trkpt><trkpt lat="45.3589733" lon="9.755145"><ele>73.0</ele><time>2026-03-29T09:05:05.875Z</time></trkpt><trkpt lat="45.3589767" lon="9.7550167"><ele>73.0</ele><time>2026-03-29T09:05:07.874Z</time></trkpt><trkpt lat="45.3589817" lon="9.7548883"><ele>73.0</ele><time>2026-03-29T09:05:09.874Z</time></trkpt><trkpt lat="45.3589833" lon="9.7547583"><ele>72.83333333333333</ele><time>2026-03-29T09:05:11.874Z</time></trkpt><trkpt lat="45.3589867" lon="9.7546383"><ele>72.66666666666666</ele><time>2026-03-29T09:05:13.874Z</time></trkpt><trkpt lat="45.3589883" lon="9.7545233"><ele>72.5</ele><time>2026-03-29T09:05:15.874Z</time></trkpt><trkpt lat="45.3589817" lon="9.7543983"><ele>72.33333333333333</ele><time>2026-03-29T09:05:17.874Z</time></trkpt><trkpt lat="45.358965" lon="9.7542883"><ele>72.16666666666667</ele><time>2026-03-29T09:05:19.874Z</time></trkpt><trkpt lat="45.3589567" lon="9.754175"><ele>72.0</ele><time>2026-03-29T09:05:21.875Z</time></trkpt><trkpt lat="45.3589517" lon="9.75405"><ele>72.0</ele><time>2026-03-29T09:05:23.875Z</time></trkpt><trkpt lat="45.358955" lon="9.7539183"><ele>72.0</ele><time>2026-03-29T09:05:25.874Z</time></trkpt><trkpt lat="45.35896" lon="9.7537717"><ele>72.0</ele><time>2026-03-29T09:05:27.875Z</time></trkpt><trkpt lat="45.3589717" lon="9.753615"><ele>72.0</ele><time>2026-03-29T09:05:29.874Z</time></trkpt><trkpt lat="45.3589867" lon="9.753455"><ele>72.0</ele><time>2026-03-29T09:05:31.874Z</time></trkpt><trkpt lat="45.359005" lon="9.7532983"><ele>72.5</ele><time>2026-03-29T09:05:33.874Z</time></trkpt><trkpt lat="45.35903" lon="9.7531417"><ele>73.0</ele><time>2026-03-29T09:05:35.874Z</time></trkpt><trkpt lat="45.3590533" lon="9.7529833"><ele>73.5</ele><time>2026-03-29T09:05:37.874Z</time></trkpt><trkpt lat="45.35908" lon="9.75283"><ele>74.0</ele><time>2026-03-29T09:05:39.875Z</time></trkpt><trkpt lat="45.3591117" lon="9.752675"><ele>74.25</ele><time>2026-03-29T09:05:41.874Z</time></trkpt><trkpt lat="45.3591433" lon="9.7525183"><ele>74.5</ele><time>2026-03-29T09:05:43.874Z</time></trkpt><trkpt lat="45.3591783" lon="9.75236"><ele>74.75</ele><time>2026-03-29T09:05:45.874Z</time></trkpt><trkpt lat="45.359215" lon="9.7522067"><ele>75.0</ele><time>2026-03-29T09:05:47.874Z</time></trkpt><trkpt lat="45.35925" lon="9.752055"><ele>75.0</ele><time>2026-03-29T09:05:49.874Z</time></trkpt><trkpt lat="45.3592883" lon="9.7519"><ele>75.0</ele><time>2026-03-29T09:05:51.875Z</time></trkpt><trkpt lat="45.3593233" lon="9.7517533"><ele>75.0</ele><time>2026-03-29T09:05:53.874Z</time></trkpt><trkpt lat="45.35936" lon="9.751605"><ele>75.0</ele><time>2026-03-29T09:05:55.874Z</time></trkpt><trkpt lat="45.359395" lon="9.751455"><ele>75.0</ele><time>2026-03-29T09:05:57.875Z</time></trkpt><trkpt lat="45.35943" lon="9.7513067"><ele>75.0</ele><time>2026-03-29T09:05:59.874Z</time></trkpt><trkpt lat="45.3594667" lon="9.7511533"><ele>75.0</ele><time>2026-03-29T09:06:01.874Z</time></trkpt><trkpt lat="45.3595" lon="9.750995"><ele>75.0</ele><time>2026-03-29T09:06:03.874Z</time></trkpt><trkpt lat="45.3595383" lon="9.7508417"><ele>75.0</ele><time>2026-03-29T09:06:05.875Z</time></trkpt><trkpt lat="45.359585" lon="9.7506967"><ele>75.0</ele><time>2026-03-29T09:06:07.874Z</time></trkpt><trkpt lat="45.3596217" lon="9.7505633"><ele>75.0</ele><time>2026-03-29T09:06:09.874Z</time></trkpt><trkpt lat="45.3596533" lon="9.7504367"><ele>75.0</ele><time>2026-03-29T09:06:11.874Z</time></trkpt><trkpt lat="45.35968" lon="9.7503217"><ele>75.0</ele><time>2026-03-29T09:06:13.874Z</time></trkpt><trkpt lat="45.359705" lon="9.750185"><ele>75.0</ele><time>2026-03-29T09:06:15.874Z</time></trkpt><trkpt lat="45.3597367" lon="9.75004"><ele>75.0</ele><time>2026-03-29T09:06:17.874Z</time></trkpt><trkpt lat="45.35977" lon="9.749885"><ele>75.0</ele><time>2026-03-29T09:06:19.875Z</time></trkpt><trkpt lat="45.3598017" lon="9.7497267"><ele>75.0</ele><time>2026-03-29T09:06:21.875Z</time></trkpt><trkpt lat="45.359835" lon="9.74957"><ele>75.0</ele><time>2026-03-29T09:06:23.875Z</time></trkpt><trkpt lat="45.3598767" lon="9.74942"><ele>75.0</ele><time>2026-03-29T09:06:25.874Z</time></trkpt><trkpt lat="45.359915" lon="9.7492717"><ele>75.0</ele><time>2026-03-29T09:06:27.875Z</time></trkpt><trkpt lat="45.3599517" lon="9.7491167"><ele>75.0</ele><time>2026-03-29T09:06:29.874Z</time></trkpt><trkpt lat="45.3599883" lon="9.748965"><ele>75.0</ele><time>2026-03-29T09:06:31.875Z</time></trkpt><trkpt lat="45.360025" lon="9.74881"><ele>75.0</ele><time>2026-03-29T09:06:33.874Z</time></trkpt><trkpt lat="45.3600633" lon="9.7486517"><ele>75.0</ele><time>2026-03-29T09:06:35.875Z</time></trkpt><trkpt lat="45.3601017" lon="9.7484967"><ele>75.0</ele><time>2026-03-29T09:06:37.874Z</time></trkpt><trkpt lat="45.3601367" lon="9.7483417"><ele>75.0</ele><time>2026-03-29T09:06:39.874Z</time></trkpt><trkpt lat="45.3601733" lon="9.7481867"><ele>75.25</ele><time>2026-03-29T09:06:41.874Z</time></trkpt><trkpt lat="45.3602083" lon="9.7480333"><ele>75.5</ele><time>2026-03-29T09:06:43.874Z</time></trkpt><trkpt lat="45.3602467" lon="9.74788"><ele>75.75</ele><time>2026-03-29T09:06:45.874Z</time></trkpt><trkpt lat="45.360285" lon="9.7477283"><ele>76.0</ele><time>2026-03-29T09:06:47.874Z</time></trkpt><trkpt lat="45.3603217" lon="9.747575"><ele>76.0</ele><time>2026-03-29T09:06:49.874Z</time></trkpt><trkpt lat="45.3603567" lon="9.7474267"><ele>76.0</ele><time>2026-03-29T09:06:51.874Z</time></trkpt><trkpt lat="45.360395" lon="9.74728"><ele>76.0</ele><time>2026-03-29T09:06:53.874Z</time></trkpt><trkpt lat="45.3604317" lon="9.7471383"><ele>76.0</ele><time>2026-03-29T09:06:55.875Z</time></trkpt><trkpt lat="45.36047" lon="9.7470133"><ele>76.0</ele><time>2026-03-29T09:06:57.875Z</time></trkpt><trkpt lat="45.3604983" lon="9.7469117"><ele>75.83333333333333</ele><time>2026-03-29T09:06:59.874Z</time></trkpt><trkpt lat="45.3605283" lon="9.7467983"><ele>75.66666666666666</ele><time>2026-03-29T09:07:02.874Z</time></trkpt><trkpt lat="45.360545" lon="9.7467117"><ele>75.5</ele><time>2026-03-29T09:07:04.874Z</time></trkpt><trkpt lat="45.3605667" lon="9.746615"><ele>75.33333333333333</ele><time>2026-03-29T09:07:06.874Z</time></trkpt><trkpt lat="45.3605817" lon="9.746495"><ele>75.16666666666667</ele><time>2026-03-29T09:07:08.874Z</time></trkpt><trkpt lat="45.3606033" lon="9.7463617"><ele>75.0</ele><time>2026-03-29T09:07:10.875Z</time></trkpt><trkpt lat="45.3606267" lon="9.7462283"><ele>74.6</ele><time>2026-03-29T09:07:12.874Z</time></trkpt><trkpt lat="45.3606517" lon="9.7461017"><ele>74.2</ele><time>2026-03-29T09:07:14.874Z</time></trkpt><trkpt lat="45.3606817" lon="9.7459733"><ele>73.8</ele><time>2026-03-29T09:07:16.875Z</time></trkpt><trkpt lat="45.36071" lon="9.74583"><ele>73.4</ele><time>2026-03-29T09:07:18.874Z</time></trkpt><trkpt lat="45.3607467" lon="9.7456867"><ele>73.0</ele><time>2026-03-29T09:07:20.874Z</time></trkpt><trkpt lat="45.360785" lon="9.745525"><ele>73.0</ele><time>2026-03-29T09:07:22.874Z</time></trkpt><trkpt lat="45.360825" lon="9.7453733"><ele>73.0</ele><time>2026-03-29T09:07:24.874Z</time></trkpt><trkpt lat="45.3608567" lon="9.74522"><ele>73.0</ele><time>2026-03-29T09:07:26.875Z</time></trkpt><trkpt lat="45.36089" lon="9.74507"><ele>73.0</ele><time>2026-03-29T09:07:28.874Z</time></trkpt><trkpt lat="45.36092" lon="9.7449217"><ele>73.0</ele><time>2026-03-29T09:07:30.874Z</time></trkpt><trkpt lat="45.3609533" lon="9.7447817"><ele>73.6</ele><time>2026-03-29T09:07:32.874Z</time></trkpt><trkpt lat="45.360995" lon="9.744635"><ele>74.19999999999999</ele><time>2026-03-29T09:07:34.874Z</time></trkpt><trkpt lat="45.3610283" lon="9.7444933"><ele>74.8</ele><time>2026-03-29T09:07:36.874Z</time></trkpt><trkpt lat="45.36106" lon="9.7443517"><ele>75.39999999999999</ele><time>2026-03-29T09:07:38.874Z</time></trkpt><trkpt lat="45.3610933" lon="9.74421"><ele>76.0</ele><time>2026-03-29T09:07:40.875Z</time></trkpt><trkpt lat="45.3611283" lon="9.744065"><ele>76.0</ele><time>2026-03-29T09:07:42.874Z</time></trkpt><trkpt lat="45.36116" lon="9.7439167"><ele>76.0</ele><time>2026-03-29T09:07:44.874Z</time></trkpt><trkpt lat="45.361195" lon="9.7437683"><ele>76.0</ele><time>2026-03-29T09:07:46.874Z</time></trkpt><trkpt lat="45.3612317" lon="9.74362"><ele>76.0</ele><time>2026-03-29T09:07:48.874Z</time></trkpt><trkpt lat="45.361275" lon="9.74348"><ele>76.0</ele><time>2026-03-29T09:07:50.874Z</time></trkpt><trkpt lat="45.3613167" lon="9.743345"><ele>76.0</ele><time>2026-03-29T09:07:52.874Z</time></trkpt><trkpt lat="45.3613483" lon="9.7432217"><ele>76.0</ele><time>2026-03-29T09:07:54.874Z</time></trkpt><trkpt lat="45.36137" lon="9.7431083"><ele>76.0</ele><time>2026-03-29T09:07:56.874Z</time></trkpt><trkpt lat="45.361385" lon="9.7430133"><ele>76.0</ele><time>2026-03-29T09:07:58.875Z</time></trkpt><trkpt lat="45.3614083" lon="9.7429017"><ele>76.0</ele><time>2026-03-29T09:08:00.874Z</time></trkpt><trkpt lat="45.3614383" lon="9.7427683"><ele>76.0</ele><time>2026-03-29T09:08:02.874Z</time></trkpt><trkpt lat="45.361475" lon="9.7426267"><ele>75.8</ele><time>2026-03-29T09:08:04.874Z</time></trkpt><trkpt lat="45.361505" lon="9.742485"><ele>75.6</ele><time>2026-03-29T09:08:06.874Z</time></trkpt><trkpt lat="45.3615383" lon="9.74233"><ele>75.4</ele><time>2026-03-29T09:08:08.874Z</time></trkpt><trkpt lat="45.3615767" lon="9.7421783"><ele>75.2</ele><time>2026-03-29T09:08:10.875Z</time></trkpt><trkpt lat="45.36162" lon="9.74203"><ele>75.0</ele><time>2026-03-29T09:08:12.874Z</time></trkpt><trkpt lat="45.361665" lon="9.74188"><ele>74.8</ele><time>2026-03-29T09:08:14.874Z</time></trkpt><trkpt lat="45.3617083" lon="9.7417317"><ele>74.6</ele><time>2026-03-29T09:08:16.874Z</time></trkpt><trkpt lat="45.361755" lon="9.7415917"><ele>74.4</ele><time>2026-03-29T09:08:18.874Z</time></trkpt><trkpt lat="45.36179" lon="9.7414633"><ele>74.2</ele><time>2026-03-29T09:08:20.874Z</time></trkpt><trkpt lat="45.3618217" lon="9.7413483"><ele>74.0</ele><time>2026-03-29T09:08:22.875Z</time></trkpt><trkpt lat="45.3618517" lon="9.7412467"><ele>74.0</ele><time>2026-03-29T09:08:24.874Z</time></trkpt><trkpt lat="45.36188" lon="9.741125"><ele>74.0</ele><time>2026-03-29T09:08:27.874Z</time></trkpt><trkpt lat="45.3619" lon="9.7410283"><ele>74.0</ele><time>2026-03-29T09:08:29.874Z</time></trkpt><trkpt lat="45.36192" lon="9.7409117"><ele>74.0</ele><time>2026-03-29T09:08:31.875Z</time></trkpt><trkpt lat="45.3619467" lon="9.7407767"><ele>74.0</ele><time>2026-03-29T09:08:33.874Z</time></trkpt><trkpt lat="45.3619717" lon="9.7406283"><ele>73.8</ele><time>2026-03-29T09:08:35.874Z</time></trkpt><trkpt lat="45.3619967" lon="9.740475"><ele>73.60000000000001</ele><time>2026-03-29T09:08:37.874Z</time></trkpt><trkpt lat="45.3620283" lon="9.7403267"><ele>73.4</ele><time>2026-03-29T09:08:39.874Z</time></trkpt><trkpt lat="45.3620583" lon="9.74019"><ele>73.2</ele><time>2026-03-29T09:08:41.874Z</time></trkpt><trkpt lat="45.3620917" lon="9.7400667"><ele>73.0</ele><time>2026-03-29T09:08:43.874Z</time></trkpt><trkpt lat="45.3621217" lon="9.7399333"><ele>73.6</ele><time>2026-03-29T09:08:45.874Z</time></trkpt><trkpt lat="45.36215" lon="9.739795"><ele>74.19999999999999</ele><time>2026-03-29T09:08:47.874Z</time></trkpt><trkpt lat="45.3621767" lon="9.7396517"><ele>74.8</ele><time>2026-03-29T09:08:49.874Z</time></trkpt><trkpt lat="45.3622033" lon="9.73951"><ele>75.39999999999999</ele><time>2026-03-29T09:08:51.875Z</time></trkpt><trkpt lat="45.362235" lon="9.7393717"><ele>76.0</ele><time>2026-03-29T09:08:53.874Z</time></trkpt><trkpt lat="45.362265" lon="9.739235"><ele>76.0</ele><time>2026-03-29T09:08:55.874Z</time></trkpt><trkpt lat="45.3623" lon="9.7391017"><ele>76.0</ele><time>2026-03-29T09:08:57.874Z</time></trkpt><trkpt lat="45.3623333" lon="9.738965"><ele>76.0</ele><time>2026-03-29T09:08:59.874Z</time></trkpt><trkpt lat="45.3623733" lon="9.73882"><ele>76.0</ele><time>2026-03-29T09:09:01.874Z</time></trkpt><trkpt lat="45.362415" lon="9.7386733"><ele>76.0</ele><time>2026-03-29T09:09:03.874Z</time></trkpt><trkpt lat="45.3624483" lon="9.7385233"><ele>75.8</ele><time>2026-03-29T09:09:05.874Z</time></trkpt><trkpt lat="45.362485" lon="9.7383783"><ele>75.6</ele><time>2026-03-29T09:09:07.874Z</time></trkpt><trkpt lat="45.3625233" lon="9.7382317"><ele>75.4</ele><time>2026-03-29T09:09:09.874Z</time></trkpt><trkpt lat="45.36256" lon="9.738085"><ele>75.2</ele><time>2026-03-29T09:09:11.874Z</time></trkpt><trkpt lat="45.3625967" lon="9.7379383"><ele>75.0</ele><time>2026-03-29T09:09:13.874Z</time></trkpt><trkpt lat="45.362635" lon="9.7377917"><ele>75.2</ele><time>2026-03-29T09:09:15.874Z</time></trkpt><trkpt lat="45.3626717" lon="9.737645"><ele>75.4</ele><time>2026-03-29T09:09:17.874Z</time></trkpt><trkpt lat="45.3627083" lon="9.7374933"><ele>75.6</ele><time>2026-03-29T09:09:19.874Z</time></trkpt><trkpt lat="45.362745" lon="9.7373417"><ele>75.8</ele><time>2026-03-29T09:09:21.875Z</time></trkpt><trkpt lat="45.36278" lon="9.7371883"><ele>76.0</ele><time>2026-03-29T09:09:23.874Z</time></trkpt><trkpt lat="45.3628133" lon="9.7370383"><ele>76.0</ele><time>2026-03-29T09:09:25.874Z</time></trkpt><trkpt lat="45.3628483" lon="9.7368833"><ele>76.0</ele><time>2026-03-29T09:09:27.874Z</time></trkpt><trkpt lat="45.3628783" lon="9.7367283"><ele>76.0</ele><time>2026-03-29T09:09:29.875Z</time></trkpt><trkpt lat="45.3629167" lon="9.7365767"><ele>76.0</ele><time>2026-03-29T09:09:31.874Z</time></trkpt><trkpt lat="45.3629533" lon="9.73643"><ele>76.0</ele><time>2026-03-29T09:09:33.874Z</time></trkpt><trkpt lat="45.3629917" lon="9.7362817"><ele>76.0</ele><time>2026-03-29T09:09:35.874Z</time></trkpt><trkpt lat="45.3630267" lon="9.7361317"><ele>76.0</ele><time>2026-03-29T09:09:37.874Z</time></trkpt><trkpt lat="45.3630667" lon="9.7359817"><ele>76.0</ele><time>2026-03-29T09:09:39.875Z</time></trkpt><trkpt lat="45.3631017" lon="9.7358317"><ele>76.0</ele><time>2026-03-29T09:09:41.874Z</time></trkpt><trkpt lat="45.3631367" lon="9.73569"><ele>76.0</ele><time>2026-03-29T09:09:43.874Z</time></trkpt><trkpt lat="45.3631717" lon="9.7355417"><ele>76.0</ele><time>2026-03-29T09:09:45.874Z</time></trkpt><trkpt lat="45.3632017" lon="9.7353883"><ele>76.0</ele><time>2026-03-29T09:09:47.874Z</time></trkpt><trkpt lat="45.3632383" lon="9.7352517"><ele>76.0</ele><time>2026-03-29T09:09:49.874Z</time></trkpt><trkpt lat="45.3632717" lon="9.7351117"><ele>76.0</ele><time>2026-03-29T09:09:51.874Z</time></trkpt><trkpt lat="45.3633083" lon="9.7349633"><ele>76.0</ele><time>2026-03-29T09:09:53.875Z</time></trkpt><trkpt lat="45.363345" lon="9.7348117"><ele>76.0</ele><time>2026-03-29T09:09:55.874Z</time></trkpt><trkpt lat="45.36338" lon="9.7346617"><ele>76.0</ele><time>2026-03-29T09:09:57.875Z</time></trkpt><trkpt lat="45.3634117" lon="9.7345083"><ele>76.0</ele><time>2026-03-29T09:09:59.874Z</time></trkpt><trkpt lat="45.363445" lon="9.73436"><ele>76.0</ele><time>2026-03-29T09:10:01.874Z</time></trkpt><trkpt lat="45.3634817" lon="9.7342083"><ele>76.0</ele><time>2026-03-29T09:10:03.874Z</time></trkpt><trkpt lat="45.3635133" lon="9.7340567"><ele>76.0</ele><time>2026-03-29T09:10:05.874Z</time></trkpt><trkpt lat="45.36355" lon="9.733905"><ele>76.0</ele><time>2026-03-29T09:10:07.874Z</time></trkpt><trkpt lat="45.3635883" lon="9.7337467"><ele>76.0</ele><time>2026-03-29T09:10:09.874Z</time></trkpt><trkpt lat="45.3636283" lon="9.7335983"><ele>76.0</ele><time>2026-03-29T09:10:11.875Z</time></trkpt><trkpt lat="45.363675" lon="9.733465"><ele>76.0</ele><time>2026-03-29T09:10:13.874Z</time></trkpt><trkpt lat="45.363715" lon="9.7333433"><ele>76.0</ele><time>2026-03-29T09:10:15.875Z</time></trkpt><trkpt lat="45.36375" lon="9.7332283"><ele>76.0</ele><time>2026-03-29T09:10:17.874Z</time></trkpt><trkpt lat="45.3637883" lon="9.733125"><ele>76.0</ele><time>2026-03-29T09:10:19.875Z</time></trkpt><trkpt lat="45.3638167" lon="9.73303"><ele>76.0</ele><time>2026-03-29T09:10:21.874Z</time></trkpt><trkpt lat="45.36383" lon="9.7328983"><ele>76.0</ele><time>2026-03-29T09:10:24.874Z</time></trkpt><trkpt lat="45.3638433" lon="9.7327933"><ele>76.0</ele><time>2026-03-29T09:10:26.874Z</time></trkpt><trkpt lat="45.3638617" lon="9.7326567"><ele>76.0</ele><time>2026-03-29T09:10:28.874Z</time></trkpt><trkpt lat="45.3638883" lon="9.7325067"><ele>76.0</ele><time>2026-03-29T09:10:30.874Z</time></trkpt><trkpt lat="45.3639183" lon="9.732365"><ele>76.0</ele><time>2026-03-29T09:10:32.874Z</time></trkpt><trkpt lat="45.36395" lon="9.7322267"><ele>76.0</ele><time>2026-03-29T09:10:34.874Z</time></trkpt><trkpt lat="45.363985" lon="9.7320733"><ele>76.0</ele><time>2026-03-29T09:10:36.875Z</time></trkpt><trkpt lat="45.36402" lon="9.7319167"><ele>76.0</ele><time>2026-03-29T09:10:38.874Z</time></trkpt><trkpt lat="45.3640567" lon="9.73176"><ele>76.0</ele><time>2026-03-29T09:10:40.874Z</time></trkpt><trkpt lat="45.3640933" lon="9.7316067"><ele>75.8</ele><time>2026-03-29T09:10:42.874Z</time></trkpt><trkpt lat="45.3641317" lon="9.731455"><ele>75.6</ele><time>2026-03-29T09:10:44.874Z</time></trkpt><trkpt lat="45.36417" lon="9.7313"><ele>75.4</ele><time>2026-03-29T09:10:46.874Z</time></trkpt><trkpt lat="45.3642083" lon="9.7311533"><ele>75.2</ele><time>2026-03-29T09:10:48.875Z</time></trkpt><trkpt lat="45.3642467" lon="9.7310083"><ele>75.0</ele><time>2026-03-29T09:10:50.874Z</time></trkpt><trkpt lat="45.3642783" lon="9.7308667"><ele>74.8</ele><time>2026-03-29T09:10:52.874Z</time></trkpt><trkpt lat="45.3643133" lon="9.730735"><ele>74.6</ele><time>2026-03-29T09:10:54.874Z</time></trkpt><trkpt lat="45.36434" lon="9.7306033"><ele>74.4</ele><time>2026-03-29T09:10:56.875Z</time></trkpt><trkpt lat="45.3643633" lon="9.7304767"><ele>74.2</ele><time>2026-03-29T09:10:58.874Z</time></trkpt><trkpt lat="45.3643933" lon="9.7303467"><ele>74.0</ele><time>2026-03-29T09:11:00.874Z</time></trkpt><trkpt lat="45.3644283" lon="9.730205"><ele>73.8</ele><time>2026-03-29T09:11:02.874Z</time></trkpt><trkpt lat="45.364465" lon="9.7300633"><ele>73.60000000000001</ele><time>2026-03-29T09:11:04.874Z</time></trkpt><trkpt lat="45.3644983" lon="9.72992"><ele>73.4</ele><time>2026-03-29T09:11:06.874Z</time></trkpt><trkpt lat="45.3645283" lon="9.7297683"><ele>73.2</ele><time>2026-03-29T09:11:08.874Z</time></trkpt><trkpt lat="45.3645617" lon="9.729615"><ele>73.0</ele><time>2026-03-29T09:11:10.874Z</time></trkpt><trkpt lat="45.3645967" lon="9.7294633"><ele>73.2</ele><time>2026-03-29T09:11:12.874Z</time></trkpt><trkpt lat="45.364635" lon="9.7293083"><ele>73.4</ele><time>2026-03-29T09:11:14.874Z</time></trkpt><trkpt lat="45.3646733" lon="9.7291617"><ele>73.60000000000001</ele><time>2026-03-29T09:11:16.875Z</time></trkpt><trkpt lat="45.3647083" lon="9.7290117"><ele>73.8</ele><time>2026-03-29T09:11:18.874Z</time></trkpt><trkpt lat="45.364745" lon="9.7288667"><ele>74.0</ele><time>2026-03-29T09:11:20.874Z</time></trkpt><trkpt lat="45.3647783" lon="9.7287133"><ele>74.2</ele><time>2026-03-29T09:11:22.874Z</time></trkpt><trkpt lat="45.3648133" lon="9.72856"><ele>74.4</ele><time>2026-03-29T09:11:24.874Z</time></trkpt><trkpt lat="45.3648517" lon="9.7284117"><ele>74.6</ele><time>2026-03-29T09:11:26.874Z</time></trkpt><trkpt lat="45.3648867" lon="9.7282633"><ele>74.8</ele><time>2026-03-29T09:11:28.874Z</time></trkpt><trkpt lat="45.3649183" lon="9.7281133"><ele>75.0</ele><time>2026-03-29T09:11:30.874Z</time></trkpt><trkpt lat="45.3649517" lon="9.7279667"><ele>75.0</ele><time>2026-03-29T09:11:32.874Z</time></trkpt><trkpt lat="45.3649867" lon="9.72782"><ele>75.0</ele><time>2026-03-29T09:11:34.874Z</time></trkpt><trkpt lat="45.3650217" lon="9.7276733"><ele>75.0</ele><time>2026-03-29T09:11:36.874Z</time></trkpt><trkpt lat="45.3650617" lon="9.7275233"><ele>75.0</ele><time>2026-03-29T09:11:38.874Z</time></trkpt><trkpt lat="45.3650883" lon="9.727375"><ele>75.0</ele><time>2026-03-29T09:11:40.874Z</time></trkpt><trkpt lat="45.3651183" lon="9.7272333"><ele>74.83333333333333</ele><time>2026-03-29T09:11:42.874Z</time></trkpt><trkpt lat="45.3651417" lon="9.727105"><ele>74.66666666666667</ele><time>2026-03-29T09:11:44.874Z</time></trkpt><trkpt lat="45.36517" lon="9.7269917"><ele>74.5</ele><time>2026-03-29T09:11:46.874Z</time></trkpt><trkpt lat="45.3651983" lon="9.7268783"><ele>74.33333333333334</ele><time>2026-03-29T09:11:48.874Z</time></trkpt><trkpt lat="45.3652233" lon="9.7267683"><ele>74.16666666666667</ele><time>2026-03-29T09:11:50.874Z</time></trkpt><trkpt lat="45.3652467" lon="9.72665"><ele>74.0</ele><time>2026-03-29T09:11:52.874Z</time></trkpt><trkpt lat="45.3652767" lon="9.7265183"><ele>74.0</ele><time>2026-03-29T09:11:54.874Z</time></trkpt><trkpt lat="45.3653083" lon="9.726375"><ele>74.0</ele><time>2026-03-29T09:11:56.874Z</time></trkpt><trkpt lat="45.365345" lon="9.72623"><ele>74.0</ele><time>2026-03-29T09:11:58.874Z</time></trkpt><trkpt lat="45.365385" lon="9.72608"><ele>74.0</ele><time>2026-03-29T09:12:00.874Z</time></trkpt><trkpt lat="45.3654217" lon="9.725925"><ele>74.0</ele><time>2026-03-29T09:12:02.874Z</time></trkpt><trkpt lat="45.3654567" lon="9.7257767"><ele>74.0</ele><time>2026-03-29T09:12:04.874Z</time></trkpt><trkpt lat="45.36549" lon="9.725625"><ele>74.0</ele><time>2026-03-29T09:12:06.874Z</time></trkpt><trkpt lat="45.3655283" lon="9.7254717"><ele>74.0</ele><time>2026-03-29T09:12:08.874Z</time></trkpt><trkpt lat="45.3655633" lon="9.7253183"><ele>74.0</ele><time>2026-03-29T09:12:10.875Z</time></trkpt><trkpt lat="45.3656" lon="9.725165"><ele>73.75</ele><time>2026-03-29T09:12:12.874Z</time></trkpt><trkpt lat="45.3656367" lon="9.7250083"><ele>73.5</ele><time>2026-03-29T09:12:14.874Z</time></trkpt><trkpt lat="45.365675" lon="9.72485"><ele>73.25</ele><time>2026-03-29T09:12:16.875Z</time></trkpt><trkpt lat="45.3657117" lon="9.7246967"><ele>73.0</ele><time>2026-03-29T09:12:18.874Z</time></trkpt><trkpt lat="45.3657483" lon="9.7245417"><ele>72.75</ele><time>2026-03-29T09:12:20.874Z</time></trkpt><trkpt lat="45.3657867" lon="9.7243883"><ele>72.5</ele><time>2026-03-29T09:12:22.874Z</time></trkpt><trkpt lat="45.365825" lon="9.7242333"><ele>72.25</ele><time>2026-03-29T09:12:24.874Z</time></trkpt><trkpt lat="45.3658617" lon="9.7240783"><ele>72.0</ele><time>2026-03-29T09:12:26.874Z</time></trkpt><trkpt lat="45.3658967" lon="9.72392"><ele>72.0</ele><time>2026-03-29T09:12:28.874Z</time></trkpt><trkpt lat="45.3659317" lon="9.723765"><ele>72.0</ele><time>2026-03-29T09:12:30.874Z</time></trkpt><trkpt lat="45.3659733" lon="9.7236067"><ele>72.0</ele><time>2026-03-29T09:12:32.874Z</time></trkpt><trkpt lat="45.366015" lon="9.7234483"><ele>72.0</ele><time>2026-03-29T09:12:34.874Z</time></trkpt><trkpt lat="45.3660567" lon="9.7232883"><ele>72.25</ele><time>2026-03-29T09:12:36.874Z</time></trkpt><trkpt lat="45.366095" lon="9.7231317"><ele>72.5</ele><time>2026-03-29T09:12:38.874Z</time></trkpt><trkpt lat="45.3661367" lon="9.722975"><ele>72.75</ele><time>2026-03-29T09:12:40.874Z</time></trkpt><trkpt lat="45.3661783" lon="9.722815"><ele>73.0</ele><time>2026-03-29T09:12:42.874Z</time></trkpt><trkpt lat="45.3662183" lon="9.72266"><ele>73.0</ele><time>2026-03-29T09:12:44.875Z</time></trkpt><trkpt lat="45.366255" lon="9.7224983"><ele>73.0</ele><time>2026-03-29T09:12:46.874Z</time></trkpt><trkpt lat="45.3662883" lon="9.7223367"><ele>73.0</ele><time>2026-03-29T09:12:48.874Z</time></trkpt><trkpt lat="45.3663233" lon="9.7221833"><ele>73.0</ele><time>2026-03-29T09:12:50.875Z</time></trkpt><trkpt lat="45.36636" lon="9.7220267"><ele>73.25</ele><time>2026-03-29T09:12:52.874Z</time></trkpt><trkpt lat="45.3663933" lon="9.7218667"><ele>73.5</ele><time>2026-03-29T09:12:54.874Z</time></trkpt><trkpt lat="45.36643" lon="9.721705"><ele>73.75</ele><time>2026-03-29T09:12:56.874Z</time></trkpt><trkpt lat="45.36647" lon="9.721545"><ele>74.0</ele><time>2026-03-29T09:12:58.875Z</time></trkpt><trkpt lat="45.3665083" lon="9.7213867"><ele>74.0</ele><time>2026-03-29T09:13:00.874Z</time></trkpt><trkpt lat="45.3665467" lon="9.72123"><ele>74.0</ele><time>2026-03-29T09:13:02.874Z</time></trkpt><trkpt lat="45.3665867" lon="9.7210667"><ele>74.0</ele><time>2026-03-29T09:13:04.874Z</time></trkpt><trkpt lat="45.366625" lon="9.7209033"><ele>74.0</ele><time>2026-03-29T09:13:06.874Z</time></trkpt><trkpt lat="45.3666633" lon="9.7207417"><ele>73.75</ele><time>2026-03-29T09:13:08.874Z</time></trkpt><trkpt lat="45.3667" lon="9.72058"><ele>73.5</ele><time>2026-03-29T09:13:10.874Z</time></trkpt><trkpt lat="45.3667367" lon="9.7204217"><ele>73.25</ele><time>2026-03-29T09:13:12.874Z</time></trkpt><trkpt lat="45.366775" lon="9.7202667"><ele>73.0</ele><time>2026-03-29T09:13:14.875Z</time></trkpt><trkpt lat="45.3668133" lon="9.7201167"><ele>72.8</ele><time>2026-03-29T09:13:16.874Z</time></trkpt><trkpt lat="45.3668567" lon="9.7199767"><ele>72.6</ele><time>2026-03-29T09:13:18.874Z</time></trkpt><trkpt lat="45.3668967" lon="9.7198333"><ele>72.4</ele><time>2026-03-29T09:13:20.874Z</time></trkpt><trkpt lat="45.3669217" lon="9.7196883"><ele>72.2</ele><time>2026-03-29T09:13:22.874Z</time></trkpt><trkpt lat="45.3669383" lon="9.7195583"><ele>72.0</ele><time>2026-03-29T09:13:24.875Z</time></trkpt><trkpt lat="45.366965" lon="9.7194383"><ele>72.16666666666667</ele><time>2026-03-29T09:13:26.874Z</time></trkpt><trkpt lat="45.3669967" lon="9.719345"><ele>72.33333333333333</ele><time>2026-03-29T09:13:28.874Z</time></trkpt><trkpt lat="45.3670283" lon="9.7192333"><ele>72.5</ele><time>2026-03-29T09:13:31.874Z</time></trkpt><trkpt lat="45.3670517" lon="9.71911"><ele>72.66666666666666</ele><time>2026-03-29T09:14:31.874Z</time></trkpt><trkpt lat="45.3670767" lon="9.7190183"><ele>72.83333333333333</ele><time>2026-03-29T09:14:34.874Z</time></trkpt><trkpt lat="45.3671017" lon="9.71892"><ele>73.0</ele><time>2026-03-29T09:14:36.875Z</time></trkpt><trkpt lat="45.3671317" lon="9.7188017"><ele>73.0</ele><time>2026-03-29T09:14:38.874Z</time></trkpt><trkpt lat="45.3671583" lon="9.7186817"><ele>73.0</ele><time>2026-03-29T09:14:40.874Z</time></trkpt><trkpt lat="45.3671633" lon="9.718565"><ele>73.0</ele><time>2026-03-29T09:14:42.874Z</time></trkpt><trkpt lat="45.3671883" lon="9.71848"><ele>73.0</ele><time>2026-03-29T09:14:44.874Z</time></trkpt><trkpt lat="45.3672317" lon="9.7184"><ele>73.0</ele><time>2026-03-29T09:14:46.874Z</time></trkpt><trkpt lat="45.3672617" lon="9.7182867"><ele>73.0</ele><time>2026-03-29T09:14:48.875Z</time></trkpt><trkpt lat="45.3673033" lon="9.7180933"><ele>73.2</ele><time>2026-03-29T09:14:51.874Z</time></trkpt><trkpt lat="45.367335" lon="9.7179517"><ele>73.4</ele><time>2026-03-29T09:14:53.874Z</time></trkpt><trkpt lat="45.3673667" lon="9.717805"><ele>73.60000000000001</ele><time>2026-03-29T09:14:55.874Z</time></trkpt><trkpt lat="45.3673983" lon="9.71766"><ele>73.8</ele><time>2026-03-29T09:14:57.874Z</time></trkpt><trkpt lat="45.3674317" lon="9.717515"><ele>74.0</ele><time>2026-03-29T09:14:59.874Z</time></trkpt><trkpt lat="45.367465" lon="9.7173633"><ele>74.0</ele><time>2026-03-29T09:15:01.874Z</time></trkpt><trkpt lat="45.3675" lon="9.7172117"><ele>74.0</ele><time>2026-03-29T09:15:03.874Z</time></trkpt><trkpt lat="45.3675383" lon="9.71706"><ele>74.0</ele><time>2026-03-29T09:15:05.874Z</time></trkpt><trkpt lat="45.3675733" lon="9.7169083"><ele>74.0</ele><time>2026-03-29T09:15:07.874Z</time></trkpt><trkpt lat="45.3676167" lon="9.7167517"><ele>74.75</ele><time>2026-03-29T09:15:09.874Z</time></trkpt><trkpt lat="45.36766" lon="9.71659"><ele>75.5</ele><time>2026-03-29T09:15:11.874Z</time></trkpt><trkpt lat="45.3676883" lon="9.7164267"><ele>76.25</ele><time>2026-03-29T09:15:13.874Z</time></trkpt><trkpt lat="45.367705" lon="9.7162533"><ele>77.0</ele><time>2026-03-29T09:15:15.874Z</time></trkpt><trkpt lat="45.3677383" lon="9.71609"><ele>77.25</ele><time>2026-03-29T09:15:17.874Z</time></trkpt><trkpt lat="45.3677717" lon="9.715925"><ele>77.5</ele><time>2026-03-29T09:15:19.874Z</time></trkpt><trkpt lat="45.36781" lon="9.7157617"><ele>77.75</ele><time>2026-03-29T09:15:21.874Z</time></trkpt><trkpt lat="45.36785" lon="9.715595"><ele>78.0</ele><time>2026-03-29T09:15:23.874Z</time></trkpt><trkpt lat="45.3678867" lon="9.7154283"><ele>78.0</ele><time>2026-03-29T09:15:25.875Z</time></trkpt><trkpt lat="45.36792" lon="9.71526"><ele>78.0</ele><time>2026-03-29T09:15:27.874Z</time></trkpt><trkpt lat="45.3679583" lon="9.7150967"><ele>78.0</ele><time>2026-03-29T09:15:29.874Z</time></trkpt><trkpt lat="45.3679983" lon="9.7149333"><ele>78.0</ele><time>2026-03-29T09:15:31.875Z</time></trkpt><trkpt lat="45.3680217" lon="9.71485"><ele>78.0</ele><time>2026-03-29T09:15:32.874Z</time></trkpt><trkpt lat="45.3680583" lon="9.7146883"><ele>77.4</ele><time>2026-03-29T09:15:34.874Z</time></trkpt><trkpt lat="45.3680983" lon="9.7145333"><ele>76.8</ele><time>2026-03-29T09:15:36.874Z</time></trkpt><trkpt lat="45.3681383" lon="9.71439"><ele>76.2</ele><time>2026-03-29T09:15:38.874Z</time></trkpt><trkpt lat="45.36817" lon="9.7142517"><ele>75.6</ele><time>2026-03-29T09:15:40.874Z</time></trkpt><trkpt lat="45.3682083" lon="9.7141067"><ele>75.0</ele><time>2026-03-29T09:15:42.874Z</time></trkpt><trkpt lat="45.3682417" lon="9.7139517"><ele>75.0</ele><time>2026-03-29T09:15:44.874Z</time></trkpt><trkpt lat="45.3682717" lon="9.7137917"><ele>75.0</ele><time>2026-03-29T09:15:46.874Z</time></trkpt><trkpt lat="45.36831" lon="9.71363"><ele>75.0</ele><time>2026-03-29T09:15:48.875Z</time></trkpt><trkpt lat="45.3683433" lon="9.7134733"><ele>75.0</ele><time>2026-03-29T09:15:50.874Z</time></trkpt><trkpt lat="45.3683783" lon="9.7133167"><ele>75.0</ele><time>2026-03-29T09:15:52.875Z</time></trkpt><trkpt lat="45.3684217" lon="9.7131633"><ele>75.0</ele><time>2026-03-29T09:15:54.875Z</time></trkpt><trkpt lat="45.3684583" lon="9.713"><ele>75.0</ele><time>2026-03-29T09:15:56.874Z</time></trkpt><trkpt lat="45.3684933" lon="9.7128467"><ele>75.0</ele><time>2026-03-29T09:15:58.874Z</time></trkpt><trkpt lat="45.368535" lon="9.7126883"><ele>74.5</ele><time>2026-03-29T09:16:00.874Z</time></trkpt><trkpt lat="45.3685717" lon="9.7125317"><ele>74.0</ele><time>2026-03-29T09:16:02.875Z</time></trkpt><trkpt lat="45.3686067" lon="9.712375"><ele>73.5</ele><time>2026-03-29T09:16:04.875Z</time></trkpt><trkpt lat="45.3686417" lon="9.712215"><ele>73.0</ele><time>2026-03-29T09:16:06.874Z</time></trkpt><trkpt lat="45.3686733" lon="9.7120633"><ele>73.0</ele><time>2026-03-29T09:16:08.874Z</time></trkpt><trkpt lat="45.368705" lon="9.7119333"><ele>73.0</ele><time>2026-03-29T09:16:10.874Z</time></trkpt><trkpt lat="45.3687433" lon="9.7117967"><ele>73.0</ele><time>2026-03-29T09:16:12.874Z</time></trkpt><trkpt lat="45.3687767" lon="9.7116467"><ele>73.0</ele><time>2026-03-29T09:16:14.875Z</time></trkpt><trkpt lat="45.3688083" lon="9.7114933"><ele>73.0</ele><time>2026-03-29T09:16:16.874Z</time></trkpt><trkpt lat="45.36885" lon="9.7113483"><ele>73.5</ele><time>2026-03-29T09:16:18.874Z</time></trkpt><trkpt lat="45.368885" lon="9.7112017"><ele>74.0</ele><time>2026-03-29T09:16:20.874Z</time></trkpt><trkpt lat="45.3689217" lon="9.711045"><ele>74.5</ele><time>2026-03-29T09:16:22.875Z</time></trkpt><trkpt lat="45.36896" lon="9.7108917"><ele>75.0</ele><time>2026-03-29T09:16:24.874Z</time></trkpt><trkpt lat="45.3689967" lon="9.7107383"><ele>75.2</ele><time>2026-03-29T09:16:26.874Z</time></trkpt><trkpt lat="45.3690333" lon="9.710595"><ele>75.4</ele><time>2026-03-29T09:16:28.874Z</time></trkpt><trkpt lat="45.3690633" lon="9.710455"><ele>75.6</ele><time>2026-03-29T09:16:30.874Z</time></trkpt><trkpt lat="45.3691" lon="9.7103383"><ele>75.8</ele><time>2026-03-29T09:16:32.874Z</time></trkpt><trkpt lat="45.3691483" lon="9.71027"><ele>76.0</ele><time>2026-03-29T09:16:34.874Z</time></trkpt><trkpt lat="45.3691767" lon="9.7101533"><ele>75.71428571428571</ele><time>2026-03-29T09:16:37.874Z</time></trkpt><trkpt lat="45.3691833" lon="9.710055"><ele>75.42857142857143</ele><time>2026-03-29T09:16:39.874Z</time></trkpt><trkpt lat="45.3691867" lon="9.70992"><ele>75.14285714285714</ele><time>2026-03-29T09:16:42.873Z</time></trkpt><trkpt lat="45.3691717" lon="9.7098283"><ele>74.85714285714286</ele><time>2026-03-29T09:16:44.873Z</time></trkpt><trkpt lat="45.3691483" lon="9.709735"><ele>74.57142857142857</ele><time>2026-03-29T09:16:46.873Z</time></trkpt><trkpt lat="45.3691167" lon="9.7096517"><ele>74.28571428571429</ele><time>2026-03-29T09:16:48.873Z</time></trkpt><trkpt lat="45.369085" lon="9.70956"><ele>74.0</ele><time>2026-03-29T09:16:50.873Z</time></trkpt><trkpt lat="45.3690567" lon="9.7094533"><ele>74.0</ele><time>2026-03-29T09:16:52.873Z</time></trkpt><trkpt lat="45.3690383" lon="9.7093567"><ele>74.0</ele><time>2026-03-29T09:16:54.873Z</time></trkpt><trkpt lat="45.3690733" lon="9.70925"><ele>74.0</ele><time>2026-03-29T09:16:56.873Z</time></trkpt><trkpt lat="45.3691033" lon="9.70912"><ele>74.0</ele><time>2026-03-29T09:16:58.873Z</time></trkpt><trkpt lat="45.36912" lon="9.7089783"><ele>74.0</ele><time>2026-03-29T09:17:00.873Z</time></trkpt><trkpt lat="45.3691267" lon="9.7088267"><ele>74.0</ele><time>2026-03-29T09:17:02.873Z</time></trkpt><trkpt lat="45.36912" lon="9.7086683"><ele>74.0</ele><time>2026-03-29T09:17:04.874Z</time></trkpt><trkpt lat="45.3691" lon="9.7085083"><ele>74.0</ele><time>2026-03-29T09:17:06.873Z</time></trkpt><trkpt lat="45.369075" lon="9.7083667"><ele>74.0</ele><time>2026-03-29T09:17:08.873Z</time></trkpt><trkpt lat="45.369045" lon="9.7082233"><ele>74.0</ele><time>2026-03-29T09:17:10.873Z</time></trkpt><trkpt lat="45.36901" lon="9.7080683"><ele>74.0</ele><time>2026-03-29T09:17:12.873Z</time></trkpt><trkpt lat="45.3689717" lon="9.7079117"><ele>74.0</ele><time>2026-03-29T09:17:14.873Z</time></trkpt><trkpt lat="45.3689367" lon="9.7077533"><ele>74.0</ele><time>2026-03-29T09:17:16.873Z</time></trkpt><trkpt lat="45.3689033" lon="9.7075967"><ele>74.0</ele><time>2026-03-29T09:17:18.873Z</time></trkpt><trkpt lat="45.3688633" lon="9.7074317"><ele>74.2</ele><time>2026-03-29T09:17:20.873Z</time></trkpt><trkpt lat="45.3688433" lon="9.7073467"><ele>74.4</ele><time>2026-03-29T09:17:21.873Z</time></trkpt><trkpt lat="45.3688083" lon="9.70718"><ele>74.6</ele><time>2026-03-29T09:17:23.873Z</time></trkpt><trkpt lat="45.3687717" lon="9.7070283"><ele>74.8</ele><time>2026-03-29T09:17:25.873Z</time></trkpt><trkpt lat="45.3687317" lon="9.7068733"><ele>75.0</ele><time>2026-03-29T09:17:27.873Z</time></trkpt><trkpt lat="45.3687" lon="9.7067267"><ele>75.0</ele><time>2026-03-29T09:17:29.873Z</time></trkpt><trkpt lat="45.36867" lon="9.7065783"><ele>75.0</ele><time>2026-03-29T09:17:31.874Z</time></trkpt><trkpt lat="45.3686333" lon="9.706425"><ele>75.0</ele><time>2026-03-29T09:17:33.873Z</time></trkpt><trkpt lat="45.3686" lon="9.7062833"><ele>75.0</ele><time>2026-03-29T09:17:35.873Z</time></trkpt><trkpt lat="45.3685617" lon="9.7061333"><ele>75.0</ele><time>2026-03-29T09:17:37.873Z</time></trkpt><trkpt lat="45.368525" lon="9.7059817"><ele>74.8</ele><time>2026-03-29T09:17:39.873Z</time></trkpt><trkpt lat="45.3684933" lon="9.7058267"><ele>74.6</ele><time>2026-03-29T09:17:41.873Z</time></trkpt><trkpt lat="45.3684667" lon="9.7056817"><ele>74.4</ele><time>2026-03-29T09:17:43.873Z</time></trkpt><trkpt lat="45.3684333" lon="9.70554"><ele>74.2</ele><time>2026-03-29T09:17:45.873Z</time></trkpt><trkpt lat="45.3683967" lon="9.7053917"><ele>74.0</ele><time>2026-03-29T09:17:47.874Z</time></trkpt><trkpt lat="45.3683667" lon="9.705235"><ele>73.60000000000001</ele><time>2026-03-29T09:17:49.874Z</time></trkpt><trkpt lat="45.368345" lon="9.705095"><ele>73.2</ele><time>2026-03-29T09:17:51.873Z</time></trkpt><trkpt lat="45.36831" lon="9.704955"><ele>72.80000000000001</ele><time>2026-03-29T09:17:53.873Z</time></trkpt><trkpt lat="45.3682833" lon="9.7048133"><ele>72.4</ele><time>2026-03-29T09:17:55.873Z</time></trkpt><trkpt lat="45.3682517" lon="9.70467"><ele>72.0</ele><time>2026-03-29T09:17:57.873Z</time></trkpt><trkpt lat="45.36822" lon="9.704525"><ele>72.2</ele><time>2026-03-29T09:17:59.873Z</time></trkpt><trkpt lat="45.3681817" lon="9.7043833"><ele>72.4</ele><time>2026-03-29T09:18:01.874Z</time></trkpt><trkpt lat="45.368145" lon="9.7042333"><ele>72.6</ele><time>2026-03-29T09:18:03.874Z</time></trkpt><trkpt lat="45.3681117" lon="9.7040933"><ele>72.8</ele><time>2026-03-29T09:18:05.873Z</time></trkpt><trkpt lat="45.3680783" lon="9.7039517"><ele>73.0</ele><time>2026-03-29T09:18:07.873Z</time></trkpt><trkpt lat="45.368055" lon="9.7037983"><ele>73.0</ele><time>2026-03-29T09:18:09.873Z</time></trkpt><trkpt lat="45.3680283" lon="9.7036517"><ele>73.0</ele><time>2026-03-29T09:18:11.873Z</time></trkpt><trkpt lat="45.3680183" lon="9.7034867"><ele>73.0</ele><time>2026-03-29T09:18:13.873Z</time></trkpt><trkpt lat="45.3680133" lon="9.7033433"><ele>73.0</ele><time>2026-03-29T09:18:15.873Z</time></trkpt><trkpt lat="45.367985" lon="9.7031883"><ele>73.0</ele><time>2026-03-29T09:18:17.874Z</time></trkpt><trkpt lat="45.3679733" lon="9.7030333"><ele>73.16666666666666</ele><time>2026-03-29T09:18:19.874Z</time></trkpt><trkpt lat="45.36796" lon="9.7029067"><ele>73.33333333333333</ele><time>2026-03-29T09:18:21.873Z</time></trkpt><trkpt lat="45.3679483" lon="9.7027917"><ele>73.5</ele><time>2026-03-29T09:18:23.873Z</time></trkpt><trkpt lat="45.3679417" lon="9.702675"><ele>73.66666666666667</ele><time>2026-03-29T09:18:25.873Z</time></trkpt><trkpt lat="45.3679433" lon="9.7025483"><ele>73.83333333333334</ele><time>2026-03-29T09:18:27.873Z</time></trkpt><trkpt lat="45.3679417" lon="9.70242"><ele>74.0</ele><time>2026-03-29T09:18:29.873Z</time></trkpt><trkpt lat="45.3679367" lon="9.702285"><ele>74.0</ele><time>2026-03-29T09:18:31.873Z</time></trkpt><trkpt lat="45.3679383" lon="9.70216"><ele>74.0</ele><time>2026-03-29T09:18:33.873Z</time></trkpt><trkpt lat="45.36794" lon="9.702045"><ele>74.0</ele><time>2026-03-29T09:18:35.873Z</time></trkpt><trkpt lat="45.3679383" lon="9.7019367"><ele>74.0</ele><time>2026-03-29T09:18:37.874Z</time></trkpt><trkpt lat="45.3679483" lon="9.7018233"><ele>74.0</ele><time>2026-03-29T09:18:39.873Z</time></trkpt><trkpt lat="45.36796" lon="9.7017033"><ele>74.0</ele><time>2026-03-29T09:18:41.873Z</time></trkpt><trkpt lat="45.3679783" lon="9.7015767"><ele>74.0</ele><time>2026-03-29T09:18:43.873Z</time></trkpt><trkpt lat="45.3679833" lon="9.7014433"><ele>74.0</ele><time>2026-03-29T09:18:45.873Z</time></trkpt><trkpt lat="45.3679817" lon="9.7012967"><ele>74.0</ele><time>2026-03-29T09:18:47.874Z</time></trkpt><trkpt lat="45.36797" lon="9.7011417"><ele>74.0</ele><time>2026-03-29T09:18:49.873Z</time></trkpt><trkpt lat="45.3679583" lon="9.7009617"><ele>74.0</ele><time>2026-03-29T09:18:51.874Z</time></trkpt><trkpt lat="45.3679617" lon="9.7008667"><ele>73.5</ele><time>2026-03-29T09:18:52.873Z</time></trkpt><trkpt lat="45.3679717" lon="9.7007733"><ele>73.0</ele><time>2026-03-29T09:18:53.873Z</time></trkpt><trkpt lat="45.3679933" lon="9.7006817"><ele>72.5</ele><time>2026-03-29T09:18:54.873Z</time></trkpt><trkpt lat="45.3680167" lon="9.700585"><ele>72.0</ele><time>2026-03-29T09:18:55.874Z</time></trkpt><trkpt lat="45.3680483" lon="9.7004967"><ele>71.5</ele><time>2026-03-29T09:18:56.873Z</time></trkpt><trkpt lat="45.3680983" lon="9.7003433"><ele>71.0</ele><time>2026-03-29T09:18:58.873Z</time></trkpt><trkpt lat="45.3681283" lon="9.7002"><ele>70.8</ele><time>2026-03-29T09:19:00.873Z</time></trkpt><trkpt lat="45.3681483" lon="9.7000633"><ele>70.6</ele><time>2026-03-29T09:19:02.873Z</time></trkpt><trkpt lat="45.3681683" lon="9.6999133"><ele>70.4</ele><time>2026-03-29T09:19:04.873Z</time></trkpt><trkpt lat="45.36818" lon="9.6997667"><ele>70.2</ele><time>2026-03-29T09:19:06.873Z</time></trkpt><trkpt lat="45.3681883" lon="9.6996117"><ele>70.0</ele><time>2026-03-29T09:19:08.873Z</time></trkpt><trkpt lat="45.3681733" lon="9.6994567"><ele>69.8</ele><time>2026-03-29T09:19:10.873Z</time></trkpt><trkpt lat="45.3681233" lon="9.6993"><ele>69.6</ele><time>2026-03-29T09:19:12.873Z</time></trkpt><trkpt lat="45.3680333" lon="9.6991833"><ele>69.4</ele><time>2026-03-29T09:19:14.873Z</time></trkpt><trkpt lat="45.3679783" lon="9.6991367"><ele>69.2</ele><time>2026-03-29T09:19:15.873Z</time></trkpt><trkpt lat="45.3678667" lon="9.6990983"><ele>69.0</ele><time>2026-03-29T09:19:17.873Z</time></trkpt><trkpt lat="45.3677583" lon="9.69908"><ele>69.0</ele><time>2026-03-29T09:19:19.874Z</time></trkpt><trkpt lat="45.36765" lon="9.6990333"><ele>69.0</ele><time>2026-03-29T09:19:21.873Z</time></trkpt><trkpt lat="45.36754" lon="9.6989733"><ele>69.0</ele><time>2026-03-29T09:19:23.873Z</time></trkpt><trkpt lat="45.367435" lon="9.6989217"><ele>69.0</ele><time>2026-03-29T09:19:25.873Z</time></trkpt><trkpt lat="45.3673667" lon="9.6989"><ele>69.0</ele><time>2026-03-29T09:19:26.873Z</time></trkpt><trkpt lat="45.3672467" lon="9.6988717"><ele>69.25</ele><time>2026-03-29T09:19:28.873Z</time></trkpt><trkpt lat="45.3671283" lon="9.6988533"><ele>69.5</ele><time>2026-03-29T09:19:30.874Z</time></trkpt><trkpt lat="45.3670233" lon="9.69883"><ele>69.75</ele><time>2026-03-29T09:19:32.873Z</time></trkpt><trkpt lat="45.36691" lon="9.6988117"><ele>70.0</ele><time>2026-03-29T09:19:34.873Z</time></trkpt><trkpt lat="45.3667933" lon="9.6987917"><ele>70.0</ele><time>2026-03-29T09:19:36.873Z</time></trkpt><trkpt lat="45.3666817" lon="9.6987583"><ele>70.0</ele><time>2026-03-29T09:19:38.873Z</time></trkpt><trkpt lat="45.3665783" lon="9.6987283"><ele>70.0</ele><time>2026-03-29T09:19:40.873Z</time></trkpt><trkpt lat="45.3664567" lon="9.698675"><ele>70.0</ele><time>2026-03-29T09:19:42.873Z</time></trkpt><trkpt lat="45.3663867" lon="9.6986617"><ele>70.0</ele><time>2026-03-29T09:19:43.873Z</time></trkpt><trkpt lat="45.366265" lon="9.6986383"><ele>70.0</ele><time>2026-03-29T09:19:45.873Z</time></trkpt><trkpt lat="45.3661517" lon="9.6985983"><ele>70.0</ele><time>2026-03-29T09:19:47.874Z</time></trkpt><trkpt lat="45.36605" lon="9.6985483"><ele>70.0</ele><time>2026-03-29T09:19:49.873Z</time></trkpt><trkpt lat="45.365965" lon="9.698455"><ele>70.0</ele><time>2026-03-29T09:19:51.874Z</time></trkpt><trkpt lat="45.3658933" lon="9.69834"><ele>70.0</ele><time>2026-03-29T09:19:53.874Z</time></trkpt><trkpt lat="45.365805" lon="9.69823"><ele>70.0</ele><time>2026-03-29T09:19:55.874Z</time></trkpt><trkpt lat="45.3657" lon="9.6981483"><ele>70.0</ele><time>2026-03-29T09:19:57.873Z</time></trkpt><trkpt lat="45.3655817" lon="9.6980833"><ele>70.0</ele><time>2026-03-29T09:19:59.873Z</time></trkpt><trkpt lat="45.3654683" lon="9.6980117"><ele>70.0</ele><time>2026-03-29T09:20:01.874Z</time></trkpt><trkpt lat="45.365355" lon="9.697945"><ele>70.33333333333333</ele><time>2026-03-29T09:20:03.873Z</time></trkpt><trkpt lat="45.3652417" lon="9.6978733"><ele>70.66666666666666</ele><time>2026-03-29T09:20:05.873Z</time></trkpt><trkpt lat="45.3651817" lon="9.6978333"><ele>71.0</ele><time>2026-03-29T09:20:06.874Z</time></trkpt><trkpt lat="45.3651217" lon="9.6977967"><ele>71.33333333333333</ele><time>2026-03-29T09:20:07.873Z</time></trkpt><trkpt lat="45.3650017" lon="9.6977383"><ele>71.66666666666667</ele><time>2026-03-29T09:20:09.874Z</time></trkpt><trkpt lat="45.3649367" lon="9.697715"><ele>72.0</ele><time>2026-03-29T09:20:10.874Z</time></trkpt><trkpt lat="45.36487" lon="9.6976917"><ele>71.66666666666667</ele><time>2026-03-29T09:20:11.873Z</time></trkpt><trkpt lat="45.36481" lon="9.6976583"><ele>71.33333333333333</ele><time>2026-03-29T09:20:12.873Z</time></trkpt><trkpt lat="45.3647467" lon="9.69764"><ele>71.0</ele><time>2026-03-29T09:20:13.873Z</time></trkpt><trkpt lat="45.36462" lon="9.6975733"><ele>70.66666666666666</ele><time>2026-03-29T09:20:15.873Z</time></trkpt><trkpt lat="45.36456" lon="9.697545"><ele>70.33333333333333</ele><time>2026-03-29T09:20:16.873Z</time></trkpt><trkpt lat="45.3644967" lon="9.6975167"><ele>70.0</ele><time>2026-03-29T09:20:17.873Z</time></trkpt><trkpt lat="45.36439" lon="9.6974617"><ele>70.0</ele><time>2026-03-29T09:20:19.873Z</time></trkpt><trkpt lat="45.364275" lon="9.6974267"><ele>70.0</ele><time>2026-03-29T09:20:21.873Z</time></trkpt><trkpt lat="45.3642117" lon="9.6974183"><ele>70.0</ele><time>2026-03-29T09:20:22.873Z</time></trkpt><trkpt lat="45.3641467" lon="9.6974083"><ele>70.0</ele><time>2026-03-29T09:20:23.873Z</time></trkpt><trkpt lat="45.3640267" lon="9.6973667"><ele>70.0</ele><time>2026-03-29T09:20:25.873Z</time></trkpt><trkpt lat="45.3639233" lon="9.6973333"><ele>70.0</ele><time>2026-03-29T09:20:27.873Z</time></trkpt><trkpt lat="45.3638233" lon="9.69733"><ele>70.0</ele><time>2026-03-29T09:20:29.873Z</time></trkpt><trkpt lat="45.3637333" lon="9.69732"><ele>70.0</ele><time>2026-03-29T09:20:31.873Z</time></trkpt><trkpt lat="45.363625" lon="9.6972867"><ele>70.0</ele><time>2026-03-29T09:20:33.873Z</time></trkpt><trkpt lat="45.3635617" lon="9.6972817"><ele>70.0</ele><time>2026-03-29T09:20:34.873Z</time></trkpt><trkpt lat="45.3634517" lon="9.6972683"><ele>70.0</ele><time>2026-03-29T09:20:36.874Z</time></trkpt><trkpt lat="45.36334" lon="9.6972583"><ele>70.0</ele><time>2026-03-29T09:20:38.873Z</time></trkpt><trkpt lat="45.3632217" lon="9.697235"><ele>70.0</ele><time>2026-03-29T09:20:40.873Z</time></trkpt><trkpt lat="45.3631083" lon="9.6972283"><ele>70.0</ele><time>2026-03-29T09:20:42.873Z</time></trkpt><trkpt lat="45.36299" lon="9.6972067"><ele>69.5</ele><time>2026-03-29T09:20:44.873Z</time></trkpt><trkpt lat="45.3628767" lon="9.697195"><ele>69.0</ele><time>2026-03-29T09:20:46.873Z</time></trkpt><trkpt lat="45.362755" lon="9.6971833"><ele>68.5</ele><time>2026-03-29T09:20:48.873Z</time></trkpt><trkpt lat="45.3626417" lon="9.6971583"><ele>68.0</ele><time>2026-03-29T09:20:50.873Z</time></trkpt><trkpt lat="45.362535" lon="9.697135"><ele>68.0</ele><time>2026-03-29T09:20:52.873Z</time></trkpt><trkpt lat="45.3624317" lon="9.697125"><ele>68.0</ele><time>2026-03-29T09:20:54.873Z</time></trkpt><trkpt lat="45.3623333" lon="9.69713"><ele>68.0</ele><time>2026-03-29T09:20:56.874Z</time></trkpt><trkpt lat="45.362225" lon="9.6971217"><ele>68.0</ele><time>2026-03-29T09:20:58.873Z</time></trkpt><trkpt lat="45.3621083" lon="9.6971117"><ele>68.0</ele><time>2026-03-29T09:21:00.873Z</time></trkpt><trkpt lat="45.3619967" lon="9.6971"><ele>68.2</ele><time>2026-03-29T09:21:02.873Z</time></trkpt><trkpt lat="45.3618817" lon="9.697085"><ele>68.4</ele><time>2026-03-29T09:21:04.873Z</time></trkpt><trkpt lat="45.3617617" lon="9.697065"><ele>68.60000000000001</ele><time>2026-03-29T09:21:06.873Z</time></trkpt><trkpt lat="45.3616567" lon="9.69704"><ele>68.8</ele><time>2026-03-29T09:21:08.873Z</time></trkpt><trkpt lat="45.3615517" lon="9.69703"><ele>69.0</ele><time>2026-03-29T09:21:10.873Z</time></trkpt><trkpt lat="45.3614683" lon="9.6970217"><ele>69.0</ele><time>2026-03-29T09:21:12.873Z</time></trkpt><trkpt lat="45.36139" lon="9.697005"><ele>69.0</ele><time>2026-03-29T09:21:14.873Z</time></trkpt><trkpt lat="45.361315" lon="9.6969933"><ele>69.0</ele><time>2026-03-29T09:21:16.874Z</time></trkpt><trkpt lat="45.361245" lon="9.6969733"><ele>69.0</ele><time>2026-03-29T09:21:18.873Z</time></trkpt><trkpt lat="45.361175" lon="9.6969467"><ele>69.0</ele><time>2026-03-29T09:21:20.873Z</time></trkpt><trkpt lat="45.3611033" lon="9.69692"><ele>69.0</ele><time>2026-03-29T09:21:24.873Z</time></trkpt><trkpt lat="45.361015" lon="9.6969033"><ele>68.60000000000001</ele><time>2026-03-29T09:21:27.873Z</time></trkpt><trkpt lat="45.3609333" lon="9.69687"><ele>68.2</ele><time>2026-03-29T09:21:29.873Z</time></trkpt><trkpt lat="45.36084" lon="9.6968467"><ele>67.80000000000001</ele><time>2026-03-29T09:21:31.873Z</time></trkpt><trkpt lat="45.3607567" lon="9.6968067"><ele>67.4</ele><time>2026-03-29T09:21:33.873Z</time></trkpt><trkpt lat="45.3606683" lon="9.6967483"><ele>67.0</ele><time>2026-03-29T09:21:35.873Z</time></trkpt><trkpt lat="45.3605617" lon="9.696695"><ele>66.8</ele><time>2026-03-29T09:21:37.874Z</time></trkpt><trkpt lat="45.360455" lon="9.69665"><ele>66.6</ele><time>2026-03-29T09:21:39.873Z</time></trkpt><trkpt lat="45.3603467" lon="9.6965983"><ele>66.39999999999999</ele><time>2026-03-29T09:21:41.873Z</time></trkpt><trkpt lat="45.3602517" lon="9.696525"><ele>66.2</ele><time>2026-03-29T09:21:43.873Z</time></trkpt><trkpt lat="45.36016" lon="9.696455"><ele>66.0</ele><time>2026-03-29T09:21:45.873Z</time></trkpt><trkpt lat="45.3600733" lon="9.6963967"><ele>66.0</ele><time>2026-03-29T09:21:47.873Z</time></trkpt><trkpt lat="45.3599967" lon="9.6963433"><ele>66.0</ele><time>2026-03-29T09:21:49.874Z</time></trkpt><trkpt lat="45.35992" lon="9.696285"><ele>66.0</ele><time>2026-03-29T09:21:51.873Z</time></trkpt><trkpt lat="45.3598383" lon="9.6962217"><ele>66.0</ele><time>2026-03-29T09:21:53.873Z</time></trkpt><trkpt lat="45.3597567" lon="9.6961417"><ele>66.0</ele><time>2026-03-29T09:21:55.873Z</time></trkpt><trkpt lat="45.3596633" lon="9.6960533"><ele>66.0</ele><time>2026-03-29T09:21:57.873Z</time></trkpt><trkpt lat="45.3595783" lon="9.6959667"><ele>66.0</ele><time>2026-03-29T09:21:59.873Z</time></trkpt><trkpt lat="45.3594917" lon="9.69589"><ele>66.0</ele><time>2026-03-29T09:22:01.873Z</time></trkpt><trkpt lat="45.3594017" lon="9.6958267"><ele>66.0</ele><time>2026-03-29T09:22:03.873Z</time></trkpt><trkpt lat="45.359345" lon="9.69573"><ele>66.0</ele><time>2026-03-29T09:22:05.873Z</time></trkpt><trkpt lat="45.35929" lon="9.6956567"><ele>66.0</ele><time>2026-03-29T09:22:07.873Z</time></trkpt><trkpt lat="45.3592233" lon="9.6956033"><ele>66.0</ele><time>2026-03-29T09:22:09.874Z</time></trkpt><trkpt lat="45.3591467" lon="9.695545"><ele>66.0</ele><time>2026-03-29T09:22:11.874Z</time></trkpt><trkpt lat="45.359075" lon="9.6954667"><ele>66.0</ele><time>2026-03-29T09:22:13.873Z</time></trkpt><trkpt lat="45.358985" lon="9.6953783"><ele>66.0</ele><time>2026-03-29T09:22:15.874Z</time></trkpt><trkpt lat="45.3588967" lon="9.695285"><ele>67.6</ele><time>2026-03-29T09:22:17.873Z</time></trkpt><trkpt lat="45.358815" lon="9.6951933"><ele>69.19999999999999</ele><time>2026-03-29T09:22:19.873Z</time></trkpt><trkpt lat="45.3587233" lon="9.695095"><ele>70.80000000000001</ele><time>2026-03-29T09:22:21.873Z</time></trkpt><trkpt lat="45.3586467" lon="9.6949933"><ele>72.4</ele><time>2026-03-29T09:22:23.873Z</time></trkpt><trkpt lat="45.35855" lon="9.6949083"><ele>74.0</ele><time>2026-03-29T09:22:25.873Z</time></trkpt><trkpt lat="45.358465" lon="9.69481"><ele>74.0</ele><time>2026-03-29T09:22:27.874Z</time></trkpt><trkpt lat="45.3583767" lon="9.6947433"><ele>74.0</ele><time>2026-03-29T09:22:29.873Z</time></trkpt><trkpt lat="45.3582883" lon="9.6946833"><ele>74.0</ele><time>2026-03-29T09:22:31.873Z</time></trkpt><trkpt lat="45.3582183" lon="9.6946367"><ele>74.0</ele><time>2026-03-29T09:22:33.873Z</time></trkpt><trkpt lat="45.3581717" lon="9.6945383"><ele>74.0</ele><time>2026-03-29T09:22:35.873Z</time></trkpt><trkpt lat="45.35811" lon="9.69446"><ele>74.0</ele><time>2026-03-29T09:22:37.873Z</time></trkpt><trkpt lat="45.35805" lon="9.6944067"><ele>73.83333333333334</ele><time>2026-03-29T09:22:39.873Z</time></trkpt><trkpt lat="45.3579717" lon="9.6943667"><ele>73.66666666666667</ele><time>2026-03-29T09:22:42.873Z</time></trkpt><trkpt lat="45.3579067" lon="9.6942983"><ele>73.5</ele><time>2026-03-29T09:22:46.873Z</time></trkpt><trkpt lat="45.3578567" lon="9.694235"><ele>73.33333333333333</ele><time>2026-03-29T09:22:48.873Z</time></trkpt><trkpt lat="45.35778" lon="9.6941883"><ele>73.16666666666666</ele><time>2026-03-29T09:22:50.873Z</time></trkpt><trkpt lat="45.3576933" lon="9.6941333"><ele>73.0</ele><time>2026-03-29T09:22:52.873Z</time></trkpt><trkpt lat="45.3576017" lon="9.694085"><ele>73.0</ele><time>2026-03-29T09:22:54.873Z</time></trkpt><trkpt lat="45.35751" lon="9.6940367"><ele>73.0</ele><time>2026-03-29T09:22:56.873Z</time></trkpt><trkpt lat="45.3574283" lon="9.69398"><ele>73.0</ele><time>2026-03-29T09:22:58.873Z</time></trkpt><trkpt lat="45.3573533" lon="9.6939133"><ele>73.0</ele><time>2026-03-29T09:23:00.873Z</time></trkpt><trkpt lat="45.3572633" lon="9.69389"><ele>73.0</ele><time>2026-03-29T09:23:02.873Z</time></trkpt><trkpt lat="45.3571833" lon="9.6938667"><ele>72.8</ele><time>2026-03-29T09:23:04.873Z</time></trkpt><trkpt lat="45.3571183" lon="9.693815"><ele>72.6</ele><time>2026-03-29T09:23:06.873Z</time></trkpt><trkpt lat="45.3569883" lon="9.6937067"><ele>72.4</ele><time>2026-03-29T09:23:20.873Z</time></trkpt><trkpt lat="45.3569267" lon="9.6936583"><ele>72.2</ele><time>2026-03-29T09:23:25.873Z</time></trkpt><trkpt lat="45.3568567" lon="9.693605"><ele>72.0</ele><time>2026-03-29T09:23:28.873Z</time></trkpt><trkpt lat="45.3567717" lon="9.6935667"><ele>71.5</ele><time>2026-03-29T09:23:31.874Z</time></trkpt><trkpt lat="45.3567067" lon="9.6935183"><ele>71.0</ele><time>2026-03-29T09:23:33.873Z</time></trkpt><trkpt lat="45.35664" lon="9.6935233"><ele>70.5</ele><time>2026-03-29T09:23:35.873Z</time></trkpt><trkpt lat="45.3565683" lon="9.6935083"><ele>70.0</ele><time>2026-03-29T09:23:37.873Z</time></trkpt><trkpt lat="45.3565033" lon="9.69346"><ele>69.5</ele><time>2026-03-29T09:23:39.873Z</time></trkpt><trkpt lat="45.356425" lon="9.69344"><ele>69.0</ele><time>2026-03-29T09:23:41.874Z</time></trkpt><trkpt lat="45.3563317" lon="9.6934333"><ele>68.8</ele><time>2026-03-29T09:23:43.873Z</time></trkpt><trkpt lat="45.35624" lon="9.6934033"><ele>68.60000000000001</ele><time>2026-03-29T09:23:45.874Z</time></trkpt><trkpt lat="45.3561433" lon="9.6933783"><ele>68.4</ele><time>2026-03-29T09:23:47.873Z</time></trkpt><trkpt lat="45.3560533" lon="9.6933767"><ele>68.2</ele><time>2026-03-29T09:23:49.873Z</time></trkpt><trkpt lat="45.3559633" lon="9.6933433"><ele>68.0</ele><time>2026-03-29T09:23:51.873Z</time></trkpt><trkpt lat="45.3558733" lon="9.693335"><ele>68.0</ele><time>2026-03-29T09:23:53.873Z</time></trkpt><trkpt lat="45.355785" lon="9.693345"><ele>68.0</ele><time>2026-03-29T09:23:55.874Z</time></trkpt><trkpt lat="45.3556317" lon="9.6933467"><ele>68.0</ele><time>2026-03-29T09:23:58.873Z</time></trkpt><trkpt lat="45.35558" lon="9.6932667"><ele>68.0</ele><time>2026-03-29T09:24:00.873Z</time></trkpt><trkpt lat="45.3554867" lon="9.69324"><ele>68.0</ele><time>2026-03-29T09:24:03.873Z</time></trkpt><trkpt lat="45.355415" lon="9.6932333"><ele>68.5</ele><time>2026-03-29T09:24:05.873Z</time></trkpt><trkpt lat="45.3553333" lon="9.693215"><ele>69.0</ele><time>2026-03-29T09:24:07.873Z</time></trkpt><trkpt lat="45.3552517" lon="9.6932033"><ele>69.5</ele><time>2026-03-29T09:24:09.873Z</time></trkpt><trkpt lat="45.355165" lon="9.6932417"><ele>70.0</ele><time>2026-03-29T09:24:11.873Z</time></trkpt><trkpt lat="45.3551117" lon="9.6932917"><ele>70.5</ele><time>2026-03-29T09:24:13.873Z</time></trkpt><trkpt lat="45.355095" lon="9.6933983"><ele>71.0</ele><time>2026-03-29T09:24:16.874Z</time></trkpt><trkpt lat="45.35508" lon="9.6934883"><ele>71.0</ele><time>2026-03-29T09:24:18.873Z</time></trkpt><trkpt lat="45.3550633" lon="9.693575"><ele>71.0</ele><time>2026-03-29T09:24:20.873Z</time></trkpt><trkpt lat="45.3550517" lon="9.6936733"><ele>71.0</ele><time>2026-03-29T09:24:22.873Z</time></trkpt><trkpt lat="45.3550333" lon="9.6937683"><ele>71.0</ele><time>2026-03-29T09:24:24.873Z</time></trkpt><trkpt lat="45.3550033" lon="9.6938967"><ele>71.0</ele><time>2026-03-29T09:24:27.874Z</time></trkpt><trkpt lat="45.354985" lon="9.6939833"><ele>71.0</ele><time>2026-03-29T09:24:29.873Z</time></trkpt><trkpt lat="45.3549517" lon="9.6940933"><ele>71.0</ele><time>2026-03-29T09:24:32.873Z</time></trkpt><trkpt lat="45.3548867" lon="9.694115"><ele>71.16666666666667</ele><time>2026-03-29T09:24:36.873Z</time></trkpt><trkpt lat="45.35481" lon="9.6940883"><ele>71.33333333333334</ele><time>2026-03-29T09:31:54.873Z</time></trkpt><trkpt lat="45.3547233" lon="9.6940633"><ele>71.5</ele><time>2026-03-29T09:31:58.872Z</time></trkpt><trkpt lat="45.35466" lon="9.694045"><ele>71.66666666666667</ele><time>2026-03-29T09:32:00.873Z</time></trkpt><trkpt lat="45.3545883" lon="9.6940167"><ele>71.83333333333333</ele><time>2026-03-29T09:32:02.872Z</time></trkpt><trkpt lat="45.3545167" lon="9.69399"><ele>72.0</ele><time>2026-03-29T09:32:04.872Z</time></trkpt><trkpt lat="45.35444" lon="9.6939667"><ele>72.16666666666667</ele><time>2026-03-29T09:32:06.872Z</time></trkpt><trkpt lat="45.35436" lon="9.6939517"><ele>72.33333333333333</ele><time>2026-03-29T09:32:08.872Z</time></trkpt><trkpt lat="45.3542833" lon="9.6939383"><ele>72.5</ele><time>2026-03-29T09:32:10.872Z</time></trkpt><trkpt lat="45.354195" lon="9.6939433"><ele>72.66666666666666</ele><time>2026-03-29T09:32:12.872Z</time></trkpt><trkpt lat="45.3540983" lon="9.6939433"><ele>72.83333333333333</ele><time>2026-03-29T09:32:14.872Z</time></trkpt><trkpt lat="45.3540033" lon="9.6939517"><ele>73.0</ele><time>2026-03-29T09:32:16.872Z</time></trkpt><trkpt lat="45.3539033" lon="9.693975"><ele>73.2</ele><time>2026-03-29T09:32:18.872Z</time></trkpt><trkpt lat="45.3537983" lon="9.6940033"><ele>73.4</ele><time>2026-03-29T09:32:20.872Z</time></trkpt><trkpt lat="45.353695" lon="9.69404"><ele>73.60000000000001</ele><time>2026-03-29T09:32:22.872Z</time></trkpt><trkpt lat="45.353585" lon="9.6940733"><ele>73.8</ele><time>2026-03-29T09:32:24.872Z</time></trkpt><trkpt lat="45.3534733" lon="9.6941083"><ele>74.0</ele><time>2026-03-29T09:32:26.872Z</time></trkpt><trkpt lat="45.35336" lon="9.694135"><ele>74.0</ele><time>2026-03-29T09:32:28.872Z</time></trkpt><trkpt lat="45.3532467" lon="9.6941733"><ele>74.0</ele><time>2026-03-29T09:32:30.873Z</time></trkpt><trkpt lat="45.35314" lon="9.694225"><ele>74.0</ele><time>2026-03-29T09:32:32.872Z</time></trkpt><trkpt lat="45.3530317" lon="9.6942683"><ele>74.0</ele><time>2026-03-29T09:32:34.872Z</time></trkpt><trkpt lat="45.3529217" lon="9.69431"><ele>74.0</ele><time>2026-03-29T09:32:36.872Z</time></trkpt><trkpt lat="45.3528067" lon="9.6943517"><ele>74.0</ele><time>2026-03-29T09:32:38.872Z</time></trkpt><trkpt lat="45.3526967" lon="9.6943867"><ele>74.0</ele><time>2026-03-29T09:32:40.873Z</time></trkpt><trkpt lat="45.3525917" lon="9.69443"><ele>74.0</ele><time>2026-03-29T09:32:42.872Z</time></trkpt><trkpt lat="45.35248" lon="9.6944667"><ele>73.5</ele><time>2026-03-29T09:32:44.872Z</time></trkpt><trkpt lat="45.3523667" lon="9.6945067"><ele>73.0</ele><time>2026-03-29T09:32:46.871Z</time></trkpt><trkpt lat="45.352255" lon="9.6945517"><ele>72.5</ele><time>2026-03-29T09:32:48.871Z</time></trkpt><trkpt lat="45.3521467" lon="9.69459"><ele>72.0</ele><time>2026-03-29T09:32:50.871Z</time></trkpt><trkpt lat="45.35204" lon="9.6946317"><ele>71.75</ele><time>2026-03-29T09:32:52.871Z</time></trkpt><trkpt lat="45.3519233" lon="9.6946767"><ele>71.5</ele><time>2026-03-29T09:32:54.871Z</time></trkpt><trkpt lat="45.35181" lon="9.694715"><ele>71.25</ele><time>2026-03-29T09:32:56.871Z</time></trkpt><trkpt lat="45.3517017" lon="9.6947383"><ele>71.0</ele><time>2026-03-29T09:32:58.871Z</time></trkpt><trkpt lat="45.35159" lon="9.6947617"><ele>71.0</ele><time>2026-03-29T09:33:00.871Z</time></trkpt><trkpt lat="45.351485" lon="9.6948033"><ele>71.0</ele><time>2026-03-29T09:33:02.871Z</time></trkpt><trkpt lat="45.3513933" lon="9.6948433"><ele>71.0</ele><time>2026-03-29T09:33:04.872Z</time></trkpt><trkpt lat="45.3513083" lon="9.6948717"><ele>71.0</ele><time>2026-03-29T09:33:06.871Z</time></trkpt><trkpt lat="45.351275" lon="9.6947867"><ele>71.0</ele><time>2026-03-29T09:33:08.871Z</time></trkpt><trkpt lat="45.3512667" lon="9.69466"><ele>71.0</ele><time>2026-03-29T09:33:10.871Z</time></trkpt><trkpt lat="45.351255" lon="9.6945267"><ele>71.0</ele><time>2026-03-29T09:33:12.871Z</time></trkpt><trkpt lat="45.3512367" lon="9.6943967"><ele>71.0</ele><time>2026-03-29T09:33:14.871Z</time></trkpt><trkpt lat="45.3512233" lon="9.694255"><ele>71.0</ele><time>2026-03-29T09:33:16.871Z</time></trkpt><trkpt lat="45.3512117" lon="9.6941133"><ele>71.0</ele><time>2026-03-29T09:33:18.871Z</time></trkpt><trkpt lat="45.3511967" lon="9.6939733"><ele>71.0</ele><time>2026-03-29T09:33:20.872Z</time></trkpt><trkpt lat="45.3511883" lon="9.6938333"><ele>71.0</ele><time>2026-03-29T09:33:22.871Z</time></trkpt><trkpt lat="45.3511817" lon="9.6936783"><ele>71.0</ele><time>2026-03-29T09:33:24.871Z</time></trkpt><trkpt lat="45.3511483" lon="9.6935417"><ele>71.0</ele><time>2026-03-29T09:33:26.871Z</time></trkpt><trkpt lat="45.3511183" lon="9.6934567"><ele>71.0</ele><time>2026-03-29T09:33:28.871Z</time></trkpt><trkpt lat="45.35108" lon="9.6933433"><ele>70.66666666666667</ele><time>2026-03-29T09:33:31.872Z</time></trkpt><trkpt lat="45.3510083" lon="9.6933117"><ele>70.33333333333334</ele><time>2026-03-29T09:33:33.871Z</time></trkpt><trkpt lat="45.3509167" lon="9.693365"><ele>70.0</ele><time>2026-03-29T09:33:35.871Z</time></trkpt><trkpt lat="45.350855" lon="9.6934233"><ele>69.66666666666667</ele><time>2026-03-29T09:33:37.871Z</time></trkpt><trkpt lat="45.35077" lon="9.6934683"><ele>69.33333333333333</ele><time>2026-03-29T09:33:39.872Z</time></trkpt><trkpt lat="45.3506883" lon="9.6934667"><ele>69.0</ele><time>2026-03-29T09:33:41.871Z</time></trkpt><trkpt lat="45.3506183" lon="9.69346"><ele>69.0</ele><time>2026-03-29T09:33:43.871Z</time></trkpt><trkpt lat="45.3505433" lon="9.6935167"><ele>69.0</ele><time>2026-03-29T09:33:45.871Z</time></trkpt><trkpt lat="45.3504583" lon="9.6935517"><ele>69.0</ele><time>2026-03-29T09:33:47.871Z</time></trkpt><trkpt lat="45.35039" lon="9.69359"><ele>69.0</ele><time>2026-03-29T09:33:49.871Z</time></trkpt><trkpt lat="45.350315" lon="9.6936333"><ele>69.0</ele><time>2026-03-29T09:33:52.871Z</time></trkpt><trkpt lat="45.3502317" lon="9.6936683"><ele>69.0</ele><time>2026-03-29T09:33:55.872Z</time></trkpt><trkpt lat="45.3501583" lon="9.6936983"><ele>68.4</ele><time>2026-03-29T09:33:57.871Z</time></trkpt><trkpt lat="45.3500783" lon="9.6937433"><ele>67.80000000000001</ele><time>2026-03-29T09:33:59.871Z</time></trkpt><trkpt lat="45.349995" lon="9.6938033"><ele>67.19999999999999</ele><time>2026-03-29T09:34:01.871Z</time></trkpt><trkpt lat="45.3499217" lon="9.6938733"><ele>66.6</ele><time>2026-03-29T09:34:03.871Z</time></trkpt><trkpt lat="45.34984" lon="9.6939417"><ele>66.0</ele><time>2026-03-29T09:34:05.871Z</time></trkpt><trkpt lat="45.349745" lon="9.694"><ele>67.0</ele><time>2026-03-29T09:34:07.871Z</time></trkpt><trkpt lat="45.3496733" lon="9.6940733"><ele>68.0</ele><time>2026-03-29T09:34:09.871Z</time></trkpt><trkpt lat="45.3495983" lon="9.69414"><ele>69.0</ele><time>2026-03-29T09:34:11.871Z</time></trkpt><trkpt lat="45.3495133" lon="9.69421"><ele>70.0</ele><time>2026-03-29T09:34:13.871Z</time></trkpt><trkpt lat="45.3494283" lon="9.694295"><ele>71.0</ele><time>2026-03-29T09:34:15.871Z</time></trkpt><trkpt lat="45.34935" lon="9.6943733"><ele>70.8</ele><time>2026-03-29T09:34:17.871Z</time></trkpt><trkpt lat="45.3492817" lon="9.6944717"><ele>70.6</ele><time>2026-03-29T09:34:19.872Z</time></trkpt><trkpt lat="45.3492033" lon="9.6945617"><ele>70.4</ele><time>2026-03-29T09:34:21.871Z</time></trkpt><trkpt lat="45.3491333" lon="9.6946417"><ele>70.2</ele><time>2026-03-29T09:34:23.872Z</time></trkpt><trkpt lat="45.349075" lon="9.6947267"><ele>70.0</ele><time>2026-03-29T09:34:25.871Z</time></trkpt><trkpt lat="45.349025" lon="9.6948283"><ele>70.0</ele><time>2026-03-29T09:34:27.871Z</time></trkpt><trkpt lat="45.3489617" lon="9.6949317"><ele>70.0</ele><time>2026-03-29T09:34:29.872Z</time></trkpt><trkpt lat="45.3489067" lon="9.6950383"><ele>70.0</ele><time>2026-03-29T09:34:31.872Z</time></trkpt><trkpt lat="45.3488433" lon="9.6951433"><ele>70.0</ele><time>2026-03-29T09:34:33.871Z</time></trkpt><trkpt lat="45.3487783" lon="9.695265"><ele>70.0</ele><time>2026-03-29T09:34:35.872Z</time></trkpt><trkpt lat="45.3487233" lon="9.6953967"><ele>70.0</ele><time>2026-03-29T09:34:37.871Z</time></trkpt><trkpt lat="45.3486767" lon="9.6955367"><ele>70.0</ele><time>2026-03-29T09:34:39.872Z</time></trkpt><trkpt lat="45.3486267" lon="9.6956883"><ele>70.0</ele><time>2026-03-29T09:34:41.872Z</time></trkpt><trkpt lat="45.3486033" lon="9.6957733"><ele>70.0</ele><time>2026-03-29T09:34:42.872Z</time></trkpt><trkpt lat="45.348555" lon="9.6959317"><ele>70.0</ele><time>2026-03-29T09:34:44.871Z</time></trkpt><trkpt lat="45.3485083" lon="9.6960833"><ele>69.83333333333333</ele><time>2026-03-29T09:34:46.871Z</time></trkpt><trkpt lat="45.3484617" lon="9.6962433"><ele>69.66666666666666</ele><time>2026-03-29T09:34:48.871Z</time></trkpt><trkpt lat="45.348435" lon="9.69633"><ele>69.5</ele><time>2026-03-29T09:34:49.871Z</time></trkpt><trkpt lat="45.3484167" lon="9.6964183"><ele>69.33333333333333</ele><time>2026-03-29T09:34:50.871Z</time></trkpt><trkpt lat="45.3483983" lon="9.6965083"><ele>69.16666666666667</ele><time>2026-03-29T09:34:51.871Z</time></trkpt><trkpt lat="45.34836" lon="9.69668"><ele>69.0</ele><time>2026-03-29T09:34:53.872Z</time></trkpt><trkpt lat="45.34833" lon="9.6967717"><ele>69.0</ele><time>2026-03-29T09:34:54.871Z</time></trkpt><trkpt lat="45.348305" lon="9.6968633"><ele>69.0</ele><time>2026-03-29T09:34:55.871Z</time></trkpt><trkpt lat="45.3482817" lon="9.69695"><ele>69.0</ele><time>2026-03-29T09:34:56.872Z</time></trkpt><trkpt lat="45.3482583" lon="9.697045"><ele>69.0</ele><time>2026-03-29T09:34:57.871Z</time></trkpt><trkpt lat="45.3482283" lon="9.69714"><ele>69.0</ele><time>2026-03-29T09:34:58.871Z</time></trkpt><trkpt lat="45.3481983" lon="9.6972317"><ele>69.0</ele><time>2026-03-29T09:34:59.871Z</time></trkpt><trkpt lat="45.3481717" lon="9.6973233"><ele>69.0</ele><time>2026-03-29T09:35:00.871Z</time></trkpt><trkpt lat="45.3481433" lon="9.6974133"><ele>68.85714285714286</ele><time>2026-03-29T09:35:01.871Z</time></trkpt><trkpt lat="45.34811" lon="9.6975017"><ele>68.71428571428572</ele><time>2026-03-29T09:35:02.872Z</time></trkpt><trkpt lat="45.3480733" lon="9.6975867"><ele>68.57142857142857</ele><time>2026-03-29T09:35:03.871Z</time></trkpt><trkpt lat="45.348035" lon="9.6976717"><ele>68.42857142857143</ele><time>2026-03-29T09:35:04.872Z</time></trkpt><trkpt lat="45.3480017" lon="9.697755"><ele>68.28571428571428</ele><time>2026-03-29T09:35:05.871Z</time></trkpt><trkpt lat="45.3479633" lon="9.6978383"><ele>68.14285714285714</ele><time>2026-03-29T09:35:06.871Z</time></trkpt><trkpt lat="45.34793" lon="9.6979233"><ele>68.0</ele><time>2026-03-29T09:35:07.871Z</time></trkpt><trkpt lat="45.34789" lon="9.6980083"><ele>68.0</ele><time>2026-03-29T09:35:08.871Z</time></trkpt><trkpt lat="45.34785" lon="9.698095"><ele>68.0</ele><time>2026-03-29T09:35:09.871Z</time></trkpt><trkpt lat="45.3478117" lon="9.69818"><ele>68.0</ele><time>2026-03-29T09:35:10.871Z</time></trkpt><trkpt lat="45.3477667" lon="9.69826"><ele>68.0</ele><time>2026-03-29T09:35:11.872Z</time></trkpt><trkpt lat="45.3477217" lon="9.6983417"><ele>68.0</ele><time>2026-03-29T09:35:12.871Z</time></trkpt><trkpt lat="45.3476817" lon="9.6984283"><ele>68.0</ele><time>2026-03-29T09:35:13.871Z</time></trkpt><trkpt lat="45.3476383" lon="9.6985917"><ele>68.0</ele><time>2026-03-29T09:35:15.872Z</time></trkpt><trkpt lat="45.34763" lon="9.6987533"><ele>68.0</ele><time>2026-03-29T09:35:17.871Z</time></trkpt><trkpt lat="45.3476583" lon="9.6988617"><ele>68.0</ele><time>2026-03-29T09:35:19.872Z</time></trkpt><trkpt lat="45.3476867" lon="9.6989483"><ele>68.0</ele><time>2026-03-29T09:35:22.871Z</time></trkpt><trkpt lat="45.3476933" lon="9.699055"><ele>68.0</ele><time>2026-03-29T09:35:26.872Z</time></trkpt><trkpt lat="45.347725" lon="9.6991667"><ele>68.0</ele><time>2026-03-29T09:35:29.871Z</time></trkpt><trkpt lat="45.3477417" lon="9.6992717"><ele>68.0</ele><time>2026-03-29T09:35:31.871Z</time></trkpt><trkpt lat="45.3477583" lon="9.6993833"><ele>68.0</ele><time>2026-03-29T09:35:33.871Z</time></trkpt><trkpt lat="45.3477833" lon="9.6994917"><ele>68.0</ele><time>2026-03-29T09:35:35.872Z</time></trkpt><trkpt lat="45.3478183" lon="9.699605"><ele>68.0</ele><time>2026-03-29T09:35:37.871Z</time></trkpt><trkpt lat="45.3478483" lon="9.6997367"><ele>68.0</ele><time>2026-03-29T09:35:39.872Z</time></trkpt><trkpt lat="45.34787" lon="9.69986"><ele>68.0</ele><time>2026-03-29T09:35:41.872Z</time></trkpt><trkpt lat="45.347895" lon="9.6999833"><ele>68.14285714285714</ele><time>2026-03-29T09:35:43.871Z</time></trkpt><trkpt lat="45.3478967" lon="9.70009"><ele>68.28571428571428</ele><time>2026-03-29T09:35:45.871Z</time></trkpt><trkpt lat="45.3478933" lon="9.7001917"><ele>68.42857142857143</ele><time>2026-03-29T09:35:47.871Z</time></trkpt><trkpt lat="45.3479367" lon="9.7002717"><ele>68.57142857142857</ele><time>2026-03-29T09:35:50.871Z</time></trkpt><trkpt lat="45.347975" lon="9.7003567"><ele>68.71428571428572</ele><time>2026-03-29T09:35:53.871Z</time></trkpt><trkpt lat="45.3479567" lon="9.7004467"><ele>68.85714285714286</ele><time>2026-03-29T09:35:56.872Z</time></trkpt><trkpt lat="45.347935" lon="9.7005667"><ele>69.0</ele><time>2026-03-29T09:35:59.871Z</time></trkpt><trkpt lat="45.3479517" lon="9.7006583"><ele>69.0</ele><time>2026-03-29T09:36:02.871Z</time></trkpt><trkpt lat="45.347875" lon="9.7007167"><ele>69.0</ele><time>2026-03-29T09:36:06.871Z</time></trkpt><trkpt lat="45.3477817" lon="9.70072"><ele>69.0</ele><time>2026-03-29T09:36:09.872Z</time></trkpt><trkpt lat="45.347715" lon="9.7007233"><ele>69.0</ele><time>2026-03-29T09:36:11.871Z</time></trkpt><trkpt lat="45.3476417" lon="9.7007233"><ele>69.0</ele><time>2026-03-29T09:36:13.872Z</time></trkpt><trkpt lat="45.347565" lon="9.7007233"><ele>69.0</ele><time>2026-03-29T09:36:15.871Z</time></trkpt><trkpt lat="45.3474833" lon="9.70072"><ele>69.0</ele><time>2026-03-29T09:36:17.871Z</time></trkpt><trkpt lat="45.3474017" lon="9.7007183"><ele>69.0</ele><time>2026-03-29T09:36:19.871Z</time></trkpt><trkpt lat="45.34732" lon="9.70072"><ele>69.0</ele><time>2026-03-29T09:36:21.871Z</time></trkpt><trkpt lat="45.34724" lon="9.7007233"><ele>69.0</ele><time>2026-03-29T09:36:23.871Z</time></trkpt><trkpt lat="45.3471517" lon="9.7007267"><ele>69.0</ele><time>2026-03-29T09:36:25.871Z</time></trkpt><trkpt lat="45.3470567" lon="9.7007283"><ele>69.0</ele><time>2026-03-29T09:36:27.871Z</time></trkpt><trkpt lat="45.3469567" lon="9.70073"><ele>69.0</ele><time>2026-03-29T09:36:29.872Z</time></trkpt><trkpt lat="45.3468583" lon="9.7007333"><ele>69.0</ele><time>2026-03-29T09:36:31.872Z</time></trkpt><trkpt lat="45.346755" lon="9.70073"><ele>69.0</ele><time>2026-03-29T09:36:33.871Z</time></trkpt><trkpt lat="45.3466583" lon="9.7007333"><ele>69.0</ele><time>2026-03-29T09:36:35.871Z</time></trkpt><trkpt lat="45.3465567" lon="9.7007383"><ele>69.0</ele><time>2026-03-29T09:36:37.872Z</time></trkpt><trkpt lat="45.3464617" lon="9.7007367"><ele>68.8</ele><time>2026-03-29T09:36:39.871Z</time></trkpt><trkpt lat="45.3463617" lon="9.700735"><ele>68.60000000000001</ele><time>2026-03-29T09:36:41.871Z</time></trkpt><trkpt lat="45.3462583" lon="9.700735"><ele>68.4</ele><time>2026-03-29T09:36:43.871Z</time></trkpt><trkpt lat="45.346155" lon="9.7007467"><ele>68.2</ele><time>2026-03-29T09:36:45.871Z</time></trkpt><trkpt lat="45.3460417" lon="9.7007533"><ele>68.0</ele><time>2026-03-29T09:36:47.871Z</time></trkpt><trkpt lat="45.34593" lon="9.7007517"><ele>68.0</ele><time>2026-03-29T09:36:49.871Z</time></trkpt><trkpt lat="45.3458217" lon="9.7007417"><ele>68.0</ele><time>2026-03-29T09:36:51.872Z</time></trkpt><trkpt lat="45.34571" lon="9.7007333"><ele>68.0</ele><time>2026-03-29T09:36:53.871Z</time></trkpt><trkpt lat="45.345605" lon="9.7007317"><ele>68.0</ele><time>2026-03-29T09:36:55.872Z</time></trkpt><trkpt lat="45.3454917" lon="9.70073"><ele>68.0</ele><time>2026-03-29T09:36:57.871Z</time></trkpt><trkpt lat="45.3453783" lon="9.700735"><ele>68.5</ele><time>2026-03-29T09:36:59.872Z</time></trkpt><trkpt lat="45.3452617" lon="9.7007383"><ele>69.0</ele><time>2026-03-29T09:37:01.871Z</time></trkpt><trkpt lat="45.3451483" lon="9.700725"><ele>69.5</ele><time>2026-03-29T09:37:03.871Z</time></trkpt><trkpt lat="45.3450267" lon="9.7007317"><ele>70.0</ele><time>2026-03-29T09:37:05.871Z</time></trkpt><trkpt lat="45.3449133" lon="9.7007167"><ele>70.0</ele><time>2026-03-29T09:37:07.871Z</time></trkpt><trkpt lat="45.3448083" lon="9.7007083"><ele>70.0</ele><time>2026-03-29T09:37:09.871Z</time></trkpt><trkpt lat="45.34469" lon="9.70071"><ele>70.0</ele><time>2026-03-29T09:37:11.871Z</time></trkpt><trkpt lat="45.344625" lon="9.70071"><ele>70.0</ele><time>2026-03-29T09:37:12.871Z</time></trkpt><trkpt lat="45.3445" lon="9.70072"><ele>70.0</ele><time>2026-03-29T09:37:14.871Z</time></trkpt><trkpt lat="45.3443767" lon="9.7007317"><ele>70.0</ele><time>2026-03-29T09:37:16.872Z</time></trkpt><trkpt lat="45.344255" lon="9.70073"><ele>70.0</ele><time>2026-03-29T09:37:18.871Z</time></trkpt><trkpt lat="45.34413" lon="9.700725"><ele>70.0</ele><time>2026-03-29T09:37:20.871Z</time></trkpt><trkpt lat="45.34401" lon="9.700715"><ele>70.0</ele><time>2026-03-29T09:37:22.871Z</time></trkpt><trkpt lat="45.3439433" lon="9.7007217"><ele>70.0</ele><time>2026-03-29T09:37:23.872Z</time></trkpt><trkpt lat="45.34388" lon="9.7007217"><ele>70.0</ele><time>2026-03-29T09:37:24.871Z</time></trkpt><trkpt lat="45.3438117" lon="9.7007233"><ele>70.0</ele><time>2026-03-29T09:37:25.872Z</time></trkpt><trkpt lat="45.3436867" lon="9.7007167"><ele>70.0</ele><time>2026-03-29T09:37:27.871Z</time></trkpt><trkpt lat="45.3436217" lon="9.7007217"><ele>70.0</ele><time>2026-03-29T09:37:28.871Z</time></trkpt><trkpt lat="45.3434967" lon="9.700725"><ele>70.0</ele><time>2026-03-29T09:37:30.871Z</time></trkpt><trkpt lat="45.3434333" lon="9.7007333"><ele>70.0</ele><time>2026-03-29T09:37:31.871Z</time></trkpt><trkpt lat="45.3433683" lon="9.700735"><ele>70.0</ele><time>2026-03-29T09:37:32.871Z</time></trkpt><trkpt lat="45.3432983" lon="9.700735"><ele>70.0</ele><time>2026-03-29T09:37:33.871Z</time></trkpt><trkpt lat="45.3432283" lon="9.7007283"><ele>70.0</ele><time>2026-03-29T09:37:34.871Z</time></trkpt><trkpt lat="45.3431633" lon="9.7007217"><ele>70.0</ele><time>2026-03-29T09:37:35.871Z</time></trkpt><trkpt lat="45.3430967" lon="9.7007167"><ele>70.0</ele><time>2026-03-29T09:37:36.872Z</time></trkpt><trkpt lat="45.3430333" lon="9.7007167"><ele>70.0</ele><time>2026-03-29T09:37:37.871Z</time></trkpt><trkpt lat="45.3429683" lon="9.70072"><ele>70.0</ele><time>2026-03-29T09:37:38.871Z</time></trkpt><trkpt lat="45.3429033" lon="9.7007233"><ele>70.14285714285714</ele><time>2026-03-29T09:37:39.871Z</time></trkpt><trkpt lat="45.3428367" lon="9.7007217"><ele>70.28571428571428</ele><time>2026-03-29T09:37:40.871Z</time></trkpt><trkpt lat="45.3427733" lon="9.700715"><ele>70.42857142857143</ele><time>2026-03-29T09:37:41.871Z</time></trkpt><trkpt lat="45.3427067" lon="9.700715"><ele>70.57142857142857</ele><time>2026-03-29T09:37:42.871Z</time></trkpt><trkpt lat="45.3426383" lon="9.700715"><ele>70.71428571428571</ele><time>2026-03-29T09:37:43.871Z</time></trkpt><trkpt lat="45.3425683" lon="9.7007167"><ele>70.85714285714286</ele><time>2026-03-29T09:37:44.871Z</time></trkpt><trkpt lat="45.3425033" lon="9.70072"><ele>71.0</ele><time>2026-03-29T09:37:45.871Z</time></trkpt><trkpt lat="45.342435" lon="9.7007217"><ele>71.0</ele><time>2026-03-29T09:37:46.871Z</time></trkpt><trkpt lat="45.3423633" lon="9.7007183"><ele>71.0</ele><time>2026-03-29T09:37:47.871Z</time></trkpt><trkpt lat="45.3422933" lon="9.7007217"><ele>71.0</ele><time>2026-03-29T09:37:48.872Z</time></trkpt><trkpt lat="45.342225" lon="9.700725"><ele>71.0</ele><time>2026-03-29T09:37:49.871Z</time></trkpt><trkpt lat="45.3421617" lon="9.7007217"><ele>71.0</ele><time>2026-03-29T09:37:50.871Z</time></trkpt><trkpt lat="45.3420317" lon="9.7007167"><ele>71.0</ele><time>2026-03-29T09:37:52.871Z</time></trkpt><trkpt lat="45.341965" lon="9.7007183"><ele>70.85714285714286</ele><time>2026-03-29T09:37:53.871Z</time></trkpt><trkpt lat="45.341895" lon="9.7007233"><ele>70.71428571428571</ele><time>2026-03-29T09:37:54.872Z</time></trkpt><trkpt lat="45.341825" lon="9.7007183"><ele>70.57142857142857</ele><time>2026-03-29T09:37:55.872Z</time></trkpt><trkpt lat="45.3417583" lon="9.700725"><ele>70.42857142857143</ele><time>2026-03-29T09:37:56.871Z</time></trkpt><trkpt lat="45.341695" lon="9.700725"><ele>70.28571428571428</ele><time>2026-03-29T09:37:57.871Z</time></trkpt><trkpt lat="45.3416283" lon="9.7007183"><ele>70.14285714285714</ele><time>2026-03-29T09:37:58.871Z</time></trkpt><trkpt lat="45.3415633" lon="9.700715"><ele>70.0</ele><time>2026-03-29T09:37:59.872Z</time></trkpt><trkpt lat="45.341495" lon="9.7007133"><ele>70.0</ele><time>2026-03-29T09:38:00.871Z</time></trkpt><trkpt lat="45.3414233" lon="9.7007117"><ele>70.0</ele><time>2026-03-29T09:38:01.871Z</time></trkpt><trkpt lat="45.3413533" lon="9.7007067"><ele>70.0</ele><time>2026-03-29T09:38:02.871Z</time></trkpt><trkpt lat="45.341285" lon="9.70071"><ele>70.0</ele><time>2026-03-29T09:38:03.871Z</time></trkpt><trkpt lat="45.3412167" lon="9.7007117"><ele>70.0</ele><time>2026-03-29T09:38:04.871Z</time></trkpt><trkpt lat="45.3411517" lon="9.7007167"><ele>70.0</ele><time>2026-03-29T09:38:05.871Z</time></trkpt><trkpt lat="45.3410817" lon="9.7007117"><ele>70.0</ele><time>2026-03-29T09:38:06.871Z</time></trkpt><trkpt lat="45.3410167" lon="9.700715"><ele>69.5</ele><time>2026-03-29T09:38:07.871Z</time></trkpt><trkpt lat="45.3409533" lon="9.7007183"><ele>69.0</ele><time>2026-03-29T09:38:08.871Z</time></trkpt><trkpt lat="45.3408283" lon="9.7007183"><ele>68.5</ele><time>2026-03-29T09:38:10.872Z</time></trkpt><trkpt lat="45.340765" lon="9.7007217"><ele>68.0</ele><time>2026-03-29T09:38:11.871Z</time></trkpt><trkpt lat="45.340695" lon="9.7007217"><ele>67.5</ele><time>2026-03-29T09:38:12.872Z</time></trkpt><trkpt lat="45.340625" lon="9.7007267"><ele>67.0</ele><time>2026-03-29T09:38:13.871Z</time></trkpt><trkpt lat="45.3405583" lon="9.7007267"><ele>67.0</ele><time>2026-03-29T09:38:14.871Z</time></trkpt><trkpt lat="45.3404867" lon="9.7007317"><ele>67.0</ele><time>2026-03-29T09:38:15.871Z</time></trkpt><trkpt lat="45.3404217" lon="9.7007367"><ele>67.0</ele><time>2026-03-29T09:38:16.871Z</time></trkpt><trkpt lat="45.3403567" lon="9.7007333"><ele>67.0</ele><time>2026-03-29T09:38:17.871Z</time></trkpt><trkpt lat="45.340285" lon="9.7007383"><ele>67.0</ele><time>2026-03-29T09:38:18.871Z</time></trkpt><trkpt lat="45.34022" lon="9.7007467"><ele>67.0</ele><time>2026-03-29T09:38:19.871Z</time></trkpt><trkpt lat="45.3401533" lon="9.7007433"><ele>67.0</ele><time>2026-03-29T09:38:20.871Z</time></trkpt><trkpt lat="45.340085" lon="9.7007483"><ele>67.0</ele><time>2026-03-29T09:38:21.871Z</time></trkpt><trkpt lat="45.3400183" lon="9.70075"><ele>67.0</ele><time>2026-03-29T09:38:22.871Z</time></trkpt><trkpt lat="45.3399483" lon="9.70075"><ele>67.0</ele><time>2026-03-29T09:38:23.872Z</time></trkpt><trkpt lat="45.3398833" lon="9.70076"><ele>67.0</ele><time>2026-03-29T09:38:24.871Z</time></trkpt><trkpt lat="45.3398167" lon="9.7007567"><ele>67.0</ele><time>2026-03-29T09:38:25.871Z</time></trkpt><trkpt lat="45.3397517" lon="9.70076"><ele>67.0</ele><time>2026-03-29T09:38:26.872Z</time></trkpt><trkpt lat="45.3396867" lon="9.700765"><ele>67.0</ele><time>2026-03-29T09:38:27.871Z</time></trkpt><trkpt lat="45.33962" lon="9.7007567"><ele>67.0</ele><time>2026-03-29T09:38:28.872Z</time></trkpt><trkpt lat="45.3395517" lon="9.7007517"><ele>67.0</ele><time>2026-03-29T09:38:29.871Z</time></trkpt><trkpt lat="45.3394883" lon="9.700755"><ele>67.0</ele><time>2026-03-29T09:38:30.871Z</time></trkpt><trkpt lat="45.3393667" lon="9.7007433"><ele>67.0</ele><time>2026-03-29T09:38:32.871Z</time></trkpt><trkpt lat="45.3392383" lon="9.70073"><ele>67.0</ele><time>2026-03-29T09:38:34.872Z</time></trkpt><trkpt lat="45.3391683" lon="9.700735"><ele>67.0</ele><time>2026-03-29T09:38:35.871Z</time></trkpt><trkpt lat="45.339045" lon="9.7007383"><ele>67.0</ele><time>2026-03-29T09:38:37.872Z</time></trkpt><trkpt lat="45.3389817" lon="9.7007367"><ele>67.0</ele><time>2026-03-29T09:38:38.871Z</time></trkpt><trkpt lat="45.3388567" lon="9.700745"><ele>67.0</ele><time>2026-03-29T09:38:40.872Z</time></trkpt><trkpt lat="45.3387917" lon="9.700745"><ele>67.0</ele><time>2026-03-29T09:38:41.871Z</time></trkpt><trkpt lat="45.338665" lon="9.7007367"><ele>67.0</ele><time>2026-03-29T09:38:43.871Z</time></trkpt><trkpt lat="45.3385967" lon="9.700745"><ele>67.0</ele><time>2026-03-29T09:38:44.871Z</time></trkpt><trkpt lat="45.3385333" lon="9.700745"><ele>67.0</ele><time>2026-03-29T09:38:45.872Z</time></trkpt><trkpt lat="45.3384083" lon="9.7007283"><ele>67.0</ele><time>2026-03-29T09:38:47.871Z</time></trkpt><trkpt lat="45.33829" lon="9.7007217"><ele>67.0</ele><time>2026-03-29T09:38:49.871Z</time></trkpt><trkpt lat="45.3381633" lon="9.700715"><ele>67.0</ele><time>2026-03-29T09:38:51.872Z</time></trkpt><trkpt lat="45.338095" lon="9.7007117"><ele>67.0</ele><time>2026-03-29T09:38:52.871Z</time></trkpt><trkpt lat="45.33797" lon="9.7007133"><ele>67.0</ele><time>2026-03-29T09:38:54.872Z</time></trkpt><trkpt lat="45.3379067" lon="9.700715"><ele>67.0</ele><time>2026-03-29T09:38:55.872Z</time></trkpt><trkpt lat="45.3378433" lon="9.7007117"><ele>67.0</ele><time>2026-03-29T09:38:56.872Z</time></trkpt><trkpt lat="45.3377183" lon="9.7007133"><ele>67.0</ele><time>2026-03-29T09:38:58.871Z</time></trkpt><trkpt lat="45.3376533" lon="9.7007133"><ele>67.14285714285714</ele><time>2026-03-29T09:38:59.871Z</time></trkpt><trkpt lat="45.337585" lon="9.7007167"><ele>67.28571428571428</ele><time>2026-03-29T09:39:00.871Z</time></trkpt><trkpt lat="45.337515" lon="9.70073"><ele>67.42857142857142</ele><time>2026-03-29T09:39:01.871Z</time></trkpt><trkpt lat="45.3374467" lon="9.7007467"><ele>67.57142857142857</ele><time>2026-03-29T09:39:02.871Z</time></trkpt><trkpt lat="45.3373783" lon="9.7007617"><ele>67.71428571428571</ele><time>2026-03-29T09:39:03.871Z</time></trkpt><trkpt lat="45.3373133" lon="9.7007867"><ele>67.85714285714285</ele><time>2026-03-29T09:39:04.871Z</time></trkpt><trkpt lat="45.3372483" lon="9.7008267"><ele>68.0</ele><time>2026-03-29T09:39:05.871Z</time></trkpt><trkpt lat="45.3371867" lon="9.70087"><ele>68.14285714285714</ele><time>2026-03-29T09:39:06.871Z</time></trkpt><trkpt lat="45.3371233" lon="9.7009133"><ele>68.28571428571428</ele><time>2026-03-29T09:39:07.871Z</time></trkpt><trkpt lat="45.3370617" lon="9.700955"><ele>68.42857142857143</ele><time>2026-03-29T09:39:08.872Z</time></trkpt><trkpt lat="45.3370033" lon="9.7009933"><ele>68.57142857142857</ele><time>2026-03-29T09:39:09.871Z</time></trkpt><trkpt lat="45.3369383" lon="9.701035"><ele>68.71428571428572</ele><time>2026-03-29T09:39:10.871Z</time></trkpt><trkpt lat="45.3368733" lon="9.7010783"><ele>68.85714285714286</ele><time>2026-03-29T09:39:11.872Z</time></trkpt><trkpt lat="45.33681" lon="9.70112"><ele>69.0</ele><time>2026-03-29T09:39:12.871Z</time></trkpt><trkpt lat="45.3367483" lon="9.7011583"><ele>69.0</ele><time>2026-03-29T09:39:13.871Z</time></trkpt><trkpt lat="45.3366867" lon="9.7012017"><ele>69.0</ele><time>2026-03-29T09:39:14.871Z</time></trkpt><trkpt lat="45.336625" lon="9.7012383"><ele>69.0</ele><time>2026-03-29T09:39:15.871Z</time></trkpt><trkpt lat="45.3365067" lon="9.7013117"><ele>69.0</ele><time>2026-03-29T09:39:17.871Z</time></trkpt><trkpt lat="45.3364433" lon="9.7013383"><ele>69.0</ele><time>2026-03-29T09:39:18.871Z</time></trkpt><trkpt lat="45.3363767" lon="9.701365"><ele>69.0</ele><time>2026-03-29T09:39:19.871Z</time></trkpt><trkpt lat="45.3363033" lon="9.7013833"><ele>69.4</ele><time>2026-03-29T09:39:20.871Z</time></trkpt><trkpt lat="45.33624" lon="9.7014067"><ele>69.80000000000001</ele><time>2026-03-29T09:39:21.871Z</time></trkpt><trkpt lat="45.3361717" lon="9.7014267"><ele>70.19999999999999</ele><time>2026-03-29T09:39:22.871Z</time></trkpt><trkpt lat="45.3360533" lon="9.701465"><ele>70.6</ele><time>2026-03-29T09:39:24.871Z</time></trkpt><trkpt lat="45.33594" lon="9.7015433"><ele>71.0</ele><time>2026-03-29T09:39:26.872Z</time></trkpt><trkpt lat="45.3358333" lon="9.70163"><ele>71.0</ele><time>2026-03-29T09:39:28.871Z</time></trkpt><trkpt lat="45.33574" lon="9.701735"><ele>71.0</ele><time>2026-03-29T09:39:30.872Z</time></trkpt><trkpt lat="45.3356633" lon="9.70185"><ele>71.0</ele><time>2026-03-29T09:39:32.871Z</time></trkpt><trkpt lat="45.3356017" lon="9.7019867"><ele>71.0</ele><time>2026-03-29T09:39:34.871Z</time></trkpt><trkpt lat="45.33557" lon="9.7021267"><ele>71.0</ele><time>2026-03-29T09:39:36.871Z</time></trkpt><trkpt lat="45.33557" lon="9.7022783"><ele>71.0</ele><time>2026-03-29T09:39:38.871Z</time></trkpt><trkpt lat="45.335565" lon="9.7024383"><ele>71.0</ele><time>2026-03-29T09:39:40.871Z</time></trkpt><trkpt lat="45.335565" lon="9.70258"><ele>71.0</ele><time>2026-03-29T09:39:42.871Z</time></trkpt><trkpt lat="45.335575" lon="9.70273"><ele>71.0</ele><time>2026-03-29T09:39:44.871Z</time></trkpt><trkpt lat="45.3356083" lon="9.7028567"><ele>71.0</ele><time>2026-03-29T09:39:46.872Z</time></trkpt><trkpt lat="45.3356283" lon="9.7030017"><ele>70.6</ele><time>2026-03-29T09:39:48.871Z</time></trkpt><trkpt lat="45.33564" lon="9.7031467"><ele>70.19999999999999</ele><time>2026-03-29T09:39:50.871Z</time></trkpt><trkpt lat="45.3356633" lon="9.70329"><ele>69.80000000000001</ele><time>2026-03-29T09:39:52.872Z</time></trkpt><trkpt lat="45.3356983" lon="9.703425"><ele>69.4</ele><time>2026-03-29T09:39:54.871Z</time></trkpt><trkpt lat="45.335725" lon="9.7035583"><ele>69.0</ele><time>2026-03-29T09:39:56.871Z</time></trkpt><trkpt lat="45.33575" lon="9.7036883"><ele>68.60000000000001</ele><time>2026-03-29T09:39:58.871Z</time></trkpt><trkpt lat="45.3357833" lon="9.7038167"><ele>68.2</ele><time>2026-03-29T09:40:00.871Z</time></trkpt><trkpt lat="45.3358433" lon="9.7039483"><ele>67.80000000000001</ele><time>2026-03-29T09:40:02.872Z</time></trkpt><trkpt lat="45.3359117" lon="9.7040883"><ele>67.4</ele><time>2026-03-29T09:40:04.872Z</time></trkpt><trkpt lat="45.33598" lon="9.70423"><ele>67.0</ele><time>2026-03-29T09:40:06.871Z</time></trkpt><trkpt lat="45.3360383" lon="9.7043767"><ele>67.0</ele><time>2026-03-29T09:40:08.871Z</time></trkpt><trkpt lat="45.3360983" lon="9.70451"><ele>67.0</ele><time>2026-03-29T09:40:10.871Z</time></trkpt><trkpt lat="45.3361667" lon="9.7046417"><ele>67.0</ele><time>2026-03-29T09:40:12.871Z</time></trkpt><trkpt lat="45.3362483" lon="9.7047367"><ele>67.0</ele><time>2026-03-29T09:40:14.871Z</time></trkpt><trkpt lat="45.336325" lon="9.704835"><ele>67.0</ele><time>2026-03-29T09:40:16.871Z</time></trkpt><trkpt lat="45.3364" lon="9.7049217"><ele>66.75</ele><time>2026-03-29T09:40:18.872Z</time></trkpt><trkpt lat="45.336485" lon="9.7050067"><ele>66.5</ele><time>2026-03-29T09:40:20.871Z</time></trkpt><trkpt lat="45.3365733" lon="9.7051067"><ele>66.25</ele><time>2026-03-29T09:40:22.871Z</time></trkpt><trkpt lat="45.3366533" lon="9.705225"><ele>66.0</ele><time>2026-03-29T09:40:24.871Z</time></trkpt><trkpt lat="45.33674" lon="9.70535"><ele>65.6</ele><time>2026-03-29T09:40:26.871Z</time></trkpt><trkpt lat="45.3368283" lon="9.7054733"><ele>65.19999999999999</ele><time>2026-03-29T09:40:28.872Z</time></trkpt><trkpt lat="45.3369133" lon="9.7055917"><ele>64.80000000000001</ele><time>2026-03-29T09:40:30.871Z</time></trkpt><trkpt lat="45.337005" lon="9.7057083"><ele>64.4</ele><time>2026-03-29T09:40:32.871Z</time></trkpt><trkpt lat="45.3370533" lon="9.7057667"><ele>64.0</ele><time>2026-03-29T09:40:33.871Z</time></trkpt><trkpt lat="45.3371017" lon="9.70583"><ele>64.0</ele><time>2026-03-29T09:40:34.871Z</time></trkpt><trkpt lat="45.337145" lon="9.7059033"><ele>63.99999999999999</ele><time>2026-03-29T09:40:35.872Z</time></trkpt><trkpt lat="45.33719" lon="9.7059783"><ele>64.0</ele><time>2026-03-29T09:40:36.871Z</time></trkpt><trkpt lat="45.3372333" lon="9.7060483"><ele>64.0</ele><time>2026-03-29T09:40:37.872Z</time></trkpt><trkpt lat="45.3372733" lon="9.70613"><ele>63.99999999999999</ele><time>2026-03-29T09:40:38.871Z</time></trkpt><trkpt lat="45.3373067" lon="9.7062183"><ele>64.0</ele><time>2026-03-29T09:40:39.871Z</time></trkpt><trkpt lat="45.3373317" lon="9.7063083"><ele>64.0</ele><time>2026-03-29T09:40:40.871Z</time></trkpt><trkpt lat="45.3373567" lon="9.706405"><ele>64.14285714285714</ele><time>2026-03-29T09:40:41.872Z</time></trkpt><trkpt lat="45.3373783" lon="9.706505"><ele>64.28571428571428</ele><time>2026-03-29T09:40:42.871Z</time></trkpt><trkpt lat="45.3374017" lon="9.706605"><ele>64.42857142857143</ele><time>2026-03-29T09:40:43.872Z</time></trkpt><trkpt lat="45.337425" lon="9.7066983"><ele>64.57142857142857</ele><time>2026-03-29T09:40:44.871Z</time></trkpt><trkpt lat="45.3374517" lon="9.7067967"><ele>64.71428571428572</ele><time>2026-03-29T09:40:45.871Z</time></trkpt><trkpt lat="45.33748" lon="9.70689"><ele>64.85714285714286</ele><time>2026-03-29T09:40:46.872Z</time></trkpt><trkpt lat="45.3375067" lon="9.706985"><ele>65.0</ele><time>2026-03-29T09:40:47.87Z</time></trkpt><trkpt lat="45.3375333" lon="9.7070817"><ele>65.00000000000001</ele><time>2026-03-29T09:40:48.87Z</time></trkpt><trkpt lat="45.3375617" lon="9.707175"><ele>65.0</ele><time>2026-03-29T09:40:49.87Z</time></trkpt><trkpt lat="45.3375883" lon="9.70727"><ele>65.0</ele><time>2026-03-29T09:40:50.87Z</time></trkpt><trkpt lat="45.3376117" lon="9.7073633"><ele>65.0</ele><time>2026-03-29T09:40:51.871Z</time></trkpt><trkpt lat="45.3376367" lon="9.7074567"><ele>65.0</ele><time>2026-03-29T09:40:52.87Z</time></trkpt><trkpt lat="45.3376633" lon="9.7075467"><ele>65.00000000000001</ele><time>2026-03-29T09:40:53.87Z</time></trkpt><trkpt lat="45.3376883" lon="9.7076417"><ele>65.0</ele><time>2026-03-29T09:40:54.87Z</time></trkpt><trkpt lat="45.337715" lon="9.707735"><ele>65.14285714285715</ele><time>2026-03-29T09:40:55.871Z</time></trkpt><trkpt lat="45.3377383" lon="9.7078267"><ele>65.28571428571429</ele><time>2026-03-29T09:40:56.87Z</time></trkpt><trkpt lat="45.337765" lon="9.7079233"><ele>65.42857142857143</ele><time>2026-03-29T09:40:57.87Z</time></trkpt><trkpt lat="45.3377933" lon="9.708015"><ele>65.57142857142858</ele><time>2026-03-29T09:40:58.87Z</time></trkpt><trkpt lat="45.3378167" lon="9.7081067"><ele>65.71428571428572</ele><time>2026-03-29T09:40:59.871Z</time></trkpt><trkpt lat="45.337845" lon="9.7082"><ele>65.85714285714286</ele><time>2026-03-29T09:41:00.87Z</time></trkpt><trkpt lat="45.3378683" lon="9.70829"><ele>66.0</ele><time>2026-03-29T09:41:01.87Z</time></trkpt><trkpt lat="45.3378933" lon="9.708385"><ele>66.0</ele><time>2026-03-29T09:41:02.87Z</time></trkpt><trkpt lat="45.3379217" lon="9.7084767"><ele>66.0</ele><time>2026-03-29T09:41:03.87Z</time></trkpt><trkpt lat="45.3379467" lon="9.7085683"><ele>66.0</ele><time>2026-03-29T09:41:04.87Z</time></trkpt><trkpt lat="45.3379733" lon="9.7086633"><ele>66.0</ele><time>2026-03-29T09:41:05.87Z</time></trkpt><trkpt lat="45.338" lon="9.708755"><ele>66.0</ele><time>2026-03-29T09:41:06.87Z</time></trkpt><trkpt lat="45.3380267" lon="9.70885"><ele>66.0</ele><time>2026-03-29T09:41:07.87Z</time></trkpt><trkpt lat="45.338055" lon="9.7089467"><ele>66.0</ele><time>2026-03-29T09:41:08.871Z</time></trkpt><trkpt lat="45.3380783" lon="9.7090383"><ele>65.85714285714286</ele><time>2026-03-29T09:41:09.87Z</time></trkpt><trkpt lat="45.338105" lon="9.7091283"><ele>65.71428571428572</ele><time>2026-03-29T09:41:10.87Z</time></trkpt><trkpt lat="45.3381267" lon="9.70922"><ele>65.57142857142858</ele><time>2026-03-29T09:41:11.871Z</time></trkpt><trkpt lat="45.3381533" lon="9.7093117"><ele>65.42857142857143</ele><time>2026-03-29T09:41:12.87Z</time></trkpt><trkpt lat="45.33818" lon="9.7094067"><ele>65.28571428571429</ele><time>2026-03-29T09:41:13.87Z</time></trkpt><trkpt lat="45.3382067" lon="9.7095067"><ele>65.14285714285715</ele><time>2026-03-29T09:41:14.87Z</time></trkpt><trkpt lat="45.3382317" lon="9.7095983"><ele>65.0</ele><time>2026-03-29T09:41:15.871Z</time></trkpt><trkpt lat="45.3382617" lon="9.7096933"><ele>65.00000000000001</ele><time>2026-03-29T09:41:16.87Z</time></trkpt><trkpt lat="45.3382867" lon="9.70979"><ele>65.0</ele><time>2026-03-29T09:41:17.87Z</time></trkpt><trkpt lat="45.3383183" lon="9.7098867"><ele>65.0</ele><time>2026-03-29T09:41:18.87Z</time></trkpt><trkpt lat="45.3383467" lon="9.709985"><ele>65.0</ele><time>2026-03-29T09:41:19.87Z</time></trkpt><trkpt lat="45.3383717" lon="9.7100817"><ele>65.0</ele><time>2026-03-29T09:41:20.87Z</time></trkpt><trkpt lat="45.3384" lon="9.710175"><ele>65.00000000000001</ele><time>2026-03-29T09:41:21.87Z</time></trkpt><trkpt lat="45.338425" lon="9.7102667"><ele>65.0</ele><time>2026-03-29T09:41:22.87Z</time></trkpt><trkpt lat="45.3384533" lon="9.7103617"><ele>65.14285714285715</ele><time>2026-03-29T09:41:23.87Z</time></trkpt><trkpt lat="45.3384783" lon="9.7104567"><ele>65.28571428571429</ele><time>2026-03-29T09:41:24.87Z</time></trkpt><trkpt lat="45.3385083" lon="9.71055"><ele>65.42857142857143</ele><time>2026-03-29T09:41:25.87Z</time></trkpt><trkpt lat="45.3385383" lon="9.7106383"><ele>65.57142857142858</ele><time>2026-03-29T09:41:26.87Z</time></trkpt><trkpt lat="45.3385767" lon="9.7107333"><ele>65.71428571428572</ele><time>2026-03-29T09:41:27.87Z</time></trkpt><trkpt lat="45.3386183" lon="9.7108167"><ele>65.85714285714286</ele><time>2026-03-29T09:41:28.87Z</time></trkpt><trkpt lat="45.3386633" lon="9.7108983"><ele>66.0</ele><time>2026-03-29T09:41:29.87Z</time></trkpt><trkpt lat="45.33871" lon="9.7109767"><ele>66.0</ele><time>2026-03-29T09:41:30.87Z</time></trkpt><trkpt lat="45.3387567" lon="9.71105"><ele>66.0</ele><time>2026-03-29T09:41:31.87Z</time></trkpt><trkpt lat="45.3388017" lon="9.7111283"><ele>66.0</ele><time>2026-03-29T09:41:32.87Z</time></trkpt><trkpt lat="45.33885" lon="9.711205"><ele>66.0</ele><time>2026-03-29T09:41:33.87Z</time></trkpt><trkpt lat="45.3388967" lon="9.7112883"><ele>66.0</ele><time>2026-03-29T09:41:34.871Z</time></trkpt><trkpt lat="45.3389417" lon="9.71137"><ele>66.0</ele><time>2026-03-29T09:41:35.871Z</time></trkpt><trkpt lat="45.3389883" lon="9.7114467"><ele>66.0</ele><time>2026-03-29T09:41:36.87Z</time></trkpt><trkpt lat="45.339035" lon="9.7115183"><ele>66.0</ele><time>2026-03-29T09:41:37.87Z</time></trkpt><trkpt lat="45.3390867" lon="9.711595"><ele>66.0</ele><time>2026-03-29T09:41:38.87Z</time></trkpt><trkpt lat="45.339135" lon="9.71167"><ele>66.0</ele><time>2026-03-29T09:41:39.87Z</time></trkpt><trkpt lat="45.3391817" lon="9.7117467"><ele>66.0</ele><time>2026-03-29T09:41:40.87Z</time></trkpt><trkpt lat="45.33923" lon="9.711825"><ele>66.0</ele><time>2026-03-29T09:41:41.87Z</time></trkpt><trkpt lat="45.3392767" lon="9.7119"><ele>66.0</ele><time>2026-03-29T09:41:42.87Z</time></trkpt><trkpt lat="45.339325" lon="9.7119767"><ele>66.0</ele><time>2026-03-29T09:41:43.871Z</time></trkpt><trkpt lat="45.339375" lon="9.7120517"><ele>66.0</ele><time>2026-03-29T09:41:44.87Z</time></trkpt><trkpt lat="45.3394233" lon="9.71213"><ele>66.0</ele><time>2026-03-29T09:41:45.87Z</time></trkpt><trkpt lat="45.339475" lon="9.7122067"><ele>66.0</ele><time>2026-03-29T09:41:46.87Z</time></trkpt><trkpt lat="45.3395317" lon="9.7122767"><ele>66.0</ele><time>2026-03-29T09:41:47.87Z</time></trkpt><trkpt lat="45.3395917" lon="9.7123417"><ele>66.0</ele><time>2026-03-29T09:41:48.871Z</time></trkpt><trkpt lat="45.3396483" lon="9.7123983"><ele>66.0</ele><time>2026-03-29T09:41:49.87Z</time></trkpt><trkpt lat="45.339715" lon="9.7124433"><ele>66.0</ele><time>2026-03-29T09:41:50.87Z</time></trkpt><trkpt lat="45.339785" lon="9.7124883"><ele>66.0</ele><time>2026-03-29T09:41:51.87Z</time></trkpt><trkpt lat="45.3398533" lon="9.7125333"><ele>66.0</ele><time>2026-03-29T09:41:52.87Z</time></trkpt><trkpt lat="45.339925" lon="9.712575"><ele>66.0</ele><time>2026-03-29T09:41:53.87Z</time></trkpt><trkpt lat="45.339995" lon="9.712615"><ele>66.0</ele><time>2026-03-29T09:41:54.87Z</time></trkpt><trkpt lat="45.3400583" lon="9.712655"><ele>66.0</ele><time>2026-03-29T09:41:55.87Z</time></trkpt><trkpt lat="45.340125" lon="9.7127"><ele>66.0</ele><time>2026-03-29T09:41:56.87Z</time></trkpt><trkpt lat="45.340185" lon="9.71274"><ele>66.0</ele><time>2026-03-29T09:41:57.87Z</time></trkpt><trkpt lat="45.3402467" lon="9.7127783"><ele>65.71428571428571</ele><time>2026-03-29T09:41:58.87Z</time></trkpt><trkpt lat="45.340315" lon="9.7128183"><ele>65.42857142857143</ele><time>2026-03-29T09:41:59.87Z</time></trkpt><trkpt lat="45.34038" lon="9.71286"><ele>65.14285714285714</ele><time>2026-03-29T09:42:00.87Z</time></trkpt><trkpt lat="45.3404367" lon="9.7129183"><ele>64.85714285714286</ele><time>2026-03-29T09:42:01.87Z</time></trkpt><trkpt lat="45.3404983" lon="9.7129767"><ele>64.57142857142857</ele><time>2026-03-29T09:42:02.87Z</time></trkpt><trkpt lat="45.3405483" lon="9.7130383"><ele>64.28571428571428</ele><time>2026-03-29T09:42:03.87Z</time></trkpt><trkpt lat="45.3405867" lon="9.713115"><ele>64.0</ele><time>2026-03-29T09:42:04.87Z</time></trkpt><trkpt lat="45.34063" lon="9.7131933"><ele>64.0</ele><time>2026-03-29T09:42:05.87Z</time></trkpt><trkpt lat="45.3406667" lon="9.7132783"><ele>63.99999999999999</ele><time>2026-03-29T09:42:06.871Z</time></trkpt><trkpt lat="45.340705" lon="9.71337"><ele>64.0</ele><time>2026-03-29T09:42:07.87Z</time></trkpt><trkpt lat="45.3407433" lon="9.7134583"><ele>64.0</ele><time>2026-03-29T09:42:08.87Z</time></trkpt><trkpt lat="45.3407733" lon="9.7135483"><ele>63.99999999999999</ele><time>2026-03-29T09:42:09.87Z</time></trkpt><trkpt lat="45.3407883" lon="9.71364"><ele>64.0</ele><time>2026-03-29T09:42:10.87Z</time></trkpt><trkpt lat="45.3408017" lon="9.71373"><ele>64.0</ele><time>2026-03-29T09:42:11.871Z</time></trkpt><trkpt lat="45.3408217" lon="9.7138183"><ele>64.14285714285714</ele><time>2026-03-29T09:42:12.871Z</time></trkpt><trkpt lat="45.3408533" lon="9.7139867"><ele>64.28571428571428</ele><time>2026-03-29T09:42:14.87Z</time></trkpt><trkpt lat="45.340875" lon="9.7140717"><ele>64.42857142857143</ele><time>2026-03-29T09:42:15.87Z</time></trkpt><trkpt lat="45.3408983" lon="9.7141583"><ele>64.57142857142857</ele><time>2026-03-29T09:42:16.871Z</time></trkpt><trkpt lat="45.3409233" lon="9.7142433"><ele>64.71428571428572</ele><time>2026-03-29T09:42:17.87Z</time></trkpt><trkpt lat="45.3409483" lon="9.7143317"><ele>64.85714285714286</ele><time>2026-03-29T09:42:18.87Z</time></trkpt><trkpt lat="45.3409683" lon="9.7144167"><ele>65.0</ele><time>2026-03-29T09:42:19.87Z</time></trkpt><trkpt lat="45.3409933" lon="9.7145"><ele>65.28571428571429</ele><time>2026-03-29T09:42:20.87Z</time></trkpt><trkpt lat="45.34102" lon="9.7145917"><ele>65.57142857142857</ele><time>2026-03-29T09:42:21.87Z</time></trkpt><trkpt lat="45.3410433" lon="9.7146783"><ele>65.85714285714286</ele><time>2026-03-29T09:42:22.87Z</time></trkpt><trkpt lat="45.34107" lon="9.7147633"><ele>66.14285714285714</ele><time>2026-03-29T09:42:23.87Z</time></trkpt><trkpt lat="45.3410933" lon="9.7148483"><ele>66.42857142857143</ele><time>2026-03-29T09:42:24.87Z</time></trkpt><trkpt lat="45.34112" lon="9.7149383"><ele>66.71428571428572</ele><time>2026-03-29T09:42:25.87Z</time></trkpt><trkpt lat="45.3411333" lon="9.7150267"><ele>67.0</ele><time>2026-03-29T09:42:26.87Z</time></trkpt><trkpt lat="45.3411533" lon="9.7151183"><ele>67.0</ele><time>2026-03-29T09:42:27.871Z</time></trkpt><trkpt lat="45.3411733" lon="9.7152133"><ele>67.0</ele><time>2026-03-29T09:42:28.87Z</time></trkpt><trkpt lat="45.3411917" lon="9.7153067"><ele>67.0</ele><time>2026-03-29T09:42:29.871Z</time></trkpt><trkpt lat="45.3412167" lon="9.7154033"><ele>67.0</ele><time>2026-03-29T09:42:30.871Z</time></trkpt><trkpt lat="45.3412333" lon="9.715495"><ele>67.0</ele><time>2026-03-29T09:42:31.87Z</time></trkpt><trkpt lat="45.3412583" lon="9.7155867"><ele>67.0</ele><time>2026-03-29T09:42:32.87Z</time></trkpt><trkpt lat="45.341285" lon="9.715765"><ele>67.14285714285714</ele><time>2026-03-29T09:42:34.87Z</time></trkpt><trkpt lat="45.3413033" lon="9.71586"><ele>67.28571428571428</ele><time>2026-03-29T09:42:35.871Z</time></trkpt><trkpt lat="45.3413217" lon="9.71595"><ele>67.42857142857142</ele><time>2026-03-29T09:42:36.87Z</time></trkpt><trkpt lat="45.34134" lon="9.7160383"><ele>67.57142857142857</ele><time>2026-03-29T09:42:37.87Z</time></trkpt><trkpt lat="45.3413567" lon="9.7161283"><ele>67.71428571428571</ele><time>2026-03-29T09:42:38.87Z</time></trkpt><trkpt lat="45.34138" lon="9.7162133"><ele>67.85714285714285</ele><time>2026-03-29T09:42:39.871Z</time></trkpt><trkpt lat="45.3414017" lon="9.7163033"><ele>68.0</ele><time>2026-03-29T09:42:40.87Z</time></trkpt><trkpt lat="45.34142" lon="9.7163933"><ele>67.99999999999999</ele><time>2026-03-29T09:42:41.87Z</time></trkpt><trkpt lat="45.3414417" lon="9.7164833"><ele>68.0</ele><time>2026-03-29T09:42:42.87Z</time></trkpt><trkpt lat="45.3414683" lon="9.7165733"><ele>68.0</ele><time>2026-03-29T09:42:43.87Z</time></trkpt><trkpt lat="45.341495" lon="9.7166633"><ele>68.0</ele><time>2026-03-29T09:42:44.87Z</time></trkpt><trkpt lat="45.3415167" lon="9.7167583"><ele>68.0</ele><time>2026-03-29T09:42:45.871Z</time></trkpt><trkpt lat="45.34155" lon="9.71685"><ele>67.99999999999999</ele><time>2026-03-29T09:42:46.871Z</time></trkpt><trkpt lat="45.3415883" lon="9.7169383"><ele>68.0</ele><time>2026-03-29T09:42:47.87Z</time></trkpt><trkpt lat="45.3416117" lon="9.717025"><ele>68.0</ele><time>2026-03-29T09:42:48.871Z</time></trkpt><trkpt lat="45.341665" lon="9.7171833"><ele>68.0</ele><time>2026-03-29T09:42:50.871Z</time></trkpt><trkpt lat="45.3416967" lon="9.7172617"><ele>68.0</ele><time>2026-03-29T09:42:51.87Z</time></trkpt><trkpt lat="45.3417317" lon="9.7173433"><ele>68.0</ele><time>2026-03-29T09:42:52.87Z</time></trkpt><trkpt lat="45.3417683" lon="9.7174283"><ele>68.0</ele><time>2026-03-29T09:42:53.87Z</time></trkpt><trkpt lat="45.3418033" lon="9.7175083"><ele>68.0</ele><time>2026-03-29T09:42:54.871Z</time></trkpt><trkpt lat="45.3418383" lon="9.7175917"><ele>67.99999999999999</ele><time>2026-03-29T09:42:55.87Z</time></trkpt><trkpt lat="45.341875" lon="9.71767"><ele>68.0</ele><time>2026-03-29T09:42:56.87Z</time></trkpt><trkpt lat="45.34191" lon="9.7177517"><ele>68.0</ele><time>2026-03-29T09:42:57.87Z</time></trkpt><trkpt lat="45.3419417" lon="9.7178333"><ele>68.0</ele><time>2026-03-29T09:42:58.87Z</time></trkpt><trkpt lat="45.3419767" lon="9.7179217"><ele>68.0</ele><time>2026-03-29T09:42:59.87Z</time></trkpt><trkpt lat="45.34201" lon="9.7180017"><ele>67.99999999999999</ele><time>2026-03-29T09:43:00.87Z</time></trkpt><trkpt lat="45.34204" lon="9.7180917"><ele>68.0</ele><time>2026-03-29T09:43:01.87Z</time></trkpt><trkpt lat="45.3420683" lon="9.7181767"><ele>67.99999999999999</ele><time>2026-03-29T09:43:02.87Z</time></trkpt><trkpt lat="45.3420983" lon="9.71826"><ele>68.0</ele><time>2026-03-29T09:43:03.87Z</time></trkpt><trkpt lat="45.34213" lon="9.7183433"><ele>68.0</ele><time>2026-03-29T09:43:04.87Z</time></trkpt><trkpt lat="45.3421617" lon="9.7184267"><ele>68.0</ele><time>2026-03-29T09:43:05.87Z</time></trkpt><trkpt lat="45.3421917" lon="9.7185133"><ele>68.0</ele><time>2026-03-29T09:43:06.87Z</time></trkpt><trkpt lat="45.3422267" lon="9.7185983"><ele>67.99999999999999</ele><time>2026-03-29T09:43:07.87Z</time></trkpt><trkpt lat="45.3422567" lon="9.7186833"><ele>68.0</ele><time>2026-03-29T09:43:08.871Z</time></trkpt><trkpt lat="45.3423083" lon="9.718825"><ele>68.0</ele><time>2026-03-29T09:43:10.87Z</time></trkpt><trkpt lat="45.3423633" lon="9.7189867"><ele>68.0</ele><time>2026-03-29T09:43:12.87Z</time></trkpt><trkpt lat="45.342385" lon="9.719075"><ele>68.0</ele><time>2026-03-29T09:43:13.87Z</time></trkpt><trkpt lat="45.3424117" lon="9.7191667"><ele>68.0</ele><time>2026-03-29T09:43:14.87Z</time></trkpt><trkpt lat="45.3424317" lon="9.719255"><ele>68.0</ele><time>2026-03-29T09:43:15.87Z</time></trkpt><trkpt lat="45.34246" lon="9.719345"><ele>68.0</ele><time>2026-03-29T09:43:16.87Z</time></trkpt><trkpt lat="45.3424867" lon="9.7194283"><ele>68.14285714285714</ele><time>2026-03-29T09:43:17.87Z</time></trkpt><trkpt lat="45.34252" lon="9.7195167"><ele>68.28571428571428</ele><time>2026-03-29T09:43:18.87Z</time></trkpt><trkpt lat="45.3425517" lon="9.7196083"><ele>68.42857142857143</ele><time>2026-03-29T09:43:19.87Z</time></trkpt><trkpt lat="45.342575" lon="9.7196983"><ele>68.57142857142857</ele><time>2026-03-29T09:43:20.87Z</time></trkpt><trkpt lat="45.3426" lon="9.7197917"><ele>68.71428571428572</ele><time>2026-03-29T09:43:21.87Z</time></trkpt><trkpt lat="45.342625" lon="9.7198817"><ele>68.85714285714286</ele><time>2026-03-29T09:43:22.87Z</time></trkpt><trkpt lat="45.3426483" lon="9.7199767"><ele>69.0</ele><time>2026-03-29T09:43:23.87Z</time></trkpt><trkpt lat="45.3426817" lon="9.7200667"><ele>69.0</ele><time>2026-03-29T09:43:24.87Z</time></trkpt><trkpt lat="45.342705" lon="9.720155"><ele>69.0</ele><time>2026-03-29T09:43:25.87Z</time></trkpt><trkpt lat="45.3427267" lon="9.7202417"><ele>69.0</ele><time>2026-03-29T09:43:26.871Z</time></trkpt><trkpt lat="45.34275" lon="9.7203333"><ele>69.0</ele><time>2026-03-29T09:43:27.87Z</time></trkpt><trkpt lat="45.3427683" lon="9.7204333"><ele>69.0</ele><time>2026-03-29T09:43:28.87Z</time></trkpt><trkpt lat="45.3427817" lon="9.7205283"><ele>69.0</ele><time>2026-03-29T09:43:29.87Z</time></trkpt><trkpt lat="45.342795" lon="9.72062"><ele>69.0</ele><time>2026-03-29T09:43:30.87Z</time></trkpt><trkpt lat="45.34281" lon="9.7207083"><ele>69.0</ele><time>2026-03-29T09:43:31.87Z</time></trkpt><trkpt lat="45.3428233" lon="9.7208017"><ele>69.0</ele><time>2026-03-29T09:43:32.87Z</time></trkpt><trkpt lat="45.3428383" lon="9.7208983"><ele>69.0</ele><time>2026-03-29T09:43:33.87Z</time></trkpt><trkpt lat="45.3428517" lon="9.7209967"><ele>69.0</ele><time>2026-03-29T09:43:34.87Z</time></trkpt><trkpt lat="45.3428683" lon="9.721085"><ele>69.0</ele><time>2026-03-29T09:43:35.87Z</time></trkpt><trkpt lat="45.3428983" lon="9.7212583"><ele>69.0</ele><time>2026-03-29T09:43:37.871Z</time></trkpt><trkpt lat="45.3429167" lon="9.72135"><ele>69.0</ele><time>2026-03-29T09:43:38.871Z</time></trkpt><trkpt lat="45.34293" lon="9.7214417"><ele>69.0</ele><time>2026-03-29T09:43:39.87Z</time></trkpt><trkpt lat="45.34294" lon="9.7215383"><ele>69.0</ele><time>2026-03-29T09:43:40.87Z</time></trkpt><trkpt lat="45.3429633" lon="9.7217217"><ele>69.0</ele><time>2026-03-29T09:43:42.87Z</time></trkpt><trkpt lat="45.3429733" lon="9.7218133"><ele>69.0</ele><time>2026-03-29T09:43:43.87Z</time></trkpt><trkpt lat="45.3429817" lon="9.7219083"><ele>69.0</ele><time>2026-03-29T09:43:44.87Z</time></trkpt><trkpt lat="45.342995" lon="9.7219983"><ele>69.0</ele><time>2026-03-29T09:43:45.87Z</time></trkpt><trkpt lat="45.343015" lon="9.7220917"><ele>69.0</ele><time>2026-03-29T09:43:46.87Z</time></trkpt><trkpt lat="45.3430267" lon="9.7221867"><ele>69.0</ele><time>2026-03-29T09:43:47.87Z</time></trkpt><trkpt lat="45.34304" lon="9.722285"><ele>69.0</ele><time>2026-03-29T09:43:48.87Z</time></trkpt><trkpt lat="45.3430517" lon="9.72238"><ele>69.0</ele><time>2026-03-29T09:43:49.87Z</time></trkpt><trkpt lat="45.3430567" lon="9.7224733"><ele>69.0</ele><time>2026-03-29T09:43:50.87Z</time></trkpt><trkpt lat="45.3430633" lon="9.7225667"><ele>69.0</ele><time>2026-03-29T09:43:51.87Z</time></trkpt><trkpt lat="45.34307" lon="9.7226633"><ele>68.8</ele><time>2026-03-29T09:43:52.87Z</time></trkpt><trkpt lat="45.3430767" lon="9.7227583"><ele>68.60000000000001</ele><time>2026-03-29T09:43:53.87Z</time></trkpt><trkpt lat="45.3430783" lon="9.72285"><ele>68.4</ele><time>2026-03-29T09:43:54.87Z</time></trkpt><trkpt lat="45.3430767" lon="9.723025"><ele>68.2</ele><time>2026-03-29T09:43:56.87Z</time></trkpt><trkpt lat="45.34307" lon="9.7231867"><ele>68.0</ele><time>2026-03-29T09:43:58.87Z</time></trkpt><trkpt lat="45.34305" lon="9.72335"><ele>68.0</ele><time>2026-03-29T09:44:00.87Z</time></trkpt><trkpt lat="45.3430383" lon="9.72351"><ele>68.0</ele><time>2026-03-29T09:44:02.871Z</time></trkpt><trkpt lat="45.3430217" lon="9.7236667"><ele>68.0</ele><time>2026-03-29T09:44:04.87Z</time></trkpt><trkpt lat="45.34301" lon="9.72382"><ele>68.0</ele><time>2026-03-29T09:44:06.87Z</time></trkpt><trkpt lat="45.3430017" lon="9.7239833"><ele>68.0</ele><time>2026-03-29T09:44:08.87Z</time></trkpt><trkpt lat="45.3429783" lon="9.7241417"><ele>68.2</ele><time>2026-03-29T09:44:10.87Z</time></trkpt><trkpt lat="45.34297" lon="9.724305"><ele>68.4</ele><time>2026-03-29T09:44:12.87Z</time></trkpt><trkpt lat="45.342965" lon="9.7244667"><ele>68.60000000000001</ele><time>2026-03-29T09:44:14.87Z</time></trkpt><trkpt lat="45.342975" lon="9.7246217"><ele>68.8</ele><time>2026-03-29T09:44:16.87Z</time></trkpt><trkpt lat="45.3429917" lon="9.7247767"><ele>69.0</ele><time>2026-03-29T09:44:18.871Z</time></trkpt><trkpt lat="45.3430183" lon="9.7249283"><ele>69.2</ele><time>2026-03-29T09:44:20.87Z</time></trkpt><trkpt lat="45.34304" lon="9.7250733"><ele>69.4</ele><time>2026-03-29T09:44:22.871Z</time></trkpt><trkpt lat="45.343065" lon="9.72521"><ele>69.6</ele><time>2026-03-29T09:44:24.87Z</time></trkpt><trkpt lat="45.3430883" lon="9.7253317"><ele>69.8</ele><time>2026-03-29T09:44:26.871Z</time></trkpt><trkpt lat="45.3431117" lon="9.7254417"><ele>70.0</ele><time>2026-03-29T09:44:28.87Z</time></trkpt><trkpt lat="45.3431467" lon="9.7255483"><ele>70.16666666666666</ele><time>2026-03-29T09:44:30.871Z</time></trkpt><trkpt lat="45.3431883" lon="9.725625"><ele>70.33333333333333</ele><time>2026-03-29T09:44:33.871Z</time></trkpt><trkpt lat="45.3432633" lon="9.7256417"><ele>70.5</ele><time>2026-03-29T09:44:36.87Z</time></trkpt><trkpt lat="45.3433117" lon="9.72573"><ele>70.66666666666667</ele><time>2026-03-29T09:44:38.871Z</time></trkpt><trkpt lat="45.34334" lon="9.7258283"><ele>70.83333333333334</ele><time>2026-03-29T09:44:40.87Z</time></trkpt><trkpt lat="45.3433533" lon="9.7259433"><ele>71.0</ele><time>2026-03-29T09:44:42.87Z</time></trkpt><trkpt lat="45.3433733" lon="9.726055"><ele>71.0</ele><time>2026-03-29T09:44:44.87Z</time></trkpt><trkpt lat="45.3433967" lon="9.7261717"><ele>71.0</ele><time>2026-03-29T09:44:46.87Z</time></trkpt><trkpt lat="45.3434133" lon="9.7262833"><ele>71.0</ele><time>2026-03-29T09:44:48.87Z</time></trkpt><trkpt lat="45.3434367" lon="9.7263917"><ele>71.0</ele><time>2026-03-29T09:44:50.87Z</time></trkpt><trkpt lat="45.34345" lon="9.7265083"><ele>71.0</ele><time>2026-03-29T09:44:52.87Z</time></trkpt><trkpt lat="45.343465" lon="9.7266217"><ele>71.0</ele><time>2026-03-29T09:44:54.87Z</time></trkpt><trkpt lat="45.343485" lon="9.7267467"><ele>71.0</ele><time>2026-03-29T09:44:56.871Z</time></trkpt><trkpt lat="45.3435067" lon="9.72687"><ele>71.0</ele><time>2026-03-29T09:44:58.87Z</time></trkpt><trkpt lat="45.343525" lon="9.727005"><ele>71.0</ele><time>2026-03-29T09:45:00.87Z</time></trkpt><trkpt lat="45.3435417" lon="9.7271383"><ele>71.0</ele><time>2026-03-29T09:45:02.87Z</time></trkpt><trkpt lat="45.34355" lon="9.727265"><ele>71.0</ele><time>2026-03-29T09:45:04.871Z</time></trkpt><trkpt lat="45.3435667" lon="9.7273967"><ele>71.0</ele><time>2026-03-29T09:45:06.87Z</time></trkpt><trkpt lat="45.3435867" lon="9.7275283"><ele>71.0</ele><time>2026-03-29T09:45:08.87Z</time></trkpt><trkpt lat="45.3436083" lon="9.7276617"><ele>71.0</ele><time>2026-03-29T09:45:10.87Z</time></trkpt><trkpt lat="45.3436417" lon="9.7277817"><ele>71.0</ele><time>2026-03-29T09:45:12.87Z</time></trkpt><trkpt lat="45.343655" lon="9.727915"><ele>71.0</ele><time>2026-03-29T09:45:14.87Z</time></trkpt><trkpt lat="45.3436683" lon="9.7280533"><ele>71.0</ele><time>2026-03-29T09:45:16.871Z</time></trkpt><trkpt lat="45.3436867" lon="9.7282"><ele>71.0</ele><time>2026-03-29T09:45:18.87Z</time></trkpt><trkpt lat="45.3437033" lon="9.728345"><ele>71.0</ele><time>2026-03-29T09:45:20.87Z</time></trkpt><trkpt lat="45.3437233" lon="9.7284917"><ele>71.0</ele><time>2026-03-29T09:45:22.87Z</time></trkpt><trkpt lat="45.343745" lon="9.7286367"><ele>71.0</ele><time>2026-03-29T09:45:24.87Z</time></trkpt><trkpt lat="45.343765" lon="9.7287867"><ele>71.0</ele><time>2026-03-29T09:45:26.87Z</time></trkpt><trkpt lat="45.3437917" lon="9.7289267"><ele>71.0</ele><time>2026-03-29T09:45:28.87Z</time></trkpt><trkpt lat="45.3437483" lon="9.729035"><ele>71.0</ele><time>2026-03-29T09:45:30.871Z</time></trkpt><trkpt lat="45.3437067" lon="9.72912"><ele>71.0</ele><time>2026-03-29T09:45:32.87Z</time></trkpt><trkpt lat="45.3437083" lon="9.7292183"><ele>71.0</ele><time>2026-03-29T09:45:34.87Z</time></trkpt><trkpt lat="45.3437633" lon="9.729345"><ele>71.0</ele><time>2026-03-29T09:45:36.87Z</time></trkpt><trkpt lat="45.3437983" lon="9.72943"><ele>70.83333333333334</ele><time>2026-03-29T09:45:37.87Z</time></trkpt><trkpt lat="45.3438317" lon="9.7295283"><ele>70.66666666666667</ele><time>2026-03-29T09:45:38.871Z</time></trkpt><trkpt lat="45.34386" lon="9.72964"><ele>70.5</ele><time>2026-03-29T09:45:39.87Z</time></trkpt><trkpt lat="45.3439017" lon="9.7297517"><ele>70.33333333333333</ele><time>2026-03-29T09:45:40.87Z</time></trkpt><trkpt lat="45.34394" lon="9.7298567"><ele>70.16666666666666</ele><time>2026-03-29T09:45:41.871Z</time></trkpt><trkpt lat="45.34398" lon="9.7299817"><ele>70.0</ele><time>2026-03-29T09:45:42.87Z</time></trkpt><trkpt lat="45.3440117" lon="9.73012"><ele>69.8</ele><time>2026-03-29T09:45:43.87Z</time></trkpt><trkpt lat="45.34405" lon="9.7302467"><ele>69.6</ele><time>2026-03-29T09:45:44.87Z</time></trkpt><trkpt lat="45.3440933" lon="9.73038"><ele>69.4</ele><time>2026-03-29T09:45:45.87Z</time></trkpt><trkpt lat="45.34415" lon="9.7305017"><ele>69.2</ele><time>2026-03-29T09:45:46.87Z</time></trkpt><trkpt lat="45.3442017" lon="9.7306067"><ele>69.0</ele><time>2026-03-29T09:45:47.87Z</time></trkpt><trkpt lat="45.3442583" lon="9.7306983"><ele>69.0</ele><time>2026-03-29T09:45:48.87Z</time></trkpt><trkpt lat="45.3443133" lon="9.730785"><ele>69.0</ele><time>2026-03-29T09:45:49.87Z</time></trkpt><trkpt lat="45.3443683" lon="9.7308583"><ele>69.0</ele><time>2026-03-29T09:45:50.87Z</time></trkpt><trkpt lat="45.3444217" lon="9.7309283"><ele>69.0</ele><time>2026-03-29T09:45:51.87Z</time></trkpt><trkpt lat="45.3444767" lon="9.7309867"><ele>69.0</ele><time>2026-03-29T09:45:52.87Z</time></trkpt><trkpt lat="45.3445317" lon="9.73104"><ele>69.0</ele><time>2026-03-29T09:45:53.87Z</time></trkpt><trkpt lat="45.3446417" lon="9.73113"><ele>69.4</ele><time>2026-03-29T09:45:55.87Z</time></trkpt><trkpt lat="45.3447483" lon="9.7312033"><ele>69.80000000000001</ele><time>2026-03-29T09:45:57.871Z</time></trkpt><trkpt lat="45.3448533" lon="9.731255"><ele>70.19999999999999</ele><time>2026-03-29T09:45:59.87Z</time></trkpt><trkpt lat="45.3449583" lon="9.7312983"><ele>70.6</ele><time>2026-03-29T09:46:01.87Z</time></trkpt><trkpt lat="45.345065" lon="9.7313283"><ele>71.0</ele><time>2026-03-29T09:46:03.87Z</time></trkpt><trkpt lat="45.34517" lon="9.7313767"><ele>71.0</ele><time>2026-03-29T09:46:05.87Z</time></trkpt><trkpt lat="45.345285" lon="9.7314317"><ele>71.0</ele><time>2026-03-29T09:46:07.87Z</time></trkpt><trkpt lat="45.3453933" lon="9.7314817"><ele>71.0</ele><time>2026-03-29T09:46:09.87Z</time></trkpt><trkpt lat="45.3455033" lon="9.7315467"><ele>71.0</ele><time>2026-03-29T09:46:11.871Z</time></trkpt><trkpt lat="45.3456133" lon="9.7316217"><ele>70.8</ele><time>2026-03-29T09:46:13.87Z</time></trkpt><trkpt lat="45.3456717" lon="9.73166"><ele>70.6</ele><time>2026-03-29T09:46:14.87Z</time></trkpt><trkpt lat="45.3457783" lon="9.731755"><ele>70.4</ele><time>2026-03-29T09:46:16.871Z</time></trkpt><trkpt lat="45.34583" lon="9.7318083"><ele>70.2</ele><time>2026-03-29T09:46:17.87Z</time></trkpt><trkpt lat="45.345925" lon="9.7319083"><ele>70.0</ele><time>2026-03-29T09:46:19.87Z</time></trkpt><trkpt lat="45.3460183" lon="9.7320133"><ele>70.0</ele><time>2026-03-29T09:46:21.871Z</time></trkpt><trkpt lat="45.3460683" lon="9.7320683"><ele>70.0</ele><time>2026-03-29T09:46:22.87Z</time></trkpt><trkpt lat="45.3461633" lon="9.73218"><ele>70.0</ele><time>2026-03-29T09:46:24.87Z</time></trkpt><trkpt lat="45.3462633" lon="9.7322933"><ele>70.0</ele><time>2026-03-29T09:46:26.871Z</time></trkpt><trkpt lat="45.3463133" lon="9.7323583"><ele>70.0</ele><time>2026-03-29T09:46:27.87Z</time></trkpt><trkpt lat="45.3463617" lon="9.73243"><ele>70.0</ele><time>2026-03-29T09:46:28.87Z</time></trkpt><trkpt lat="45.34641" lon="9.7325033"><ele>70.0</ele><time>2026-03-29T09:46:29.87Z</time></trkpt><trkpt lat="45.3464583" lon="9.7325767"><ele>70.0</ele><time>2026-03-29T09:46:30.87Z</time></trkpt><trkpt lat="45.346505" lon="9.7326467"><ele>70.0</ele><time>2026-03-29T09:46:31.87Z</time></trkpt><trkpt lat="45.346555" lon="9.732715"><ele>70.0</ele><time>2026-03-29T09:46:32.87Z</time></trkpt><trkpt lat="45.3466" lon="9.7327817"><ele>70.0</ele><time>2026-03-29T09:46:33.87Z</time></trkpt><trkpt lat="45.3466467" lon="9.732855"><ele>70.0</ele><time>2026-03-29T09:46:34.871Z</time></trkpt><trkpt lat="45.34669" lon="9.7329317"><ele>70.14285714285714</ele><time>2026-03-29T09:46:35.87Z</time></trkpt><trkpt lat="45.3467383" lon="9.7330017"><ele>70.28571428571428</ele><time>2026-03-29T09:46:36.87Z</time></trkpt><trkpt lat="45.3467867" lon="9.7330767"><ele>70.42857142857143</ele><time>2026-03-29T09:46:37.87Z</time></trkpt><trkpt lat="45.346835" lon="9.7331483"><ele>70.57142857142857</ele><time>2026-03-29T09:46:38.87Z</time></trkpt><trkpt lat="45.3468867" lon="9.7332183"><ele>70.71428571428571</ele><time>2026-03-29T09:46:39.871Z</time></trkpt><trkpt lat="45.34694" lon="9.7332917"><ele>70.85714285714286</ele><time>2026-03-29T09:46:40.87Z</time></trkpt><trkpt lat="45.3469917" lon="9.733365"><ele>71.0</ele><time>2026-03-29T09:46:41.87Z</time></trkpt><trkpt lat="45.3470433" lon="9.73344"><ele>71.0</ele><time>2026-03-29T09:46:42.87Z</time></trkpt><trkpt lat="45.3471" lon="9.73351"><ele>71.0</ele><time>2026-03-29T09:46:43.87Z</time></trkpt><trkpt lat="45.347155" lon="9.73357"><ele>71.0</ele><time>2026-03-29T09:46:44.87Z</time></trkpt><trkpt lat="45.3472183" lon="9.7336333"><ele>71.0</ele><time>2026-03-29T09:46:45.87Z</time></trkpt><trkpt lat="45.34728" lon="9.7337017"><ele>71.0</ele><time>2026-03-29T09:46:46.87Z</time></trkpt><trkpt lat="45.3473383" lon="9.733765"><ele>71.0</ele><time>2026-03-29T09:46:47.87Z</time></trkpt><trkpt lat="45.3474017" lon="9.73382"><ele>71.0</ele><time>2026-03-29T09:46:48.87Z</time></trkpt><trkpt lat="45.347465" lon="9.7338783"><ele>70.71428571428571</ele><time>2026-03-29T09:46:49.87Z</time></trkpt><trkpt lat="45.3475267" lon="9.7339367"><ele>70.42857142857142</ele><time>2026-03-29T09:46:50.87Z</time></trkpt><trkpt lat="45.3475867" lon="9.7339933"><ele>70.14285714285714</ele><time>2026-03-29T09:46:51.87Z</time></trkpt><trkpt lat="45.3476433" lon="9.73405"><ele>69.85714285714286</ele><time>2026-03-29T09:46:52.87Z</time></trkpt><trkpt lat="45.3477083" lon="9.7341083"><ele>69.57142857142858</ele><time>2026-03-29T09:46:53.87Z</time></trkpt><trkpt lat="45.3477733" lon="9.7341633"><ele>69.28571428571429</ele><time>2026-03-29T09:46:54.87Z</time></trkpt><trkpt lat="45.3478367" lon="9.7342167"><ele>69.0</ele><time>2026-03-29T09:46:55.87Z</time></trkpt><trkpt lat="45.3479033" lon="9.7342717"><ele>69.0</ele><time>2026-03-29T09:46:56.87Z</time></trkpt><trkpt lat="45.34797" lon="9.734325"><ele>69.0</ele><time>2026-03-29T09:46:57.87Z</time></trkpt><trkpt lat="45.3480317" lon="9.7343733"><ele>69.0</ele><time>2026-03-29T09:46:58.871Z</time></trkpt><trkpt lat="45.3480883" lon="9.73443"><ele>69.0</ele><time>2026-03-29T09:46:59.87Z</time></trkpt><trkpt lat="45.3481433" lon="9.7344833"><ele>69.0</ele><time>2026-03-29T09:47:00.87Z</time></trkpt><trkpt lat="45.348205" lon="9.7345367"><ele>69.0</ele><time>2026-03-29T09:47:01.871Z</time></trkpt><trkpt lat="45.3482633" lon="9.734605"><ele>69.0</ele><time>2026-03-29T09:47:02.87Z</time></trkpt><trkpt lat="45.3483217" lon="9.734665"><ele>69.28571428571429</ele><time>2026-03-29T09:47:03.87Z</time></trkpt><trkpt lat="45.3483817" lon="9.7347283"><ele>69.57142857142858</ele><time>2026-03-29T09:47:04.87Z</time></trkpt><trkpt lat="45.3484383" lon="9.7347967"><ele>69.85714285714286</ele><time>2026-03-29T09:47:05.87Z</time></trkpt><trkpt lat="45.3484933" lon="9.73486"><ele>70.14285714285714</ele><time>2026-03-29T09:47:06.87Z</time></trkpt><trkpt lat="45.3485483" lon="9.7349233"><ele>70.42857142857142</ele><time>2026-03-29T09:47:07.87Z</time></trkpt><trkpt lat="45.3486067" lon="9.7349883"><ele>70.71428571428571</ele><time>2026-03-29T09:47:08.87Z</time></trkpt><trkpt lat="45.3486633" lon="9.7350467"><ele>71.0</ele><time>2026-03-29T09:47:09.87Z</time></trkpt><trkpt lat="45.3487233" lon="9.7351067"><ele>71.0</ele><time>2026-03-29T09:47:10.87Z</time></trkpt><trkpt lat="45.34878" lon="9.7351667"><ele>71.0</ele><time>2026-03-29T09:47:11.87Z</time></trkpt><trkpt lat="45.348835" lon="9.73523"><ele>71.0</ele><time>2026-03-29T09:47:12.871Z</time></trkpt><trkpt lat="45.3488867" lon="9.7353017"><ele>71.0</ele><time>2026-03-29T09:47:13.87Z</time></trkpt><trkpt lat="45.3489433" lon="9.7353783"><ele>71.0</ele><time>2026-03-29T09:47:14.87Z</time></trkpt><trkpt lat="45.349" lon="9.7354433"><ele>71.0</ele><time>2026-03-29T09:47:15.87Z</time></trkpt><trkpt lat="45.3490583" lon="9.7355083"><ele>71.0</ele><time>2026-03-29T09:47:16.87Z</time></trkpt><trkpt lat="45.349115" lon="9.7355717"><ele>70.85714285714286</ele><time>2026-03-29T09:47:17.87Z</time></trkpt><trkpt lat="45.3491683" lon="9.7356317"><ele>70.71428571428571</ele><time>2026-03-29T09:47:18.87Z</time></trkpt><trkpt lat="45.349225" lon="9.7357017"><ele>70.57142857142857</ele><time>2026-03-29T09:47:19.87Z</time></trkpt><trkpt lat="45.34928" lon="9.7357667"><ele>70.42857142857143</ele><time>2026-03-29T09:47:20.87Z</time></trkpt><trkpt lat="45.349335" lon="9.73583"><ele>70.28571428571428</ele><time>2026-03-29T09:47:21.87Z</time></trkpt><trkpt lat="45.34939" lon="9.735895"><ele>70.14285714285714</ele><time>2026-03-29T09:47:22.87Z</time></trkpt><trkpt lat="45.349445" lon="9.7359617"><ele>70.0</ele><time>2026-03-29T09:47:23.87Z</time></trkpt><trkpt lat="45.3495017" lon="9.7360317"><ele>70.14285714285714</ele><time>2026-03-29T09:47:24.87Z</time></trkpt><trkpt lat="45.3495617" lon="9.7360983"><ele>70.28571428571428</ele><time>2026-03-29T09:47:25.871Z</time></trkpt><trkpt lat="45.3496217" lon="9.7361667"><ele>70.42857142857143</ele><time>2026-03-29T09:47:26.87Z</time></trkpt><trkpt lat="45.34968" lon="9.736235"><ele>70.57142857142857</ele><time>2026-03-29T09:47:27.87Z</time></trkpt><trkpt lat="45.3497383" lon="9.7362983"><ele>70.71428571428571</ele><time>2026-03-29T09:47:28.87Z</time></trkpt><trkpt lat="45.3497983" lon="9.73636"><ele>70.85714285714286</ele><time>2026-03-29T09:47:29.87Z</time></trkpt><trkpt lat="45.3498533" lon="9.736425"><ele>71.0</ele><time>2026-03-29T09:47:30.87Z</time></trkpt><trkpt lat="45.3499083" lon="9.7364917"><ele>70.85714285714286</ele><time>2026-03-29T09:47:31.87Z</time></trkpt><trkpt lat="45.3499633" lon="9.7365633"><ele>70.71428571428571</ele><time>2026-03-29T09:47:32.87Z</time></trkpt><trkpt lat="45.3500217" lon="9.7366333"><ele>70.57142857142857</ele><time>2026-03-29T09:47:33.87Z</time></trkpt><trkpt lat="45.3500817" lon="9.736695"><ele>70.42857142857143</ele><time>2026-03-29T09:47:34.87Z</time></trkpt><trkpt lat="45.3501383" lon="9.736765"><ele>70.28571428571428</ele><time>2026-03-29T09:47:35.87Z</time></trkpt><trkpt lat="45.3501967" lon="9.73683"><ele>70.14285714285714</ele><time>2026-03-29T09:47:36.871Z</time></trkpt><trkpt lat="45.3502517" lon="9.7368933"><ele>70.0</ele><time>2026-03-29T09:47:37.87Z</time></trkpt><trkpt lat="45.35031" lon="9.7369567"><ele>70.0</ele><time>2026-03-29T09:47:38.87Z</time></trkpt><trkpt lat="45.35037" lon="9.737025"><ele>70.0</ele><time>2026-03-29T09:47:39.87Z</time></trkpt><trkpt lat="45.350435" lon="9.7370933"><ele>70.0</ele><time>2026-03-29T09:47:40.87Z</time></trkpt><trkpt lat="45.3505017" lon="9.7371583"><ele>70.0</ele><time>2026-03-29T09:47:41.87Z</time></trkpt><trkpt lat="45.350565" lon="9.7372283"><ele>70.0</ele><time>2026-03-29T09:47:42.87Z</time></trkpt><trkpt lat="45.3506283" lon="9.7373"><ele>70.0</ele><time>2026-03-29T09:47:43.87Z</time></trkpt><trkpt lat="45.3506933" lon="9.73737"><ele>70.16666666666666</ele><time>2026-03-29T09:47:44.87Z</time></trkpt><trkpt lat="45.3507533" lon="9.737445"><ele>70.33333333333333</ele><time>2026-03-29T09:47:45.87Z</time></trkpt><trkpt lat="45.3508167" lon="9.7375183"><ele>70.5</ele><time>2026-03-29T09:47:46.87Z</time></trkpt><trkpt lat="45.3508817" lon="9.73759"><ele>70.66666666666667</ele><time>2026-03-29T09:47:47.87Z</time></trkpt><trkpt lat="45.3509433" lon="9.7376567"><ele>70.83333333333334</ele><time>2026-03-29T09:47:48.87Z</time></trkpt><trkpt lat="45.3510017" lon="9.73773"><ele>71.0</ele><time>2026-03-29T09:47:49.87Z</time></trkpt><trkpt lat="45.3510583" lon="9.737805"><ele>71.0</ele><time>2026-03-29T09:47:50.87Z</time></trkpt><trkpt lat="45.3511183" lon="9.7378817"><ele>71.0</ele><time>2026-03-29T09:47:51.87Z</time></trkpt><trkpt lat="45.3511767" lon="9.7379533"><ele>71.0</ele><time>2026-03-29T09:47:52.87Z</time></trkpt><trkpt lat="45.35124" lon="9.7380267"><ele>71.0</ele><time>2026-03-29T09:47:53.871Z</time></trkpt><trkpt lat="45.351305" lon="9.738105"><ele>71.0</ele><time>2026-03-29T09:47:54.87Z</time></trkpt><trkpt lat="45.35137" lon="9.7381783"><ele>71.0</ele><time>2026-03-29T09:47:55.87Z</time></trkpt><trkpt lat="45.3514333" lon="9.7382533"><ele>70.83333333333334</ele><time>2026-03-29T09:47:56.87Z</time></trkpt><trkpt lat="45.351495" lon="9.7383283"><ele>70.66666666666667</ele><time>2026-03-29T09:47:57.87Z</time></trkpt><trkpt lat="45.3515567" lon="9.7384017"><ele>70.5</ele><time>2026-03-29T09:47:58.871Z</time></trkpt><trkpt lat="45.35162" lon="9.7384817"><ele>70.33333333333333</ele><time>2026-03-29T09:47:59.871Z</time></trkpt><trkpt lat="45.35169" lon="9.738555"><ele>70.16666666666666</ele><time>2026-03-29T09:48:00.87Z</time></trkpt><trkpt lat="45.3517583" lon="9.7386233"><ele>70.0</ele><time>2026-03-29T09:48:01.87Z</time></trkpt><trkpt lat="45.3518233" lon="9.738695"><ele>70.0</ele><time>2026-03-29T09:48:02.871Z</time></trkpt><trkpt lat="45.3518867" lon="9.7387717"><ele>70.0</ele><time>2026-03-29T09:48:03.87Z</time></trkpt><trkpt lat="45.35195" lon="9.7388433"><ele>70.0</ele><time>2026-03-29T09:48:04.87Z</time></trkpt><trkpt lat="45.3520133" lon="9.7389167"><ele>70.0</ele><time>2026-03-29T09:48:05.87Z</time></trkpt><trkpt lat="45.3520783" lon="9.73899"><ele>70.0</ele><time>2026-03-29T09:48:06.87Z</time></trkpt><trkpt lat="45.3521417" lon="9.739065"><ele>70.0</ele><time>2026-03-29T09:48:07.87Z</time></trkpt><trkpt lat="45.35221" lon="9.73914"><ele>70.0</ele><time>2026-03-29T09:48:08.87Z</time></trkpt><trkpt lat="45.352275" lon="9.7392183"><ele>70.0</ele><time>2026-03-29T09:48:09.87Z</time></trkpt><trkpt lat="45.3523433" lon="9.7392917"><ele>70.0</ele><time>2026-03-29T09:48:10.87Z</time></trkpt><trkpt lat="45.3524067" lon="9.7393683"><ele>70.0</ele><time>2026-03-29T09:48:11.87Z</time></trkpt><trkpt lat="45.35247" lon="9.739445"><ele>70.0</ele><time>2026-03-29T09:48:12.87Z</time></trkpt><trkpt lat="45.3525367" lon="9.73952"><ele>70.0</ele><time>2026-03-29T09:48:13.871Z</time></trkpt><trkpt lat="45.3526" lon="9.7395917"><ele>70.16666666666666</ele><time>2026-03-29T09:48:14.87Z</time></trkpt><trkpt lat="45.3526617" lon="9.73966"><ele>70.33333333333333</ele><time>2026-03-29T09:48:15.87Z</time></trkpt><trkpt lat="45.35272" lon="9.7397367"><ele>70.5</ele><time>2026-03-29T09:48:16.87Z</time></trkpt><trkpt lat="45.3527783" lon="9.7398083"><ele>70.66666666666667</ele><time>2026-03-29T09:48:17.87Z</time></trkpt><trkpt lat="45.3528367" lon="9.7398767"><ele>70.83333333333334</ele><time>2026-03-29T09:48:18.87Z</time></trkpt><trkpt lat="45.3528933" lon="9.7399467"><ele>71.0</ele><time>2026-03-29T09:48:19.871Z</time></trkpt><trkpt lat="45.3529483" lon="9.7400083"><ele>71.0</ele><time>2026-03-29T09:48:20.87Z</time></trkpt><trkpt lat="45.3530017" lon="9.74007"><ele>71.0</ele><time>2026-03-29T09:48:21.87Z</time></trkpt><trkpt lat="45.353055" lon="9.7401317"><ele>71.0</ele><time>2026-03-29T09:48:22.871Z</time></trkpt><trkpt lat="45.3531017" lon="9.7401983"><ele>71.0</ele><time>2026-03-29T09:48:23.87Z</time></trkpt><trkpt lat="45.3531517" lon="9.74026"><ele>71.0</ele><time>2026-03-29T09:48:24.87Z</time></trkpt><trkpt lat="45.353245" lon="9.740375"><ele>71.0</ele><time>2026-03-29T09:48:26.87Z</time></trkpt><trkpt lat="45.35333" lon="9.7404733"><ele>71.39999999999999</ele><time>2026-03-29T09:48:28.87Z</time></trkpt><trkpt lat="45.3534033" lon="9.740575"><ele>71.8</ele><time>2026-03-29T09:48:30.87Z</time></trkpt><trkpt lat="45.3534683" lon="9.7406783"><ele>72.19999999999999</ele><time>2026-03-29T09:48:32.87Z</time></trkpt><trkpt lat="45.3535367" lon="9.7407667"><ele>72.6</ele><time>2026-03-29T09:48:34.871Z</time></trkpt><trkpt lat="45.35354" lon="9.74088"><ele>73.0</ele><time>2026-03-29T09:48:36.87Z</time></trkpt><trkpt lat="45.3534767" lon="9.7409583"><ele>73.0</ele><time>2026-03-29T09:48:38.87Z</time></trkpt><trkpt lat="45.3534067" lon="9.7410217"><ele>73.0</ele><time>2026-03-29T09:48:40.87Z</time></trkpt><trkpt lat="45.35333" lon="9.7410833"><ele>73.0</ele><time>2026-03-29T09:48:42.87Z</time></trkpt><trkpt lat="45.353245" lon="9.7411583"><ele>73.0</ele><time>2026-03-29T09:48:44.869Z</time></trkpt><trkpt lat="45.3531567" lon="9.741235"><ele>73.0</ele><time>2026-03-29T09:48:46.869Z</time></trkpt><trkpt lat="45.3530667" lon="9.7413083"><ele>72.6</ele><time>2026-03-29T09:48:48.87Z</time></trkpt><trkpt lat="45.3529733" lon="9.741385"><ele>72.19999999999999</ele><time>2026-03-29T09:48:50.869Z</time></trkpt><trkpt lat="45.35288" lon="9.7414567"><ele>71.8</ele><time>2026-03-29T09:48:52.869Z</time></trkpt><trkpt lat="45.3527883" lon="9.7415317"><ele>71.39999999999999</ele><time>2026-03-29T09:48:54.869Z</time></trkpt><trkpt lat="45.352695" lon="9.7416133"><ele>71.0</ele><time>2026-03-29T09:48:56.869Z</time></trkpt><trkpt lat="45.3526083" lon="9.7416967"><ele>71.0</ele><time>2026-03-29T09:48:58.869Z</time></trkpt><trkpt lat="45.3525583" lon="9.7418317"><ele>71.0</ele><time>2026-03-29T09:49:00.869Z</time></trkpt><trkpt lat="45.3525717" lon="9.7419833"><ele>71.0</ele><time>2026-03-29T09:49:02.869Z</time></trkpt><trkpt lat="45.3526033" lon="9.7421367"><ele>71.0</ele><time>2026-03-29T09:49:04.869Z</time></trkpt><trkpt lat="45.3526317" lon="9.7422917"><ele>71.0</ele><time>2026-03-29T09:49:06.869Z</time></trkpt><trkpt lat="45.3526683" lon="9.74245"><ele>71.16666666666667</ele><time>2026-03-29T09:49:08.869Z</time></trkpt><trkpt lat="45.35269" lon="9.7425367"><ele>71.33333333333334</ele><time>2026-03-29T09:49:09.869Z</time></trkpt><trkpt lat="45.3527217" lon="9.7426933"><ele>71.5</ele><time>2026-03-29T09:49:11.869Z</time></trkpt><trkpt lat="45.352735" lon="9.7427817"><ele>71.66666666666667</ele><time>2026-03-29T09:49:12.87Z</time></trkpt><trkpt lat="45.35276" lon="9.7429467"><ele>71.83333333333333</ele><time>2026-03-29T09:49:14.87Z</time></trkpt><trkpt lat="45.3527817" lon="9.7430317"><ele>72.0</ele><time>2026-03-29T09:49:15.869Z</time></trkpt><trkpt lat="45.3528117" lon="9.7431933"><ele>72.25</ele><time>2026-03-29T09:49:17.869Z</time></trkpt><trkpt lat="45.352845" lon="9.7433517"><ele>72.5</ele><time>2026-03-29T09:49:19.869Z</time></trkpt><trkpt lat="45.3528817" lon="9.743515"><ele>72.75</ele><time>2026-03-29T09:49:21.869Z</time></trkpt><trkpt lat="45.3529083" lon="9.74366"><ele>73.0</ele><time>2026-03-29T09:49:23.869Z</time></trkpt><trkpt lat="45.3529383" lon="9.7438283"><ele>73.2</ele><time>2026-03-29T09:49:25.869Z</time></trkpt><trkpt lat="45.35296" lon="9.7440017"><ele>73.4</ele><time>2026-03-29T09:49:27.869Z</time></trkpt><trkpt lat="45.35299" lon="9.74417"><ele>73.60000000000001</ele><time>2026-03-29T09:49:29.869Z</time></trkpt><trkpt lat="45.353025" lon="9.7443417"><ele>73.8</ele><time>2026-03-29T09:49:31.869Z</time></trkpt><trkpt lat="45.35304" lon="9.74443"><ele>74.0</ele><time>2026-03-29T09:49:32.869Z</time></trkpt><trkpt lat="45.353065" lon="9.74459"><ele>74.0</ele><time>2026-03-29T09:49:34.87Z</time></trkpt><trkpt lat="45.3531083" lon="9.744745"><ele>74.0</ele><time>2026-03-29T09:49:36.869Z</time></trkpt><trkpt lat="45.35313" lon="9.7448317"><ele>74.0</ele><time>2026-03-29T09:49:37.87Z</time></trkpt><trkpt lat="45.3531517" lon="9.745"><ele>74.0</ele><time>2026-03-29T09:49:39.869Z</time></trkpt><trkpt lat="45.3531683" lon="9.7450867"><ele>74.0</ele><time>2026-03-29T09:49:40.869Z</time></trkpt><trkpt lat="45.3531883" lon="9.7451733"><ele>74.0</ele><time>2026-03-29T09:49:41.869Z</time></trkpt><trkpt lat="45.3532067" lon="9.74526"><ele>73.25</ele><time>2026-03-29T09:49:42.869Z</time></trkpt><trkpt lat="45.3532367" lon="9.7454333"><ele>72.5</ele><time>2026-03-29T09:49:44.869Z</time></trkpt><trkpt lat="45.3532667" lon="9.7456083"><ele>71.75</ele><time>2026-03-29T09:49:46.869Z</time></trkpt><trkpt lat="45.35329" lon="9.74578"><ele>71.0</ele><time>2026-03-29T09:49:48.87Z</time></trkpt><trkpt lat="45.353315" lon="9.745955"><ele>71.6</ele><time>2026-03-29T09:49:50.869Z</time></trkpt><trkpt lat="45.3533467" lon="9.7461167"><ele>72.19999999999999</ele><time>2026-03-29T09:49:52.869Z</time></trkpt><trkpt lat="45.353375" lon="9.7462683"><ele>72.80000000000001</ele><time>2026-03-29T09:49:54.869Z</time></trkpt><trkpt lat="45.3534033" lon="9.74642"><ele>73.4</ele><time>2026-03-29T09:49:56.87Z</time></trkpt><trkpt lat="45.3534433" lon="9.7465617"><ele>74.0</ele><time>2026-03-29T09:49:58.869Z</time></trkpt><trkpt lat="45.353475" lon="9.7467067"><ele>74.0</ele><time>2026-03-29T09:50:00.869Z</time></trkpt><trkpt lat="45.3535133" lon="9.7468533"><ele>74.0</ele><time>2026-03-29T09:50:02.869Z</time></trkpt><trkpt lat="45.3535433" lon="9.74701"><ele>74.0</ele><time>2026-03-29T09:50:04.869Z</time></trkpt><trkpt lat="45.3535783" lon="9.74716"><ele>74.0</ele><time>2026-03-29T09:50:06.869Z</time></trkpt><trkpt lat="45.3536133" lon="9.7473033"><ele>74.0</ele><time>2026-03-29T09:50:08.869Z</time></trkpt><trkpt lat="45.3536433" lon="9.7474333"><ele>74.0</ele><time>2026-03-29T09:50:10.869Z</time></trkpt><trkpt lat="45.353665" lon="9.74756"><ele>74.0</ele><time>2026-03-29T09:50:12.869Z</time></trkpt><trkpt lat="45.3536867" lon="9.7476883"><ele>74.0</ele><time>2026-03-29T09:50:14.869Z</time></trkpt><trkpt lat="45.353715" lon="9.7478017"><ele>74.0</ele><time>2026-03-29T09:50:16.87Z</time></trkpt><trkpt lat="45.3537383" lon="9.74792"><ele>74.0</ele><time>2026-03-29T09:50:18.869Z</time></trkpt><trkpt lat="45.3537617" lon="9.7480467"><ele>74.0</ele><time>2026-03-29T09:50:20.869Z</time></trkpt><trkpt lat="45.3537983" lon="9.74818"><ele>74.0</ele><time>2026-03-29T09:50:22.869Z</time></trkpt><trkpt lat="45.3538233" lon="9.748315"><ele>74.0</ele><time>2026-03-29T09:50:24.869Z</time></trkpt><trkpt lat="45.3538483" lon="9.7484567"><ele>74.0</ele><time>2026-03-29T09:50:26.869Z</time></trkpt><trkpt lat="45.3538783" lon="9.7485967"><ele>74.0</ele><time>2026-03-29T09:50:28.869Z</time></trkpt><trkpt lat="45.3539017" lon="9.74874"><ele>74.0</ele><time>2026-03-29T09:50:30.869Z</time></trkpt><trkpt lat="45.3539417" lon="9.7488833"><ele>74.0</ele><time>2026-03-29T09:50:32.869Z</time></trkpt><trkpt lat="45.353975" lon="9.7490417"><ele>74.0</ele><time>2026-03-29T09:50:34.869Z</time></trkpt><trkpt lat="45.3540133" lon="9.7491817"><ele>74.0</ele><time>2026-03-29T09:50:36.87Z</time></trkpt><trkpt lat="45.354055" lon="9.7493233"><ele>74.0</ele><time>2026-03-29T09:50:38.869Z</time></trkpt><trkpt lat="45.3540917" lon="9.7494367"><ele>74.0</ele><time>2026-03-29T09:50:40.869Z</time></trkpt><trkpt lat="45.3541417" lon="9.749525"><ele>74.16666666666667</ele><time>2026-03-29T09:50:42.87Z</time></trkpt><trkpt lat="45.3541333" lon="9.7496217"><ele>74.33333333333334</ele><time>2026-03-29T09:50:47.869Z</time></trkpt><trkpt lat="45.3540533" lon="9.749675"><ele>74.5</ele><time>2026-03-29T09:50:50.869Z</time></trkpt><trkpt lat="45.353985" lon="9.7497183"><ele>74.66666666666667</ele><time>2026-03-29T09:50:52.869Z</time></trkpt><trkpt lat="45.3539083" lon="9.7497533"><ele>74.83333333333333</ele><time>2026-03-29T09:50:54.869Z</time></trkpt><trkpt lat="45.35382" lon="9.7497817"><ele>75.0</ele><time>2026-03-29T09:50:56.869Z</time></trkpt><trkpt lat="45.3537217" lon="9.74982"><ele>74.6</ele><time>2026-03-29T09:50:58.869Z</time></trkpt><trkpt lat="45.3536317" lon="9.749855"><ele>74.2</ele><time>2026-03-29T09:51:00.869Z</time></trkpt><trkpt lat="45.3535417" lon="9.7498733"><ele>73.8</ele><time>2026-03-29T09:51:02.869Z</time></trkpt><trkpt lat="45.3534417" lon="9.7499083"><ele>73.4</ele><time>2026-03-29T09:51:04.869Z</time></trkpt><trkpt lat="45.3533383" lon="9.7499583"><ele>73.0</ele><time>2026-03-29T09:51:06.869Z</time></trkpt><trkpt lat="45.3532467" lon="9.75"><ele>73.0</ele><time>2026-03-29T09:51:08.869Z</time></trkpt><trkpt lat="45.353145" lon="9.7500367"><ele>73.0</ele><time>2026-03-29T09:51:10.869Z</time></trkpt><trkpt lat="45.3530417" lon="9.7500883"><ele>73.0</ele><time>2026-03-29T09:51:12.869Z</time></trkpt><trkpt lat="45.3529333" lon="9.750145"><ele>73.0</ele><time>2026-03-29T09:51:14.87Z</time></trkpt><trkpt lat="45.352825" lon="9.7502033"><ele>73.0</ele><time>2026-03-29T09:51:16.87Z</time></trkpt><trkpt lat="45.35272" lon="9.750255"><ele>73.25</ele><time>2026-03-29T09:51:18.869Z</time></trkpt><trkpt lat="45.352615" lon="9.7503183"><ele>73.5</ele><time>2026-03-29T09:51:20.87Z</time></trkpt><trkpt lat="45.3525117" lon="9.75038"><ele>73.75</ele><time>2026-03-29T09:51:22.869Z</time></trkpt><trkpt lat="45.3524017" lon="9.7504233"><ele>74.0</ele><time>2026-03-29T09:51:24.869Z</time></trkpt><trkpt lat="45.3522867" lon="9.75049"><ele>73.5</ele><time>2026-03-29T09:51:26.869Z</time></trkpt><trkpt lat="45.3521783" lon="9.75055"><ele>73.0</ele><time>2026-03-29T09:51:28.869Z</time></trkpt><trkpt lat="45.3520633" lon="9.7506117"><ele>72.5</ele><time>2026-03-29T09:51:30.869Z</time></trkpt><trkpt lat="45.3519517" lon="9.75067"><ele>72.0</ele><time>2026-03-29T09:51:32.869Z</time></trkpt><trkpt lat="45.3518467" lon="9.7507167"><ele>72.0</ele><time>2026-03-29T09:51:34.869Z</time></trkpt><trkpt lat="45.35174" lon="9.7507767"><ele>72.0</ele><time>2026-03-29T09:51:36.869Z</time></trkpt><trkpt lat="45.3516317" lon="9.75083"><ele>72.0</ele><time>2026-03-29T09:51:38.869Z</time></trkpt><trkpt lat="45.351535" lon="9.7508967"><ele>72.0</ele><time>2026-03-29T09:51:40.869Z</time></trkpt><trkpt lat="45.35146" lon="9.7509917"><ele>72.0</ele><time>2026-03-29T09:51:42.869Z</time></trkpt><trkpt lat="45.3514233" lon="9.7511167"><ele>72.2</ele><time>2026-03-29T09:51:44.869Z</time></trkpt><trkpt lat="45.3514333" lon="9.751255"><ele>72.4</ele><time>2026-03-29T09:51:46.869Z</time></trkpt><trkpt lat="45.3514717" lon="9.751395"><ele>72.6</ele><time>2026-03-29T09:51:48.869Z</time></trkpt><trkpt lat="45.3515083" lon="9.7515417"><ele>72.8</ele><time>2026-03-29T09:51:50.87Z</time></trkpt><trkpt lat="45.3515467" lon="9.7516883"><ele>73.0</ele><time>2026-03-29T09:51:52.869Z</time></trkpt><trkpt lat="45.3515817" lon="9.7518417"><ele>73.4</ele><time>2026-03-29T09:51:54.869Z</time></trkpt><trkpt lat="45.3516133" lon="9.7520033"><ele>73.8</ele><time>2026-03-29T09:51:56.869Z</time></trkpt><trkpt lat="45.351645" lon="9.7521583"><ele>74.2</ele><time>2026-03-29T09:51:58.869Z</time></trkpt><trkpt lat="45.351675" lon="9.7523067"><ele>74.6</ele><time>2026-03-29T09:52:00.869Z</time></trkpt><trkpt lat="45.3516967" lon="9.7524583"><ele>75.0</ele><time>2026-03-29T09:52:02.869Z</time></trkpt><trkpt lat="45.3517267" lon="9.7526117"><ele>74.8</ele><time>2026-03-29T09:52:04.869Z</time></trkpt><trkpt lat="45.3517633" lon="9.7527667"><ele>74.6</ele><time>2026-03-29T09:52:06.869Z</time></trkpt><trkpt lat="45.3517933" lon="9.7529"><ele>74.4</ele><time>2026-03-29T09:52:08.869Z</time></trkpt><trkpt lat="45.3518217" lon="9.7530383"><ele>74.2</ele><time>2026-03-29T09:52:10.869Z</time></trkpt><trkpt lat="45.3518417" lon="9.7531783"><ele>74.0</ele><time>2026-03-29T09:52:12.869Z</time></trkpt><trkpt lat="45.3518617" lon="9.7533083"><ele>74.0</ele><time>2026-03-29T09:52:14.869Z</time></trkpt><trkpt lat="45.3518833" lon="9.7534183"><ele>74.0</ele><time>2026-03-29T09:52:16.869Z</time></trkpt><trkpt lat="45.3519117" lon="9.753545"><ele>74.0</ele><time>2026-03-29T09:52:18.869Z</time></trkpt><trkpt lat="45.3519133" lon="9.753665"><ele>74.0</ele><time>2026-03-29T09:52:20.869Z</time></trkpt><trkpt lat="45.3519067" lon="9.7537967"><ele>74.0</ele><time>2026-03-29T09:52:22.869Z</time></trkpt><trkpt lat="45.3519017" lon="9.7539283"><ele>74.0</ele><time>2026-03-29T09:52:24.869Z</time></trkpt><trkpt lat="45.3519183" lon="9.7540717"><ele>74.0</ele><time>2026-03-29T09:52:26.87Z</time></trkpt><trkpt lat="45.35193" lon="9.7542283"><ele>74.0</ele><time>2026-03-29T09:52:28.869Z</time></trkpt><trkpt lat="45.3519467" lon="9.7543867"><ele>74.0</ele><time>2026-03-29T09:52:30.869Z</time></trkpt><trkpt lat="45.351955" lon="9.7545367"><ele>74.0</ele><time>2026-03-29T09:52:32.869Z</time></trkpt><trkpt lat="45.3519633" lon="9.75469"><ele>74.0</ele><time>2026-03-29T09:52:34.869Z</time></trkpt><trkpt lat="45.3519733" lon="9.7548417"><ele>74.0</ele><time>2026-03-29T09:52:36.87Z</time></trkpt><trkpt lat="45.3519883" lon="9.755"><ele>74.0</ele><time>2026-03-29T09:52:38.869Z</time></trkpt><trkpt lat="45.3519933" lon="9.7551567"><ele>74.0</ele><time>2026-03-29T09:52:40.869Z</time></trkpt><trkpt lat="45.3519833" lon="9.7553083"><ele>74.0</ele><time>2026-03-29T09:52:42.869Z</time></trkpt><trkpt lat="45.3519833" lon="9.7554667"><ele>74.0</ele><time>2026-03-29T09:52:44.869Z</time></trkpt><trkpt lat="45.3519817" lon="9.7556217"><ele>73.83333333333334</ele><time>2026-03-29T09:52:46.87Z</time></trkpt><trkpt lat="45.35198" lon="9.7557817"><ele>73.66666666666667</ele><time>2026-03-29T09:52:48.869Z</time></trkpt><trkpt lat="45.3519483" lon="9.7559483"><ele>73.5</ele><time>2026-03-29T09:52:50.869Z</time></trkpt><trkpt lat="45.35194" lon="9.7560467"><ele>73.33333333333333</ele><time>2026-03-29T09:52:51.869Z</time></trkpt><trkpt lat="45.351925" lon="9.7561367"><ele>73.16666666666666</ele><time>2026-03-29T09:52:52.869Z</time></trkpt><trkpt lat="45.3519067" lon="9.7562267"><ele>73.0</ele><time>2026-03-29T09:52:53.869Z</time></trkpt><trkpt lat="45.3518817" lon="9.7563117"><ele>72.71428571428571</ele><time>2026-03-29T09:52:54.869Z</time></trkpt><trkpt lat="45.3518517" lon="9.7563917"><ele>72.42857142857143</ele><time>2026-03-29T09:52:55.869Z</time></trkpt><trkpt lat="45.3518233" lon="9.7564733"><ele>72.14285714285714</ele><time>2026-03-29T09:52:56.869Z</time></trkpt><trkpt lat="45.3517933" lon="9.7565583"><ele>71.85714285714286</ele><time>2026-03-29T09:52:57.869Z</time></trkpt><trkpt lat="45.3517567" lon="9.7566433"><ele>71.57142857142857</ele><time>2026-03-29T09:52:58.869Z</time></trkpt><trkpt lat="45.3517233" lon="9.7567267"><ele>71.28571428571428</ele><time>2026-03-29T09:52:59.869Z</time></trkpt><trkpt lat="45.3516883" lon="9.756805"><ele>71.0</ele><time>2026-03-29T09:53:00.869Z</time></trkpt><trkpt lat="45.3516517" lon="9.75689"><ele>71.0</ele><time>2026-03-29T09:53:01.869Z</time></trkpt><trkpt lat="45.3516183" lon="9.7569717"><ele>71.0</ele><time>2026-03-29T09:53:02.869Z</time></trkpt><trkpt lat="45.3515833" lon="9.75706"><ele>71.0</ele><time>2026-03-29T09:53:03.869Z</time></trkpt><trkpt lat="45.3515483" lon="9.757145"><ele>71.0</ele><time>2026-03-29T09:53:04.87Z</time></trkpt><trkpt lat="45.351515" lon="9.7572333"><ele>71.0</ele><time>2026-03-29T09:53:05.869Z</time></trkpt><trkpt lat="45.35148" lon="9.75732"><ele>71.0</ele><time>2026-03-29T09:53:06.869Z</time></trkpt><trkpt lat="45.3514483" lon="9.7574133"><ele>71.0</ele><time>2026-03-29T09:53:07.87Z</time></trkpt><trkpt lat="45.35142" lon="9.7575067"><ele>71.0</ele><time>2026-03-29T09:53:08.869Z</time></trkpt><trkpt lat="45.3513917" lon="9.7575983"><ele>71.0</ele><time>2026-03-29T09:53:09.869Z</time></trkpt><trkpt lat="45.3513683" lon="9.7576933"><ele>71.0</ele><time>2026-03-29T09:53:10.869Z</time></trkpt><trkpt lat="45.3513533" lon="9.7577867"><ele>71.0</ele><time>2026-03-29T09:53:11.869Z</time></trkpt><trkpt lat="45.351345" lon="9.7578867"><ele>71.0</ele><time>2026-03-29T09:53:12.869Z</time></trkpt><trkpt lat="45.3513333" lon="9.7579833"><ele>71.0</ele><time>2026-03-29T09:53:13.869Z</time></trkpt><trkpt lat="45.351325" lon="9.7580817"><ele>71.0</ele><time>2026-03-29T09:53:14.869Z</time></trkpt><trkpt lat="45.3513167" lon="9.7581783"><ele>70.85714285714286</ele><time>2026-03-29T09:53:15.869Z</time></trkpt><trkpt lat="45.3513117" lon="9.7582767"><ele>70.71428571428571</ele><time>2026-03-29T09:53:16.869Z</time></trkpt><trkpt lat="45.351305" lon="9.7583767"><ele>70.57142857142857</ele><time>2026-03-29T09:53:17.869Z</time></trkpt><trkpt lat="45.3513" lon="9.7584733"><ele>70.42857142857143</ele><time>2026-03-29T09:53:18.87Z</time></trkpt><trkpt lat="45.3512917" lon="9.75857"><ele>70.28571428571428</ele><time>2026-03-29T09:53:19.869Z</time></trkpt><trkpt lat="45.3512833" lon="9.7586683"><ele>70.14285714285714</ele><time>2026-03-29T09:53:20.87Z</time></trkpt><trkpt lat="45.3512767" lon="9.7587667"><ele>70.0</ele><time>2026-03-29T09:53:21.869Z</time></trkpt><trkpt lat="45.3512717" lon="9.75886"><ele>70.0</ele><time>2026-03-29T09:53:22.869Z</time></trkpt><trkpt lat="45.3512667" lon="9.75895"><ele>70.0</ele><time>2026-03-29T09:53:23.869Z</time></trkpt><trkpt lat="45.35126" lon="9.7590433"><ele>70.0</ele><time>2026-03-29T09:53:24.869Z</time></trkpt><trkpt lat="45.35125" lon="9.7591367"><ele>70.0</ele><time>2026-03-29T09:53:25.869Z</time></trkpt><trkpt lat="45.351245" lon="9.7592317"><ele>70.0</ele><time>2026-03-29T09:53:26.869Z</time></trkpt><trkpt lat="45.35124" lon="9.7593233"><ele>70.0</ele><time>2026-03-29T09:53:27.869Z</time></trkpt><trkpt lat="45.3512367" lon="9.7594217"><ele>70.0</ele><time>2026-03-29T09:53:28.869Z</time></trkpt><trkpt lat="45.3512333" lon="9.7595183"><ele>70.28571428571429</ele><time>2026-03-29T09:53:29.87Z</time></trkpt><trkpt lat="45.3512333" lon="9.7596167"><ele>70.57142857142857</ele><time>2026-03-29T09:53:30.869Z</time></trkpt><trkpt lat="45.3512317" lon="9.7597117"><ele>70.85714285714286</ele><time>2026-03-29T09:53:31.869Z</time></trkpt><trkpt lat="45.3512267" lon="9.759805"><ele>71.14285714285714</ele><time>2026-03-29T09:53:32.869Z</time></trkpt><trkpt lat="45.3512267" lon="9.7599033"><ele>71.42857142857143</ele><time>2026-03-29T09:53:33.87Z</time></trkpt><trkpt lat="45.3512233" lon="9.7599983"><ele>71.71428571428572</ele><time>2026-03-29T09:53:34.869Z</time></trkpt><trkpt lat="45.351225" lon="9.7600983"><ele>72.0</ele><time>2026-03-29T09:53:35.869Z</time></trkpt><trkpt lat="45.3512283" lon="9.760195"><ele>71.83333333333333</ele><time>2026-03-29T09:53:36.869Z</time></trkpt><trkpt lat="45.3512333" lon="9.760285"><ele>71.66666666666667</ele><time>2026-03-29T09:53:37.869Z</time></trkpt><trkpt lat="45.351225" lon="9.76046"><ele>71.5</ele><time>2026-03-29T09:53:39.869Z</time></trkpt><trkpt lat="45.3512233" lon="9.7605533"><ele>71.33333333333334</ele><time>2026-03-29T09:53:40.869Z</time></trkpt><trkpt lat="45.3512283" lon="9.7606467"><ele>71.16666666666667</ele><time>2026-03-29T09:53:41.869Z</time></trkpt><trkpt lat="45.3512317" lon="9.7607417"><ele>71.0</ele><time>2026-03-29T09:53:42.869Z</time></trkpt><trkpt lat="45.3512383" lon="9.7608467"><ele>71.0</ele><time>2026-03-29T09:53:43.87Z</time></trkpt><trkpt lat="45.3512417" lon="9.7609367"><ele>71.0</ele><time>2026-03-29T09:53:44.869Z</time></trkpt><trkpt lat="45.35125" lon="9.76103"><ele>71.0</ele><time>2026-03-29T09:53:45.869Z</time></trkpt><trkpt lat="45.3512567" lon="9.7611233"><ele>71.0</ele><time>2026-03-29T09:53:46.869Z</time></trkpt><trkpt lat="45.3512617" lon="9.7612167"><ele>71.0</ele><time>2026-03-29T09:53:47.87Z</time></trkpt><trkpt lat="45.351275" lon="9.76131"><ele>71.0</ele><time>2026-03-29T09:53:48.869Z</time></trkpt><trkpt lat="45.35128" lon="9.7614067"><ele>71.0</ele><time>2026-03-29T09:53:49.869Z</time></trkpt><trkpt lat="45.3512933" lon="9.7615067"><ele>71.0</ele><time>2026-03-29T09:53:50.869Z</time></trkpt><trkpt lat="45.351305" lon="9.7616067"><ele>71.0</ele><time>2026-03-29T09:53:51.869Z</time></trkpt><trkpt lat="45.3513183" lon="9.7617033"><ele>71.0</ele><time>2026-03-29T09:53:52.869Z</time></trkpt><trkpt lat="45.351325" lon="9.7618033"><ele>71.0</ele><time>2026-03-29T09:53:53.869Z</time></trkpt><trkpt lat="45.351335" lon="9.7619"><ele>71.0</ele><time>2026-03-29T09:53:54.869Z</time></trkpt><trkpt lat="45.3513417" lon="9.761995"><ele>71.0</ele><time>2026-03-29T09:53:55.869Z</time></trkpt><trkpt lat="45.3513483" lon="9.7620933"><ele>71.0</ele><time>2026-03-29T09:53:56.87Z</time></trkpt><trkpt lat="45.3513517" lon="9.7621883"><ele>71.0</ele><time>2026-03-29T09:53:57.869Z</time></trkpt><trkpt lat="45.3513467" lon="9.76228"><ele>71.0</ele><time>2026-03-29T09:53:58.869Z</time></trkpt><trkpt lat="45.35134" lon="9.76237"><ele>71.0</ele><time>2026-03-29T09:53:59.869Z</time></trkpt><trkpt lat="45.3513383" lon="9.7624633"><ele>71.0</ele><time>2026-03-29T09:54:00.869Z</time></trkpt><trkpt lat="45.35134" lon="9.7625583"><ele>71.0</ele><time>2026-03-29T09:54:01.869Z</time></trkpt><trkpt lat="45.3513467" lon="9.762655"><ele>71.0</ele><time>2026-03-29T09:54:02.87Z</time></trkpt><trkpt lat="45.3513483" lon="9.7627517"><ele>71.0</ele><time>2026-03-29T09:54:03.869Z</time></trkpt><trkpt lat="45.3513433" lon="9.762845"><ele>70.71428571428571</ele><time>2026-03-29T09:54:04.869Z</time></trkpt><trkpt lat="45.3513417" lon="9.7629383"><ele>70.42857142857142</ele><time>2026-03-29T09:54:05.87Z</time></trkpt><trkpt lat="45.3513367" lon="9.7630333"><ele>70.14285714285714</ele><time>2026-03-29T09:54:06.869Z</time></trkpt><trkpt lat="45.3513317" lon="9.76313"><ele>69.85714285714286</ele><time>2026-03-29T09:54:07.869Z</time></trkpt><trkpt lat="45.3513233" lon="9.7632267"><ele>69.57142857142858</ele><time>2026-03-29T09:54:08.869Z</time></trkpt><trkpt lat="45.3513233" lon="9.7633217"><ele>69.28571428571429</ele><time>2026-03-29T09:54:09.87Z</time></trkpt><trkpt lat="45.3513217" lon="9.7634183"><ele>69.0</ele><time>2026-03-29T09:54:10.869Z</time></trkpt><trkpt lat="45.35132" lon="9.7635133"><ele>69.0</ele><time>2026-03-29T09:54:11.869Z</time></trkpt><trkpt lat="45.35132" lon="9.763605"><ele>69.0</ele><time>2026-03-29T09:54:12.869Z</time></trkpt><trkpt lat="45.35132" lon="9.76378"><ele>69.0</ele><time>2026-03-29T09:54:14.869Z</time></trkpt><trkpt lat="45.3513017" lon="9.7639367"><ele>69.0</ele><time>2026-03-29T09:54:16.869Z</time></trkpt><trkpt lat="45.3512367" lon="9.76407"><ele>69.0</ele><time>2026-03-29T09:54:18.869Z</time></trkpt><trkpt lat="45.3511233" lon="9.7641083"><ele>69.0</ele><time>2026-03-29T09:54:20.869Z</time></trkpt><trkpt lat="45.3510067" lon="9.7641067"><ele>69.0</ele><time>2026-03-29T09:54:22.87Z</time></trkpt><trkpt lat="45.3508883" lon="9.7641017"><ele>69.0</ele><time>2026-03-29T09:54:24.869Z</time></trkpt><trkpt lat="45.3507733" lon="9.764105"><ele>69.0</ele><time>2026-03-29T09:54:26.869Z</time></trkpt><trkpt lat="45.350655" lon="9.7641133"><ele>69.5</ele><time>2026-03-29T09:54:28.869Z</time></trkpt><trkpt lat="45.3505317" lon="9.76412"><ele>70.0</ele><time>2026-03-29T09:54:30.869Z</time></trkpt><trkpt lat="45.350415" lon="9.76413"><ele>70.5</ele><time>2026-03-29T09:54:32.869Z</time></trkpt><trkpt lat="45.350295" lon="9.7641383"><ele>71.0</ele><time>2026-03-29T09:54:34.869Z</time></trkpt><trkpt lat="45.3501717" lon="9.7641483"><ele>71.0</ele><time>2026-03-29T09:54:36.869Z</time></trkpt><trkpt lat="45.3501083" lon="9.7641517"><ele>71.0</ele><time>2026-03-29T09:54:37.87Z</time></trkpt><trkpt lat="45.3499883" lon="9.7641417"><ele>71.0</ele><time>2026-03-29T09:54:39.87Z</time></trkpt><trkpt lat="45.3498733" lon="9.764125"><ele>71.0</ele><time>2026-03-29T09:54:41.87Z</time></trkpt><trkpt lat="45.34981" lon="9.7641167"><ele>71.0</ele><time>2026-03-29T09:54:42.869Z</time></trkpt><trkpt lat="45.3496867" lon="9.7641"><ele>70.75</ele><time>2026-03-29T09:54:44.869Z</time></trkpt><trkpt lat="45.3495683" lon="9.76408"><ele>70.5</ele><time>2026-03-29T09:54:46.869Z</time></trkpt><trkpt lat="45.34945" lon="9.76406"><ele>70.25</ele><time>2026-03-29T09:54:48.87Z</time></trkpt><trkpt lat="45.34933" lon="9.76404"><ele>70.0</ele><time>2026-03-29T09:54:50.869Z</time></trkpt><trkpt lat="45.3492167" lon="9.7640117"><ele>70.0</ele><time>2026-03-29T09:54:52.869Z</time></trkpt><trkpt lat="45.3491533" lon="9.764"><ele>70.0</ele><time>2026-03-29T09:54:53.869Z</time></trkpt><trkpt lat="45.3490367" lon="9.7639733"><ele>70.0</ele><time>2026-03-29T09:54:55.869Z</time></trkpt><trkpt lat="45.3489233" lon="9.7639483"><ele>70.0</ele><time>2026-03-29T09:54:57.869Z</time></trkpt><trkpt lat="45.348805" lon="9.763925"><ele>70.0</ele><time>2026-03-29T09:54:59.869Z</time></trkpt><trkpt lat="45.3486883" lon="9.7639083"><ele>70.2</ele><time>2026-03-29T09:55:01.869Z</time></trkpt><trkpt lat="45.348575" lon="9.763905"><ele>70.4</ele><time>2026-03-29T09:55:03.869Z</time></trkpt><trkpt lat="45.34849" lon="9.7639867"><ele>70.6</ele><time>2026-03-29T09:55:05.869Z</time></trkpt><trkpt lat="45.34849" lon="9.7641217"><ele>70.8</ele><time>2026-03-29T09:55:07.869Z</time></trkpt><trkpt lat="45.3485" lon="9.7642567"><ele>71.0</ele><time>2026-03-29T09:55:09.869Z</time></trkpt><trkpt lat="45.3485083" lon="9.7643983"><ele>70.6</ele><time>2026-03-29T09:55:11.869Z</time></trkpt><trkpt lat="45.3485167" lon="9.764545"><ele>70.19999999999999</ele><time>2026-03-29T09:55:13.869Z</time></trkpt><trkpt lat="45.348525" lon="9.7647033"><ele>69.80000000000001</ele><time>2026-03-29T09:55:15.869Z</time></trkpt><trkpt lat="45.3485333" lon="9.7648583"><ele>69.4</ele><time>2026-03-29T09:55:17.869Z</time></trkpt><trkpt lat="45.3485367" lon="9.7650217"><ele>69.0</ele><time>2026-03-29T09:55:19.869Z</time></trkpt><trkpt lat="45.3485433" lon="9.76519"><ele>69.5</ele><time>2026-03-29T09:55:21.869Z</time></trkpt><trkpt lat="45.3485517" lon="9.76536"><ele>70.0</ele><time>2026-03-29T09:55:23.869Z</time></trkpt><trkpt lat="45.348565" lon="9.76553"><ele>70.5</ele><time>2026-03-29T09:55:25.869Z</time></trkpt><trkpt lat="45.3485683" lon="9.7656983"><ele>71.0</ele><time>2026-03-29T09:55:27.869Z</time></trkpt><trkpt lat="45.348575" lon="9.7658717"><ele>71.0</ele><time>2026-03-29T09:55:29.87Z</time></trkpt><trkpt lat="45.3485783" lon="9.7659617"><ele>71.0</ele><time>2026-03-29T09:55:30.869Z</time></trkpt><trkpt lat="45.3485867" lon="9.766145"><ele>71.0</ele><time>2026-03-29T09:55:32.87Z</time></trkpt><trkpt lat="45.34859" lon="9.76624"><ele>71.0</ele><time>2026-03-29T09:55:33.87Z</time></trkpt><trkpt lat="45.3485933" lon="9.7663317"><ele>71.0</ele><time>2026-03-29T09:55:34.869Z</time></trkpt><trkpt lat="45.3485967" lon="9.7664267"><ele>71.0</ele><time>2026-03-29T09:55:35.869Z</time></trkpt><trkpt lat="45.3485967" lon="9.7665283"><ele>70.85714285714286</ele><time>2026-03-29T09:55:36.869Z</time></trkpt><trkpt lat="45.3485983" lon="9.766625"><ele>70.71428571428571</ele><time>2026-03-29T09:55:37.87Z</time></trkpt><trkpt lat="45.348605" lon="9.7667183"><ele>70.57142857142857</ele><time>2026-03-29T09:55:38.869Z</time></trkpt><trkpt lat="45.3486033" lon="9.7668233"><ele>70.42857142857143</ele><time>2026-03-29T09:55:39.869Z</time></trkpt><trkpt lat="45.3486033" lon="9.7669183"><ele>70.28571428571428</ele><time>2026-03-29T09:55:40.869Z</time></trkpt><trkpt lat="45.3486083" lon="9.767015"><ele>70.14285714285714</ele><time>2026-03-29T09:55:41.869Z</time></trkpt><trkpt lat="45.3486133" lon="9.76711"><ele>70.0</ele><time>2026-03-29T09:55:42.869Z</time></trkpt><trkpt lat="45.348615" lon="9.7672067"><ele>69.8</ele><time>2026-03-29T09:55:43.869Z</time></trkpt><trkpt lat="45.34862" lon="9.7673"><ele>69.6</ele><time>2026-03-29T09:55:44.869Z</time></trkpt><trkpt lat="45.34863" lon="9.767475"><ele>69.4</ele><time>2026-03-29T09:55:46.869Z</time></trkpt><trkpt lat="45.34864" lon="9.7676517"><ele>69.2</ele><time>2026-03-29T09:55:48.869Z</time></trkpt><trkpt lat="45.348645" lon="9.7678267"><ele>69.0</ele><time>2026-03-29T09:55:50.869Z</time></trkpt><trkpt lat="45.348655" lon="9.767995"><ele>69.0</ele><time>2026-03-29T09:55:52.869Z</time></trkpt><trkpt lat="45.34866" lon="9.7681467"><ele>69.0</ele><time>2026-03-29T09:55:54.869Z</time></trkpt><trkpt lat="45.3486767" lon="9.7682883"><ele>69.0</ele><time>2026-03-29T09:55:56.869Z</time></trkpt><trkpt lat="45.3486783" lon="9.7684217"><ele>69.0</ele><time>2026-03-29T09:55:58.869Z</time></trkpt><trkpt lat="45.34865" lon="9.7685417"><ele>69.0</ele><time>2026-03-29T09:56:00.87Z</time></trkpt><trkpt lat="45.3485617" lon="9.768605"><ele>69.60000000000001</ele><time>2026-03-29T09:56:02.869Z</time></trkpt><trkpt lat="45.3484567" lon="9.7686183"><ele>70.2</ele><time>2026-03-29T09:56:04.87Z</time></trkpt><trkpt lat="45.3483633" lon="9.768615"><ele>70.80000000000001</ele><time>2026-03-29T09:56:06.868Z</time></trkpt><trkpt lat="45.3482867" lon="9.768665"><ele>71.4</ele><time>2026-03-29T09:56:08.869Z</time></trkpt><trkpt lat="45.348255" lon="9.768775"><ele>72.0</ele><time>2026-03-29T09:56:10.868Z</time></trkpt><trkpt lat="45.348265" lon="9.7689067"><ele>72.0</ele><time>2026-03-29T09:56:12.868Z</time></trkpt><trkpt lat="45.3482767" lon="9.76904"><ele>72.0</ele><time>2026-03-29T09:56:14.868Z</time></trkpt><trkpt lat="45.34829" lon="9.7691817"><ele>72.0</ele><time>2026-03-29T09:56:16.868Z</time></trkpt><trkpt lat="45.3483" lon="9.76933"><ele>72.0</ele><time>2026-03-29T09:56:18.869Z</time></trkpt><trkpt lat="45.3483017" lon="9.7694867"><ele>72.0</ele><time>2026-03-29T09:56:20.868Z</time></trkpt><trkpt lat="45.3482983" lon="9.7696383"><ele>71.5</ele><time>2026-03-29T09:56:22.868Z</time></trkpt><trkpt lat="45.3483067" lon="9.769805"><ele>71.0</ele><time>2026-03-29T09:56:24.868Z</time></trkpt><trkpt lat="45.3483217" lon="9.7699683"><ele>70.5</ele><time>2026-03-29T09:56:26.869Z</time></trkpt><trkpt lat="45.3483217" lon="9.7701367"><ele>70.0</ele><time>2026-03-29T09:56:28.868Z</time></trkpt><trkpt lat="45.3483267" lon="9.7703067"><ele>69.8</ele><time>2026-03-29T09:56:30.868Z</time></trkpt><trkpt lat="45.3483383" lon="9.7704783"><ele>69.6</ele><time>2026-03-29T09:56:32.869Z</time></trkpt><trkpt lat="45.34835" lon="9.7706533"><ele>69.4</ele><time>2026-03-29T09:56:34.868Z</time></trkpt><trkpt lat="45.3483633" lon="9.770745"><ele>69.2</ele><time>2026-03-29T09:56:35.868Z</time></trkpt><trkpt lat="45.3483883" lon="9.7709167"><ele>69.0</ele><time>2026-03-29T09:56:37.868Z</time></trkpt><trkpt lat="45.3484067" lon="9.7710033"><ele>69.16666666666667</ele><time>2026-03-29T09:56:38.868Z</time></trkpt><trkpt lat="45.348445" lon="9.7711767"><ele>69.33333333333333</ele><time>2026-03-29T09:56:40.868Z</time></trkpt><trkpt lat="45.34847" lon="9.7712617"><ele>69.5</ele><time>2026-03-29T09:56:41.868Z</time></trkpt><trkpt lat="45.3484967" lon="9.7713483"><ele>69.66666666666666</ele><time>2026-03-29T09:56:42.868Z</time></trkpt><trkpt lat="45.3485183" lon="9.7714333"><ele>69.83333333333333</ele><time>2026-03-29T09:56:43.868Z</time></trkpt><trkpt lat="45.34854" lon="9.7715217"><ele>70.0</ele><time>2026-03-29T09:56:44.868Z</time></trkpt><trkpt lat="45.3485617" lon="9.7716133"><ele>70.0</ele><time>2026-03-29T09:56:45.868Z</time></trkpt><trkpt lat="45.3485833" lon="9.7717033"><ele>70.0</ele><time>2026-03-29T09:56:46.868Z</time></trkpt><trkpt lat="45.3486033" lon="9.7718083"><ele>70.0</ele><time>2026-03-29T09:56:47.868Z</time></trkpt><trkpt lat="45.3486233" lon="9.7718967"><ele>70.0</ele><time>2026-03-29T09:56:48.868Z</time></trkpt><trkpt lat="45.3486433" lon="9.7719867"><ele>70.0</ele><time>2026-03-29T09:56:49.869Z</time></trkpt><trkpt lat="45.3486633" lon="9.7720733"><ele>70.0</ele><time>2026-03-29T09:56:50.869Z</time></trkpt><trkpt lat="45.3486867" lon="9.7721567"><ele>70.0</ele><time>2026-03-29T09:56:51.868Z</time></trkpt><trkpt lat="45.3487167" lon="9.7722367"><ele>69.8</ele><time>2026-03-29T09:56:52.868Z</time></trkpt><trkpt lat="45.348745" lon="9.7723183"><ele>69.6</ele><time>2026-03-29T09:56:53.868Z</time></trkpt><trkpt lat="45.348795" lon="9.7724817"><ele>69.4</ele><time>2026-03-29T09:56:55.868Z</time></trkpt><trkpt lat="45.3488133" lon="9.7725683"><ele>69.2</ele><time>2026-03-29T09:56:56.868Z</time></trkpt><trkpt lat="45.348845" lon="9.7727433"><ele>69.0</ele><time>2026-03-29T09:56:58.868Z</time></trkpt><trkpt lat="45.348875" lon="9.77292"><ele>69.0</ele><time>2026-03-29T09:57:00.868Z</time></trkpt><trkpt lat="45.3488883" lon="9.773015"><ele>69.0</ele><time>2026-03-29T09:57:01.868Z</time></trkpt><trkpt lat="45.3489033" lon="9.7731083"><ele>69.0</ele><time>2026-03-29T09:57:02.868Z</time></trkpt><trkpt lat="45.3489167" lon="9.7732017"><ele>69.0</ele><time>2026-03-29T09:57:03.868Z</time></trkpt><trkpt lat="45.3489333" lon="9.7732967"><ele>69.0</ele><time>2026-03-29T09:57:04.868Z</time></trkpt><trkpt lat="45.3489467" lon="9.7733917"><ele>69.0</ele><time>2026-03-29T09:57:05.868Z</time></trkpt><trkpt lat="45.3489617" lon="9.7734883"><ele>69.0</ele><time>2026-03-29T09:57:06.868Z</time></trkpt><trkpt lat="45.3489783" lon="9.7735817"><ele>69.0</ele><time>2026-03-29T09:57:07.868Z</time></trkpt><trkpt lat="45.3489933" lon="9.7736767"><ele>69.0</ele><time>2026-03-29T09:57:08.868Z</time></trkpt><trkpt lat="45.3490083" lon="9.77377"><ele>69.0</ele><time>2026-03-29T09:57:09.868Z</time></trkpt><trkpt lat="45.3490233" lon="9.7738617"><ele>69.0</ele><time>2026-03-29T09:57:10.868Z</time></trkpt><trkpt lat="45.3490417" lon="9.77395"><ele>69.0</ele><time>2026-03-29T09:57:11.868Z</time></trkpt><trkpt lat="45.3490583" lon="9.7740417"><ele>69.0</ele><time>2026-03-29T09:57:12.868Z</time></trkpt><trkpt lat="45.3490767" lon="9.7741333"><ele>69.0</ele><time>2026-03-29T09:57:13.869Z</time></trkpt><trkpt lat="45.3490917" lon="9.7742233"><ele>69.0</ele><time>2026-03-29T09:57:14.868Z</time></trkpt><trkpt lat="45.3491117" lon="9.7743133"><ele>69.0</ele><time>2026-03-29T09:57:15.869Z</time></trkpt><trkpt lat="45.34913" lon="9.7744017"><ele>69.0</ele><time>2026-03-29T09:57:16.868Z</time></trkpt><trkpt lat="45.3491617" lon="9.7745733"><ele>69.0</ele><time>2026-03-29T09:57:18.869Z</time></trkpt><trkpt lat="45.34919" lon="9.77474"><ele>69.0</ele><time>2026-03-29T09:57:20.868Z</time></trkpt><trkpt lat="45.3492167" lon="9.774885"><ele>69.0</ele><time>2026-03-29T09:57:22.868Z</time></trkpt><trkpt lat="45.3492383" lon="9.7750133"><ele>69.0</ele><time>2026-03-29T09:57:24.868Z</time></trkpt><trkpt lat="45.3492933" lon="9.7751"><ele>69.0</ele><time>2026-03-29T09:57:26.869Z</time></trkpt><trkpt lat="45.3493667" lon="9.7751067"><ele>69.0</ele><time>2026-03-29T09:57:28.868Z</time></trkpt><trkpt lat="45.3494333" lon="9.775085"><ele>69.0</ele><time>2026-03-29T09:57:30.868Z</time></trkpt><trkpt lat="45.3495" lon="9.7750533"><ele>69.0</ele><time>2026-03-29T09:57:32.868Z</time></trkpt><trkpt lat="45.34957" lon="9.7750117"><ele>69.0</ele><time>2026-03-29T09:57:34.868Z</time></trkpt><trkpt lat="45.3496467" lon="9.774965"><ele>69.0</ele><time>2026-03-29T09:57:36.868Z</time></trkpt><trkpt lat="45.3497267" lon="9.774925"><ele>69.0</ele><time>2026-03-29T09:57:38.868Z</time></trkpt><trkpt lat="45.3498267" lon="9.7748883"><ele>69.0</ele><time>2026-03-29T09:57:40.869Z</time></trkpt><trkpt lat="45.3499267" lon="9.7748617"><ele>69.0</ele><time>2026-03-29T09:57:42.868Z</time></trkpt><trkpt lat="45.35002" lon="9.7748383"><ele>69.60000000000001</ele><time>2026-03-29T09:57:44.869Z</time></trkpt><trkpt lat="45.350125" lon="9.7748117"><ele>70.2</ele><time>2026-03-29T09:57:46.869Z</time></trkpt><trkpt lat="45.35023" lon="9.7747933"><ele>70.80000000000001</ele><time>2026-03-29T09:57:48.868Z</time></trkpt><trkpt lat="45.3503333" lon="9.774775"><ele>71.4</ele><time>2026-03-29T09:57:50.869Z</time></trkpt><trkpt lat="45.3504317" lon="9.7747433"><ele>72.0</ele><time>2026-03-29T09:57:52.868Z</time></trkpt><trkpt lat="45.35053" lon="9.7747167"><ele>71.8</ele><time>2026-03-29T09:57:54.869Z</time></trkpt><trkpt lat="45.350635" lon="9.77469"><ele>71.6</ele><time>2026-03-29T09:57:56.869Z</time></trkpt><trkpt lat="45.35074" lon="9.7746683"><ele>71.39999999999999</ele><time>2026-03-29T09:57:58.869Z</time></trkpt><trkpt lat="45.350845" lon="9.7746467"><ele>71.2</ele><time>2026-03-29T09:58:00.868Z</time></trkpt><trkpt lat="45.35094" lon="9.774625"><ele>71.0</ele><time>2026-03-29T09:58:02.868Z</time></trkpt><trkpt lat="45.3510317" lon="9.7746033"><ele>71.0</ele><time>2026-03-29T09:58:04.868Z</time></trkpt><trkpt lat="45.3511333" lon="9.774575"><ele>71.0</ele><time>2026-03-29T09:58:06.868Z</time></trkpt><trkpt lat="45.35124" lon="9.7745467"><ele>71.0</ele><time>2026-03-29T09:58:08.868Z</time></trkpt><trkpt lat="45.3513583" lon="9.7745283"><ele>71.0</ele><time>2026-03-29T09:58:10.869Z</time></trkpt><trkpt lat="45.3514783" lon="9.774505"><ele>70.75</ele><time>2026-03-29T09:58:12.868Z</time></trkpt><trkpt lat="45.3515983" lon="9.7744717"><ele>70.5</ele><time>2026-03-29T09:58:14.868Z</time></trkpt><trkpt lat="45.3517167" lon="9.7744433"><ele>70.25</ele><time>2026-03-29T09:58:16.868Z</time></trkpt><trkpt lat="45.351835" lon="9.7744233"><ele>70.0</ele><time>2026-03-29T09:58:18.869Z</time></trkpt><trkpt lat="45.35195" lon="9.7744067"><ele>70.0</ele><time>2026-03-29T09:58:20.869Z</time></trkpt><trkpt lat="45.3520683" lon="9.7743733"><ele>70.0</ele><time>2026-03-29T09:58:22.869Z</time></trkpt><trkpt lat="45.35213" lon="9.7743517"><ele>70.0</ele><time>2026-03-29T09:58:23.868Z</time></trkpt><trkpt lat="45.3521933" lon="9.7743333"><ele>70.0</ele><time>2026-03-29T09:58:24.868Z</time></trkpt><trkpt lat="45.3522567" lon="9.7743167"><ele>70.0</ele><time>2026-03-29T09:58:25.869Z</time></trkpt><trkpt lat="45.3523783" lon="9.774295"><ele>70.0</ele><time>2026-03-29T09:58:27.868Z</time></trkpt><trkpt lat="45.3525017" lon="9.77427"><ele>70.0</ele><time>2026-03-29T09:58:29.869Z</time></trkpt><trkpt lat="45.3526283" lon="9.774245"><ele>70.0</ele><time>2026-03-29T09:58:31.869Z</time></trkpt><trkpt lat="45.3527517" lon="9.7742233"><ele>70.0</ele><time>2026-03-29T09:58:33.868Z</time></trkpt><trkpt lat="45.352875" lon="9.7742"><ele>70.0</ele><time>2026-03-29T09:58:35.868Z</time></trkpt><trkpt lat="45.3529383" lon="9.77419"><ele>70.0</ele><time>2026-03-29T09:58:36.868Z</time></trkpt><trkpt lat="45.35306" lon="9.774175"><ele>70.25</ele><time>2026-03-29T09:58:38.868Z</time></trkpt><trkpt lat="45.3531767" lon="9.7741733"><ele>70.5</ele><time>2026-03-29T09:58:40.868Z</time></trkpt><trkpt lat="45.3532867" lon="9.7742133"><ele>70.75</ele><time>2026-03-29T09:58:42.868Z</time></trkpt><trkpt lat="45.3533633" lon="9.7743467"><ele>71.0</ele><time>2026-03-29T09:58:44.868Z</time></trkpt><trkpt lat="45.3533883" lon="9.7745183"><ele>71.0</ele><time>2026-03-29T09:58:46.869Z</time></trkpt><trkpt lat="45.3534167" lon="9.7746783"><ele>71.0</ele><time>2026-03-29T09:58:48.868Z</time></trkpt><trkpt lat="45.3534933" lon="9.7747733"><ele>71.0</ele><time>2026-03-29T09:58:50.868Z</time></trkpt><trkpt lat="45.35361" lon="9.7747667"><ele>71.0</ele><time>2026-03-29T09:58:52.868Z</time></trkpt><trkpt lat="45.3536783" lon="9.7747533"><ele>71.0</ele><time>2026-03-29T09:58:53.868Z</time></trkpt><trkpt lat="45.3537433" lon="9.7747417"><ele>71.0</ele><time>2026-03-29T09:58:54.868Z</time></trkpt><trkpt lat="45.3538633" lon="9.7747067"><ele>71.0</ele><time>2026-03-29T09:58:56.868Z</time></trkpt><trkpt lat="45.3539267" lon="9.7746983"><ele>71.0</ele><time>2026-03-29T09:58:57.868Z</time></trkpt><trkpt lat="45.3539933" lon="9.7746933"><ele>71.0</ele><time>2026-03-29T09:58:58.868Z</time></trkpt><trkpt lat="45.354105" lon="9.7746833"><ele>71.0</ele><time>2026-03-29T09:59:00.869Z</time></trkpt><trkpt lat="45.3542133" lon="9.7746817"><ele>71.25</ele><time>2026-03-29T09:59:02.868Z</time></trkpt><trkpt lat="45.35433" lon="9.7746817"><ele>71.5</ele><time>2026-03-29T09:59:04.869Z</time></trkpt><trkpt lat="45.3544467" lon="9.77466"><ele>71.75</ele><time>2026-03-29T09:59:06.868Z</time></trkpt><trkpt lat="45.35456" lon="9.77463"><ele>72.0</ele><time>2026-03-29T09:59:08.869Z</time></trkpt><trkpt lat="45.3546717" lon="9.7746217"><ele>71.75</ele><time>2026-03-29T09:59:10.869Z</time></trkpt><trkpt lat="45.354785" lon="9.774615"><ele>71.5</ele><time>2026-03-29T09:59:12.868Z</time></trkpt><trkpt lat="45.3549" lon="9.7746117"><ele>71.25</ele><time>2026-03-29T09:59:14.868Z</time></trkpt><trkpt lat="45.3550133" lon="9.7746117"><ele>71.0</ele><time>2026-03-29T09:59:16.868Z</time></trkpt><trkpt lat="45.3551267" lon="9.7746217"><ele>71.0</ele><time>2026-03-29T09:59:18.868Z</time></trkpt><trkpt lat="45.35519" lon="9.7746267"><ele>71.0</ele><time>2026-03-29T09:59:19.868Z</time></trkpt><trkpt lat="45.3553067" lon="9.77463"><ele>71.0</ele><time>2026-03-29T09:59:21.868Z</time></trkpt><trkpt lat="45.3554217" lon="9.774625"><ele>71.0</ele><time>2026-03-29T09:59:23.868Z</time></trkpt><trkpt lat="45.355535" lon="9.774635"><ele>71.0</ele><time>2026-03-29T09:59:25.868Z</time></trkpt><trkpt lat="45.3556433" lon="9.77464"><ele>71.75</ele><time>2026-03-29T09:59:27.868Z</time></trkpt><trkpt lat="45.3557617" lon="9.77465"><ele>72.5</ele><time>2026-03-29T09:59:29.868Z</time></trkpt><trkpt lat="45.3558833" lon="9.774645"><ele>73.25</ele><time>2026-03-29T09:59:31.868Z</time></trkpt><trkpt lat="45.3560067" lon="9.7746283"><ele>74.0</ele><time>2026-03-29T09:59:33.868Z</time></trkpt><trkpt lat="45.3561217" lon="9.7746333"><ele>74.0</ele><time>2026-03-29T09:59:35.868Z</time></trkpt><trkpt lat="45.356185" lon="9.7746267"><ele>74.0</ele><time>2026-03-29T09:59:36.868Z</time></trkpt><trkpt lat="45.356305" lon="9.7746167"><ele>74.0</ele><time>2026-03-29T09:59:38.868Z</time></trkpt><trkpt lat="45.35641" lon="9.7746183"><ele>74.0</ele><time>2026-03-29T09:59:40.868Z</time></trkpt><trkpt lat="45.3565017" lon="9.7746767"><ele>74.0</ele><time>2026-03-29T09:59:42.868Z</time></trkpt><trkpt lat="45.3565383" lon="9.7748067"><ele>74.2</ele><time>2026-03-29T09:59:44.869Z</time></trkpt><trkpt lat="45.3565367" lon="9.774965"><ele>74.4</ele><time>2026-03-29T09:59:46.869Z</time></trkpt><trkpt lat="45.3565333" lon="9.77512"><ele>74.6</ele><time>2026-03-29T09:59:48.868Z</time></trkpt><trkpt lat="45.3565117" lon="9.7752433"><ele>74.8</ele><time>2026-03-29T09:59:50.868Z</time></trkpt><trkpt lat="45.356495" lon="9.7753683"><ele>75.0</ele><time>2026-03-29T09:59:52.869Z</time></trkpt><trkpt lat="45.3564833" lon="9.7755083"><ele>74.8</ele><time>2026-03-29T09:59:54.868Z</time></trkpt><trkpt lat="45.3564483" lon="9.7756583"><ele>74.6</ele><time>2026-03-29T09:59:56.869Z</time></trkpt><trkpt lat="45.3564" lon="9.7757933"><ele>74.4</ele><time>2026-03-29T09:59:58.868Z</time></trkpt><trkpt lat="45.3563683" lon="9.775925"><ele>74.2</ele><time>2026-03-29T10:00:00.868Z</time></trkpt><trkpt lat="45.3563683" lon="9.776065"><ele>74.0</ele><time>2026-03-29T10:00:02.869Z</time></trkpt><trkpt lat="45.3563217" lon="9.7761933"><ele>73.8</ele><time>2026-03-29T10:00:04.868Z</time></trkpt><trkpt lat="45.3562567" lon="9.7763183"><ele>73.60000000000001</ele><time>2026-03-29T10:00:06.868Z</time></trkpt><trkpt lat="45.3561967" lon="9.7764433"><ele>73.4</ele><time>2026-03-29T10:00:08.868Z</time></trkpt><trkpt lat="45.3561267" lon="9.7765717"><ele>73.2</ele><time>2026-03-29T10:00:10.868Z</time></trkpt><trkpt lat="45.35606" lon="9.7767117"><ele>73.0</ele><time>2026-03-29T10:00:12.868Z</time></trkpt><trkpt lat="45.355985" lon="9.77685"><ele>73.0</ele><time>2026-03-29T10:00:14.868Z</time></trkpt><trkpt lat="45.355915" lon="9.77698"><ele>73.0</ele><time>2026-03-29T10:00:16.868Z</time></trkpt><trkpt lat="45.3558517" lon="9.7771133"><ele>73.0</ele><time>2026-03-29T10:00:18.868Z</time></trkpt><trkpt lat="45.35579" lon="9.777235"><ele>73.0</ele><time>2026-03-29T10:00:20.868Z</time></trkpt><trkpt lat="45.3557233" lon="9.7773533"><ele>73.0</ele><time>2026-03-29T10:00:22.868Z</time></trkpt><trkpt lat="45.355655" lon="9.777475"><ele>73.0</ele><time>2026-03-29T10:00:24.869Z</time></trkpt><trkpt lat="45.355565" lon="9.7775767"><ele>73.0</ele><time>2026-03-29T10:00:26.868Z</time></trkpt><trkpt lat="45.3554583" lon="9.777625"><ele>73.0</ele><time>2026-03-29T10:00:28.868Z</time></trkpt><trkpt lat="45.3553617" lon="9.777725"><ele>73.0</ele><time>2026-03-29T10:00:30.869Z</time></trkpt><trkpt lat="45.3553217" lon="9.777875"><ele>73.0</ele><time>2026-03-29T10:00:32.869Z</time></trkpt><trkpt lat="45.3553583" lon="9.7780367"><ele>73.0</ele><time>2026-03-29T10:00:34.868Z</time></trkpt><trkpt lat="45.3553717" lon="9.7782083"><ele>73.0</ele><time>2026-03-29T10:00:36.868Z</time></trkpt><trkpt lat="45.3553483" lon="9.7783767"><ele>73.0</ele><time>2026-03-29T10:00:38.868Z</time></trkpt><trkpt lat="45.3553433" lon="9.7785333"><ele>73.0</ele><time>2026-03-29T10:00:40.868Z</time></trkpt><trkpt lat="45.35534" lon="9.7786817"><ele>73.0</ele><time>2026-03-29T10:00:42.869Z</time></trkpt><trkpt lat="45.3553567" lon="9.7788317"><ele>73.0</ele><time>2026-03-29T10:00:44.868Z</time></trkpt><trkpt lat="45.3553717" lon="9.778975"><ele>73.0</ele><time>2026-03-29T10:00:46.868Z</time></trkpt><trkpt lat="45.35539" lon="9.7791167"><ele>73.0</ele><time>2026-03-29T10:00:48.868Z</time></trkpt><trkpt lat="45.3554067" lon="9.7792633"><ele>72.8</ele><time>2026-03-29T10:00:50.868Z</time></trkpt><trkpt lat="45.3554333" lon="9.7794017"><ele>72.6</ele><time>2026-03-29T10:00:52.869Z</time></trkpt><trkpt lat="45.35546" lon="9.7795583"><ele>72.4</ele><time>2026-03-29T10:00:54.868Z</time></trkpt><trkpt lat="45.3554967" lon="9.7796917"><ele>72.2</ele><time>2026-03-29T10:00:56.868Z</time></trkpt><trkpt lat="45.3555167" lon="9.7798317"><ele>72.0</ele><time>2026-03-29T10:00:58.868Z</time></trkpt><trkpt lat="45.3555567" lon="9.77997"><ele>72.0</ele><time>2026-03-29T10:01:00.869Z</time></trkpt><trkpt lat="45.3555717" lon="9.7801"><ele>72.0</ele><time>2026-03-29T10:01:02.868Z</time></trkpt><trkpt lat="45.3555933" lon="9.780195"><ele>72.0</ele><time>2026-03-29T10:01:04.868Z</time></trkpt><trkpt lat="45.355605" lon="9.7802867"><ele>72.0</ele><time>2026-03-29T10:01:07.868Z</time></trkpt><trkpt lat="45.3556383" lon="9.7803967"><ele>72.0</ele><time>2026-03-29T10:01:10.868Z</time></trkpt><trkpt lat="45.3556617" lon="9.7805117"><ele>72.0</ele><time>2026-03-29T10:01:12.869Z</time></trkpt><trkpt lat="45.3556833" lon="9.7806317"><ele>72.2</ele><time>2026-03-29T10:01:14.868Z</time></trkpt><trkpt lat="45.3557083" lon="9.7807517"><ele>72.4</ele><time>2026-03-29T10:01:16.869Z</time></trkpt><trkpt lat="45.3557367" lon="9.7808733"><ele>72.6</ele><time>2026-03-29T10:01:18.868Z</time></trkpt><trkpt lat="45.3557433" lon="9.78102"><ele>72.8</ele><time>2026-03-29T10:01:20.868Z</time></trkpt><trkpt lat="45.35575" lon="9.7811883"><ele>73.0</ele><time>2026-03-29T10:01:22.868Z</time></trkpt><trkpt lat="45.3557633" lon="9.7813483"><ele>73.0</ele><time>2026-03-29T10:01:24.868Z</time></trkpt><trkpt lat="45.3557833" lon="9.7815083"><ele>73.0</ele><time>2026-03-29T10:01:26.868Z</time></trkpt><trkpt lat="45.3558117" lon="9.781685"><ele>73.0</ele><time>2026-03-29T10:01:28.869Z</time></trkpt><trkpt lat="45.3558267" lon="9.7818483"><ele>73.0</ele><time>2026-03-29T10:01:30.868Z</time></trkpt><trkpt lat="45.3558483" lon="9.782005"><ele>73.0</ele><time>2026-03-29T10:01:32.868Z</time></trkpt><trkpt lat="45.3558767" lon="9.7821767"><ele>73.0</ele><time>2026-03-29T10:01:34.868Z</time></trkpt><trkpt lat="45.355895" lon="9.7822633"><ele>73.0</ele><time>2026-03-29T10:01:35.869Z</time></trkpt><trkpt lat="45.3559133" lon="9.7824333"><ele>73.0</ele><time>2026-03-29T10:01:37.868Z</time></trkpt><trkpt lat="45.3559383" lon="9.7826067"><ele>73.0</ele><time>2026-03-29T10:01:39.868Z</time></trkpt><trkpt lat="45.3559517" lon="9.782695"><ele>73.0</ele><time>2026-03-29T10:01:40.868Z</time></trkpt><trkpt lat="45.355975" lon="9.782855"><ele>73.0</ele><time>2026-03-29T10:01:42.868Z</time></trkpt><trkpt lat="45.3559967" lon="9.783015"><ele>73.0</ele><time>2026-03-29T10:01:44.868Z</time></trkpt><trkpt lat="45.3560367" lon="9.7831333"><ele>73.0</ele><time>2026-03-29T10:01:46.868Z</time></trkpt><trkpt lat="45.3561167" lon="9.7831417"><ele>73.0</ele><time>2026-03-29T10:01:48.869Z</time></trkpt><trkpt lat="45.3562217" lon="9.78309"><ele>73.0</ele><time>2026-03-29T10:01:50.868Z</time></trkpt><trkpt lat="45.3563283" lon="9.7830767"><ele>73.0</ele><time>2026-03-29T10:01:52.868Z</time></trkpt><trkpt lat="45.3564267" lon="9.7830617"><ele>73.0</ele><time>2026-03-29T10:01:54.869Z</time></trkpt><trkpt lat="45.35653" lon="9.78307"><ele>73.0</ele><time>2026-03-29T10:01:56.868Z</time></trkpt><trkpt lat="45.3566383" lon="9.7830383"><ele>73.0</ele><time>2026-03-29T10:01:58.869Z</time></trkpt><trkpt lat="45.3567517" lon="9.7830083"><ele>73.0</ele><time>2026-03-29T10:02:00.868Z</time></trkpt><trkpt lat="45.3568683" lon="9.782985"><ele>73.0</ele><time>2026-03-29T10:02:02.869Z</time></trkpt><trkpt lat="45.3569833" lon="9.7829633"><ele>73.0</ele><time>2026-03-29T10:02:04.869Z</time></trkpt><trkpt lat="45.3570933" lon="9.7829467"><ele>73.0</ele><time>2026-03-29T10:02:06.869Z</time></trkpt><trkpt lat="45.357205" lon="9.7829383"><ele>73.25</ele><time>2026-03-29T10:02:08.868Z</time></trkpt><trkpt lat="45.3573017" lon="9.7829333"><ele>73.5</ele><time>2026-03-29T10:02:10.868Z</time></trkpt><trkpt lat="45.3573867" lon="9.782925"><ele>73.75</ele><time>2026-03-29T10:02:12.869Z</time></trkpt><trkpt lat="45.3574483" lon="9.782685"><ele>74.0</ele><time>2026-03-29T10:02:15.245Z</time></trkpt><trkpt lat="45.3575017" lon="9.7829133"><ele>74.0</ele><time>2026-03-29T10:02:16.377Z</time></trkpt></trkseg></trk></gpx>